<?xml version="1.0" encoding="UTF-8" standalone="no" ?>
<gpx xmlns="http://www.topografix.com/GPX/1/1" xmlns:xsi="http://www.w3.org/2001/XMLSchema-instance" xsi:schemaLocation="http://www.topografix.com/GPX/1/1 http://www.topografix.com/GPX/1/1/gpx.xsd" version="1.1" creator="VisuGPX - https://www.visugpx.com">
  <metadata>
    <name>Une semaine de raquettes à neige en Chablais</name>
    <desc><![CDATA[Six jours de randonnée en raquettes à neige au départ d'Habére-Poche.]]></desc>
  </metadata>
  <trk>
    <name><![CDATA[20190212153829-wVrsA]]></name>
    <trkseg>
      <trkpt lat="46.26832" lon="6.46423">
        <ele>1086.91</ele>
        <time>2019-02-03T08:19:27Z</time>
      </trkpt>
      <trkpt lat="46.26832" lon="6.46423">
        <ele>1085.95</ele>
        <time>2019-02-03T08:19:36Z</time>
      </trkpt>
      <trkpt lat="46.26832" lon="6.46424">
        <ele>1086.43</ele>
        <time>2019-02-03T08:20:08Z</time>
      </trkpt>
      <trkpt lat="46.26833" lon="6.46424">
        <ele>1086.43</ele>
        <time>2019-02-03T08:20:21Z</time>
      </trkpt>
      <trkpt lat="46.26833" lon="6.46424">
        <ele>1086.43</ele>
        <time>2019-02-03T08:20:57Z</time>
      </trkpt>
      <trkpt lat="46.26834" lon="6.46424">
        <ele>1085.95</ele>
        <time>2019-02-03T08:21:38Z</time>
      </trkpt>
      <trkpt lat="46.26833" lon="6.46427">
        <ele>1085.95</ele>
        <time>2019-02-03T08:22:43Z</time>
      </trkpt>
      <trkpt lat="46.26832" lon="6.4643">
        <ele>1086.91</ele>
        <time>2019-02-03T08:23:12Z</time>
      </trkpt>
      <trkpt lat="46.26833" lon="6.46425">
        <ele>1085.95</ele>
        <time>2019-02-03T08:23:25Z</time>
      </trkpt>
      <trkpt lat="46.26832" lon="6.46425">
        <ele>1084.99</ele>
        <time>2019-02-03T08:23:55Z</time>
      </trkpt>
      <trkpt lat="46.26832" lon="6.46424">
        <ele>1084.5</ele>
        <time>2019-02-03T08:24:33Z</time>
      </trkpt>
      <trkpt lat="46.26832" lon="6.46424">
        <ele>1084.5</ele>
        <time>2019-02-03T08:25:15Z</time>
      </trkpt>
      <trkpt lat="46.26831" lon="6.4643">
        <ele>1084.02</ele>
        <time>2019-02-03T08:26:04Z</time>
      </trkpt>
      <trkpt lat="46.26832" lon="6.4643">
        <ele>1083.54</ele>
        <time>2019-02-03T08:26:32Z</time>
      </trkpt>
      <trkpt lat="46.26832" lon="6.4643">
        <ele>1083.06</ele>
        <time>2019-02-03T08:26:34Z</time>
      </trkpt>
      <trkpt lat="46.26832" lon="6.46436">
        <ele>1084.02</ele>
        <time>2019-02-03T08:26:48Z</time>
      </trkpt>
      <trkpt lat="46.26832" lon="6.46437">
        <ele>1083.54</ele>
        <time>2019-02-03T08:27:17Z</time>
      </trkpt>
      <trkpt lat="46.26831" lon="6.46436">
        <ele>1083.06</ele>
        <time>2019-02-03T08:28:08Z</time>
      </trkpt>
      <trkpt lat="46.26831" lon="6.46437">
        <ele>1082.58</ele>
        <time>2019-02-03T08:28:52Z</time>
      </trkpt>
      <trkpt lat="46.26831" lon="6.46436">
        <ele>1082.58</ele>
        <time>2019-02-03T08:29:37Z</time>
      </trkpt>
      <trkpt lat="46.26829" lon="6.46443">
        <ele>1082.1</ele>
        <time>2019-02-03T08:30:29Z</time>
      </trkpt>
      <trkpt lat="46.26831" lon="6.46446">
        <ele>1082.1</ele>
        <time>2019-02-03T08:30:33Z</time>
      </trkpt>
      <trkpt lat="46.26837" lon="6.4646">
        <ele>1082.1</ele>
        <time>2019-02-03T08:30:45Z</time>
      </trkpt>
      <trkpt lat="46.26843" lon="6.46472">
        <ele>1083.06</ele>
        <time>2019-02-03T08:30:57Z</time>
      </trkpt>
      <trkpt lat="46.26851" lon="6.46477">
        <ele>1083.54</ele>
        <time>2019-02-03T08:31:08Z</time>
      </trkpt>
      <trkpt lat="46.2686" lon="6.46482">
        <ele>1084.5</ele>
        <time>2019-02-03T08:31:21Z</time>
      </trkpt>
      <trkpt lat="46.26862" lon="6.46483">
        <ele>1084.5</ele>
        <time>2019-02-03T08:31:24Z</time>
      </trkpt>
      <trkpt lat="46.26873" lon="6.46481">
        <ele>1085.47</ele>
        <time>2019-02-03T08:31:37Z</time>
      </trkpt>
      <trkpt lat="46.26881" lon="6.46477">
        <ele>1086.43</ele>
        <time>2019-02-03T08:31:49Z</time>
      </trkpt>
      <trkpt lat="46.26891" lon="6.46471">
        <ele>1086.91</ele>
        <time>2019-02-03T08:32:01Z</time>
      </trkpt>
      <trkpt lat="46.26898" lon="6.46466">
        <ele>1087.87</ele>
        <time>2019-02-03T08:32:12Z</time>
      </trkpt>
      <trkpt lat="46.26907" lon="6.4646">
        <ele>1088.35</ele>
        <time>2019-02-03T08:32:25Z</time>
      </trkpt>
      <trkpt lat="46.26909" lon="6.46461">
        <ele>1089.31</ele>
        <time>2019-02-03T08:32:39Z</time>
      </trkpt>
      <trkpt lat="46.26911" lon="6.46458">
        <ele>1088.35</ele>
        <time>2019-02-03T08:33:00Z</time>
      </trkpt>
      <trkpt lat="46.26912" lon="6.46456">
        <ele>1088.83</ele>
        <time>2019-02-03T08:33:15Z</time>
      </trkpt>
      <trkpt lat="46.26913" lon="6.46457">
        <ele>1088.83</ele>
        <time>2019-02-03T08:33:25Z</time>
      </trkpt>
      <trkpt lat="46.26915" lon="6.46459">
        <ele>1089.79</ele>
        <time>2019-02-03T08:34:19Z</time>
      </trkpt>
      <trkpt lat="46.2692" lon="6.46468">
        <ele>1089.31</ele>
        <time>2019-02-03T08:34:29Z</time>
      </trkpt>
      <trkpt lat="46.26923" lon="6.46472">
        <ele>1088.35</ele>
        <time>2019-02-03T08:34:44Z</time>
      </trkpt>
      <trkpt lat="46.26923" lon="6.46471">
        <ele>1088.83</ele>
        <time>2019-02-03T08:35:08Z</time>
      </trkpt>
      <trkpt lat="46.26928" lon="6.46476">
        <ele>1088.35</ele>
        <time>2019-02-03T08:35:26Z</time>
      </trkpt>
      <trkpt lat="46.26938" lon="6.46477">
        <ele>1088.83</ele>
        <time>2019-02-03T08:35:39Z</time>
      </trkpt>
      <trkpt lat="46.26946" lon="6.4648">
        <ele>1089.79</ele>
        <time>2019-02-03T08:35:52Z</time>
      </trkpt>
      <trkpt lat="46.26954" lon="6.46485">
        <ele>1089.79</ele>
        <time>2019-02-03T08:36:04Z</time>
      </trkpt>
      <trkpt lat="46.26964" lon="6.46492">
        <ele>1089.79</ele>
        <time>2019-02-03T08:36:17Z</time>
      </trkpt>
      <trkpt lat="46.26965" lon="6.46492">
        <ele>1090.27</ele>
        <time>2019-02-03T08:36:18Z</time>
      </trkpt>
      <trkpt lat="46.26973" lon="6.46497">
        <ele>1090.27</ele>
        <time>2019-02-03T08:36:30Z</time>
      </trkpt>
      <trkpt lat="46.26975" lon="6.46498">
        <ele>1089.79</ele>
        <time>2019-02-03T08:36:33Z</time>
      </trkpt>
      <trkpt lat="46.26979" lon="6.46499">
        <ele>1090.75</ele>
        <time>2019-02-03T08:36:39Z</time>
      </trkpt>
      <trkpt lat="46.26986" lon="6.46501">
        <ele>1091.23</ele>
        <time>2019-02-03T08:36:54Z</time>
      </trkpt>
      <trkpt lat="46.26992" lon="6.46502">
        <ele>1091.23</ele>
        <time>2019-02-03T08:37:01Z</time>
      </trkpt>
      <trkpt lat="46.27002" lon="6.46504">
        <ele>1091.23</ele>
        <time>2019-02-03T08:37:14Z</time>
      </trkpt>
      <trkpt lat="46.2701" lon="6.46502">
        <ele>1090.75</ele>
        <time>2019-02-03T08:37:26Z</time>
      </trkpt>
      <trkpt lat="46.27018" lon="6.46501">
        <ele>1090.75</ele>
        <time>2019-02-03T08:37:39Z</time>
      </trkpt>
      <trkpt lat="46.27027" lon="6.46504">
        <ele>1091.71</ele>
        <time>2019-02-03T08:37:53Z</time>
      </trkpt>
      <trkpt lat="46.27035" lon="6.46512">
        <ele>1090.75</ele>
        <time>2019-02-03T08:38:07Z</time>
      </trkpt>
      <trkpt lat="46.27036" lon="6.46514">
        <ele>1090.75</ele>
        <time>2019-02-03T08:38:10Z</time>
      </trkpt>
      <trkpt lat="46.27041" lon="6.46526">
        <ele>1090.75</ele>
        <time>2019-02-03T08:38:27Z</time>
      </trkpt>
      <trkpt lat="46.27045" lon="6.46536">
        <ele>1091.23</ele>
        <time>2019-02-03T08:38:40Z</time>
      </trkpt>
      <trkpt lat="46.27049" lon="6.46545">
        <ele>1091.71</ele>
        <time>2019-02-03T08:38:54Z</time>
      </trkpt>
      <trkpt lat="46.27051" lon="6.46555">
        <ele>1092.68</ele>
        <time>2019-02-03T08:39:08Z</time>
      </trkpt>
      <trkpt lat="46.27057" lon="6.46564">
        <ele>1093.64</ele>
        <time>2019-02-03T08:39:21Z</time>
      </trkpt>
      <trkpt lat="46.27059" lon="6.46576">
        <ele>1094.6</ele>
        <time>2019-02-03T08:39:32Z</time>
      </trkpt>
      <trkpt lat="46.27061" lon="6.46586">
        <ele>1094.12</ele>
        <time>2019-02-03T08:39:41Z</time>
      </trkpt>
      <trkpt lat="46.27062" lon="6.46589">
        <ele>1095.56</ele>
        <time>2019-02-03T08:39:43Z</time>
      </trkpt>
      <trkpt lat="46.27066" lon="6.46596">
        <ele>1094.6</ele>
        <time>2019-02-03T08:39:56Z</time>
      </trkpt>
      <trkpt lat="46.27069" lon="6.46598">
        <ele>1094.6</ele>
        <time>2019-02-03T08:40:08Z</time>
      </trkpt>
      <trkpt lat="46.27076" lon="6.466">
        <ele>1095.08</ele>
        <time>2019-02-03T08:40:20Z</time>
      </trkpt>
      <trkpt lat="46.27082" lon="6.46601">
        <ele>1095.08</ele>
        <time>2019-02-03T08:40:29Z</time>
      </trkpt>
      <trkpt lat="46.27087" lon="6.46603">
        <ele>1095.56</ele>
        <time>2019-02-03T08:40:41Z</time>
      </trkpt>
      <trkpt lat="46.27093" lon="6.46605">
        <ele>1095.56</ele>
        <time>2019-02-03T08:40:54Z</time>
      </trkpt>
      <trkpt lat="46.27101" lon="6.46606">
        <ele>1095.56</ele>
        <time>2019-02-03T08:41:07Z</time>
      </trkpt>
      <trkpt lat="46.27109" lon="6.46608">
        <ele>1096.04</ele>
        <time>2019-02-03T08:41:22Z</time>
      </trkpt>
      <trkpt lat="46.27114" lon="6.46611">
        <ele>1096.52</ele>
        <time>2019-02-03T08:41:29Z</time>
      </trkpt>
      <trkpt lat="46.2712" lon="6.46613">
        <ele>1096.04</ele>
        <time>2019-02-03T08:41:44Z</time>
      </trkpt>
      <trkpt lat="46.27121" lon="6.46613">
        <ele>1096.04</ele>
        <time>2019-02-03T08:41:47Z</time>
      </trkpt>
      <trkpt lat="46.27129" lon="6.46615">
        <ele>1097.48</ele>
        <time>2019-02-03T08:42:00Z</time>
      </trkpt>
      <trkpt lat="46.2713" lon="6.46614">
        <ele>1096.52</ele>
        <time>2019-02-03T08:42:02Z</time>
      </trkpt>
      <trkpt lat="46.27136" lon="6.46617">
        <ele>1096.52</ele>
        <time>2019-02-03T08:42:15Z</time>
      </trkpt>
      <trkpt lat="46.27137" lon="6.46617">
        <ele>1096.04</ele>
        <time>2019-02-03T08:42:16Z</time>
      </trkpt>
      <trkpt lat="46.27138" lon="6.46617">
        <ele>1096.52</ele>
        <time>2019-02-03T08:42:20Z</time>
      </trkpt>
      <trkpt lat="46.27145" lon="6.46619">
        <ele>1097</ele>
        <time>2019-02-03T08:42:33Z</time>
      </trkpt>
      <trkpt lat="46.27152" lon="6.4662">
        <ele>1097.48</ele>
        <time>2019-02-03T08:42:46Z</time>
      </trkpt>
      <trkpt lat="46.27156" lon="6.46621">
        <ele>1097.48</ele>
        <time>2019-02-03T08:43:03Z</time>
      </trkpt>
      <trkpt lat="46.27165" lon="6.46621">
        <ele>1097.48</ele>
        <time>2019-02-03T08:43:16Z</time>
      </trkpt>
      <trkpt lat="46.27172" lon="6.46617">
        <ele>1097.48</ele>
        <time>2019-02-03T08:43:27Z</time>
      </trkpt>
      <trkpt lat="46.27177" lon="6.46613">
        <ele>1097.48</ele>
        <time>2019-02-03T08:43:39Z</time>
      </trkpt>
      <trkpt lat="46.27182" lon="6.4661">
        <ele>1097.48</ele>
        <time>2019-02-03T08:43:51Z</time>
      </trkpt>
      <trkpt lat="46.27188" lon="6.46607">
        <ele>1097.96</ele>
        <time>2019-02-03T08:44:03Z</time>
      </trkpt>
      <trkpt lat="46.27188" lon="6.46607">
        <ele>1097.48</ele>
        <time>2019-02-03T08:44:57Z</time>
      </trkpt>
      <trkpt lat="46.27187" lon="6.46607">
        <ele>1097.48</ele>
        <time>2019-02-03T08:45:15Z</time>
      </trkpt>
      <trkpt lat="46.27193" lon="6.46605">
        <ele>1097.96</ele>
        <time>2019-02-03T08:46:37Z</time>
      </trkpt>
      <trkpt lat="46.272" lon="6.46598">
        <ele>1097</ele>
        <time>2019-02-03T08:46:50Z</time>
      </trkpt>
      <trkpt lat="46.27204" lon="6.46595">
        <ele>1096.04</ele>
        <time>2019-02-03T08:47:03Z</time>
      </trkpt>
      <trkpt lat="46.2721" lon="6.46598">
        <ele>1097</ele>
        <time>2019-02-03T08:47:14Z</time>
      </trkpt>
      <trkpt lat="46.27213" lon="6.46598">
        <ele>1097</ele>
        <time>2019-02-03T08:47:26Z</time>
      </trkpt>
      <trkpt lat="46.27221" lon="6.46597">
        <ele>1097</ele>
        <time>2019-02-03T08:47:35Z</time>
      </trkpt>
      <trkpt lat="46.27229" lon="6.46598">
        <ele>1097.48</ele>
        <time>2019-02-03T08:47:47Z</time>
      </trkpt>
      <trkpt lat="46.27234" lon="6.46601">
        <ele>1098.44</ele>
        <time>2019-02-03T08:48:00Z</time>
      </trkpt>
      <trkpt lat="46.27239" lon="6.46603">
        <ele>1098.92</ele>
        <time>2019-02-03T08:48:11Z</time>
      </trkpt>
      <trkpt lat="46.27248" lon="6.466">
        <ele>1098.44</ele>
        <time>2019-02-03T08:48:22Z</time>
      </trkpt>
      <trkpt lat="46.27257" lon="6.466">
        <ele>1098.44</ele>
        <time>2019-02-03T08:48:34Z</time>
      </trkpt>
      <trkpt lat="46.27262" lon="6.466">
        <ele>1098.44</ele>
        <time>2019-02-03T08:48:41Z</time>
      </trkpt>
      <trkpt lat="46.27273" lon="6.466">
        <ele>1100.37</ele>
        <time>2019-02-03T08:48:54Z</time>
      </trkpt>
      <trkpt lat="46.27283" lon="6.466">
        <ele>1100.37</ele>
        <time>2019-02-03T08:49:07Z</time>
      </trkpt>
      <trkpt lat="46.27291" lon="6.46601">
        <ele>1100.37</ele>
        <time>2019-02-03T08:49:17Z</time>
      </trkpt>
      <trkpt lat="46.27295" lon="6.46602">
        <ele>1100.85</ele>
        <time>2019-02-03T08:49:22Z</time>
      </trkpt>
      <trkpt lat="46.27305" lon="6.46604">
        <ele>1101.33</ele>
        <time>2019-02-03T08:49:35Z</time>
      </trkpt>
      <trkpt lat="46.27307" lon="6.46605">
        <ele>1101.33</ele>
        <time>2019-02-03T08:49:37Z</time>
      </trkpt>
      <trkpt lat="46.27317" lon="6.46607">
        <ele>1101.33</ele>
        <time>2019-02-03T08:49:49Z</time>
      </trkpt>
      <trkpt lat="46.27323" lon="6.46609">
        <ele>1100.37</ele>
        <time>2019-02-03T08:49:59Z</time>
      </trkpt>
      <trkpt lat="46.27332" lon="6.46611">
        <ele>1102.77</ele>
        <time>2019-02-03T08:50:11Z</time>
      </trkpt>
      <trkpt lat="46.27342" lon="6.46614">
        <ele>1102.77</ele>
        <time>2019-02-03T08:50:23Z</time>
      </trkpt>
      <trkpt lat="46.27351" lon="6.46617">
        <ele>1102.77</ele>
        <time>2019-02-03T08:50:35Z</time>
      </trkpt>
      <trkpt lat="46.27354" lon="6.46617">
        <ele>1103.25</ele>
        <time>2019-02-03T08:50:39Z</time>
      </trkpt>
      <trkpt lat="46.27366" lon="6.46619">
        <ele>1103.73</ele>
        <time>2019-02-03T08:50:53Z</time>
      </trkpt>
      <trkpt lat="46.27376" lon="6.46621">
        <ele>1104.21</ele>
        <time>2019-02-03T08:51:05Z</time>
      </trkpt>
      <trkpt lat="46.27386" lon="6.46623">
        <ele>1104.69</ele>
        <time>2019-02-03T08:51:17Z</time>
      </trkpt>
      <trkpt lat="46.27389" lon="6.46624">
        <ele>1104.69</ele>
        <time>2019-02-03T08:51:21Z</time>
      </trkpt>
      <trkpt lat="46.27398" lon="6.46628">
        <ele>1104.21</ele>
        <time>2019-02-03T08:51:34Z</time>
      </trkpt>
      <trkpt lat="46.27408" lon="6.46631">
        <ele>1105.17</ele>
        <time>2019-02-03T08:51:46Z</time>
      </trkpt>
      <trkpt lat="46.27409" lon="6.46632">
        <ele>1105.65</ele>
        <time>2019-02-03T08:51:47Z</time>
      </trkpt>
      <trkpt lat="46.27412" lon="6.46633">
        <ele>1105.65</ele>
        <time>2019-02-03T08:51:51Z</time>
      </trkpt>
      <trkpt lat="46.27419" lon="6.46639">
        <ele>1106.61</ele>
        <time>2019-02-03T08:52:03Z</time>
      </trkpt>
      <trkpt lat="46.27426" lon="6.46642">
        <ele>1107.58</ele>
        <time>2019-02-03T08:52:12Z</time>
      </trkpt>
      <trkpt lat="46.27435" lon="6.46648">
        <ele>1107.58</ele>
        <time>2019-02-03T08:52:24Z</time>
      </trkpt>
      <trkpt lat="46.27443" lon="6.46653">
        <ele>1108.06</ele>
        <time>2019-02-03T08:52:35Z</time>
      </trkpt>
      <trkpt lat="46.27451" lon="6.46658">
        <ele>1108.06</ele>
        <time>2019-02-03T08:52:47Z</time>
      </trkpt>
      <trkpt lat="46.27458" lon="6.46664">
        <ele>1109.02</ele>
        <time>2019-02-03T08:52:58Z</time>
      </trkpt>
      <trkpt lat="46.27463" lon="6.46675">
        <ele>1109.02</ele>
        <time>2019-02-03T08:53:10Z</time>
      </trkpt>
      <trkpt lat="46.27468" lon="6.46681">
        <ele>1109.98</ele>
        <time>2019-02-03T08:53:21Z</time>
      </trkpt>
      <trkpt lat="46.27474" lon="6.46685">
        <ele>1110.46</ele>
        <time>2019-02-03T08:53:33Z</time>
      </trkpt>
      <trkpt lat="46.27479" lon="6.4669">
        <ele>1110.94</ele>
        <time>2019-02-03T08:53:44Z</time>
      </trkpt>
      <trkpt lat="46.27482" lon="6.46691">
        <ele>1111.9</ele>
        <time>2019-02-03T08:53:55Z</time>
      </trkpt>
      <trkpt lat="46.27487" lon="6.46692">
        <ele>1112.38</ele>
        <time>2019-02-03T08:54:06Z</time>
      </trkpt>
      <trkpt lat="46.2749" lon="6.46694">
        <ele>1113.34</ele>
        <time>2019-02-03T08:54:16Z</time>
      </trkpt>
      <trkpt lat="46.27493" lon="6.46695">
        <ele>1114.31</ele>
        <time>2019-02-03T08:54:27Z</time>
      </trkpt>
      <trkpt lat="46.27496" lon="6.46695">
        <ele>1112.86</ele>
        <time>2019-02-03T08:54:43Z</time>
      </trkpt>
      <trkpt lat="46.27496" lon="6.46696">
        <ele>1115.27</ele>
        <time>2019-02-03T08:54:52Z</time>
      </trkpt>
      <trkpt lat="46.27497" lon="6.46695">
        <ele>1112.38</ele>
        <time>2019-02-03T08:55:07Z</time>
      </trkpt>
      <trkpt lat="46.27501" lon="6.46697">
        <ele>1114.31</ele>
        <time>2019-02-03T08:55:25Z</time>
      </trkpt>
      <trkpt lat="46.27504" lon="6.467">
        <ele>1113.82</ele>
        <time>2019-02-03T08:55:38Z</time>
      </trkpt>
      <trkpt lat="46.27504" lon="6.46704">
        <ele>1116.23</ele>
        <time>2019-02-03T08:55:42Z</time>
      </trkpt>
      <trkpt lat="46.27509" lon="6.46715">
        <ele>1115.27</ele>
        <time>2019-02-03T08:55:54Z</time>
      </trkpt>
      <trkpt lat="46.2751" lon="6.46716">
        <ele>1115.27</ele>
        <time>2019-02-03T08:55:55Z</time>
      </trkpt>
      <trkpt lat="46.27515" lon="6.46726">
        <ele>1115.75</ele>
        <time>2019-02-03T08:56:07Z</time>
      </trkpt>
      <trkpt lat="46.27523" lon="6.4673">
        <ele>1117.19</ele>
        <time>2019-02-03T08:56:20Z</time>
      </trkpt>
      <trkpt lat="46.27531" lon="6.46733">
        <ele>1118.15</ele>
        <time>2019-02-03T08:56:31Z</time>
      </trkpt>
      <trkpt lat="46.27534" lon="6.46734">
        <ele>1116.71</ele>
        <time>2019-02-03T08:56:36Z</time>
      </trkpt>
      <trkpt lat="46.27537" lon="6.46735">
        <ele>1118.15</ele>
        <time>2019-02-03T08:56:40Z</time>
      </trkpt>
      <trkpt lat="46.27541" lon="6.46738">
        <ele>1119.59</ele>
        <time>2019-02-03T08:56:48Z</time>
      </trkpt>
      <trkpt lat="46.27541" lon="6.46738">
        <ele>1119.59</ele>
        <time>2019-02-03T08:56:49Z</time>
      </trkpt>
      <trkpt lat="46.27544" lon="6.46741">
        <ele>1119.11</ele>
        <time>2019-02-03T08:56:58Z</time>
      </trkpt>
      <trkpt lat="46.27545" lon="6.46748">
        <ele>1120.07</ele>
        <time>2019-02-03T08:57:07Z</time>
      </trkpt>
      <trkpt lat="46.27546" lon="6.4676">
        <ele>1120.55</ele>
        <time>2019-02-03T08:57:21Z</time>
      </trkpt>
      <trkpt lat="46.2755" lon="6.46769">
        <ele>1121.03</ele>
        <time>2019-02-03T08:57:34Z</time>
      </trkpt>
      <trkpt lat="46.27552" lon="6.46772">
        <ele>1122.48</ele>
        <time>2019-02-03T08:57:50Z</time>
      </trkpt>
      <trkpt lat="46.27551" lon="6.46773">
        <ele>1121.52</ele>
        <time>2019-02-03T08:58:55Z</time>
      </trkpt>
      <trkpt lat="46.27551" lon="6.46773">
        <ele>1120.55</ele>
        <time>2019-02-03T09:00:06Z</time>
      </trkpt>
      <trkpt lat="46.27552" lon="6.46775">
        <ele>1120.07</ele>
        <time>2019-02-03T09:01:35Z</time>
      </trkpt>
      <trkpt lat="46.27553" lon="6.46779">
        <ele>1120.07</ele>
        <time>2019-02-03T09:01:57Z</time>
      </trkpt>
      <trkpt lat="46.27554" lon="6.46783">
        <ele>1120.55</ele>
        <time>2019-02-03T09:02:16Z</time>
      </trkpt>
      <trkpt lat="46.27556" lon="6.4679">
        <ele>1121.52</ele>
        <time>2019-02-03T09:02:31Z</time>
      </trkpt>
      <trkpt lat="46.27557" lon="6.46799">
        <ele>1122.96</ele>
        <time>2019-02-03T09:02:46Z</time>
      </trkpt>
      <trkpt lat="46.27554" lon="6.4681">
        <ele>1124.4</ele>
        <time>2019-02-03T09:02:59Z</time>
      </trkpt>
      <trkpt lat="46.2755" lon="6.46815">
        <ele>1125.84</ele>
        <time>2019-02-03T09:03:20Z</time>
      </trkpt>
      <trkpt lat="46.27541" lon="6.46828">
        <ele>1127.76</ele>
        <time>2019-02-03T09:03:31Z</time>
      </trkpt>
      <trkpt lat="46.27531" lon="6.46837">
        <ele>1128.24</ele>
        <time>2019-02-03T09:03:43Z</time>
      </trkpt>
      <trkpt lat="46.27525" lon="6.46842">
        <ele>1129.21</ele>
        <time>2019-02-03T09:03:56Z</time>
      </trkpt>
      <trkpt lat="46.27519" lon="6.46846">
        <ele>1131.61</ele>
        <time>2019-02-03T09:04:12Z</time>
      </trkpt>
      <trkpt lat="46.27515" lon="6.46849">
        <ele>1132.57</ele>
        <time>2019-02-03T09:04:25Z</time>
      </trkpt>
      <trkpt lat="46.27511" lon="6.46853">
        <ele>1134.49</ele>
        <time>2019-02-03T09:04:39Z</time>
      </trkpt>
      <trkpt lat="46.27504" lon="6.4686">
        <ele>1134.97</ele>
        <time>2019-02-03T09:04:55Z</time>
      </trkpt>
      <trkpt lat="46.27497" lon="6.46867">
        <ele>1136.9</ele>
        <time>2019-02-03T09:05:09Z</time>
      </trkpt>
      <trkpt lat="46.27494" lon="6.4687">
        <ele>1137.38</ele>
        <time>2019-02-03T09:05:24Z</time>
      </trkpt>
      <trkpt lat="46.27489" lon="6.46872">
        <ele>1139.78</ele>
        <time>2019-02-03T09:05:39Z</time>
      </trkpt>
      <trkpt lat="46.27484" lon="6.46877">
        <ele>1141.22</ele>
        <time>2019-02-03T09:05:56Z</time>
      </trkpt>
      <trkpt lat="46.27474" lon="6.46884">
        <ele>1142.18</ele>
        <time>2019-02-03T09:06:19Z</time>
      </trkpt>
      <trkpt lat="46.27468" lon="6.46892">
        <ele>1144.11</ele>
        <time>2019-02-03T09:06:32Z</time>
      </trkpt>
      <trkpt lat="46.27463" lon="6.46901">
        <ele>1146.03</ele>
        <time>2019-02-03T09:06:48Z</time>
      </trkpt>
      <trkpt lat="46.27459" lon="6.46908">
        <ele>1147.47</ele>
        <time>2019-02-03T09:07:03Z</time>
      </trkpt>
      <trkpt lat="46.27454" lon="6.46914">
        <ele>1149.39</ele>
        <time>2019-02-03T09:07:16Z</time>
      </trkpt>
      <trkpt lat="46.27452" lon="6.46917">
        <ele>1150.35</ele>
        <time>2019-02-03T09:07:29Z</time>
      </trkpt>
      <trkpt lat="46.27448" lon="6.46921">
        <ele>1152.28</ele>
        <time>2019-02-03T09:07:47Z</time>
      </trkpt>
      <trkpt lat="46.27442" lon="6.46927">
        <ele>1153.72</ele>
        <time>2019-02-03T09:07:58Z</time>
      </trkpt>
      <trkpt lat="46.27437" lon="6.46932">
        <ele>1154.68</ele>
        <time>2019-02-03T09:08:16Z</time>
      </trkpt>
      <trkpt lat="46.27435" lon="6.46937">
        <ele>1156.6</ele>
        <time>2019-02-03T09:08:31Z</time>
      </trkpt>
      <trkpt lat="46.27431" lon="6.46945">
        <ele>1158.05</ele>
        <time>2019-02-03T09:08:48Z</time>
      </trkpt>
      <trkpt lat="46.27429" lon="6.46947">
        <ele>1159.01</ele>
        <time>2019-02-03T09:09:30Z</time>
      </trkpt>
      <trkpt lat="46.27429" lon="6.46947">
        <ele>1158.53</ele>
        <time>2019-02-03T09:10:34Z</time>
      </trkpt>
      <trkpt lat="46.27428" lon="6.46947">
        <ele>1159.01</ele>
        <time>2019-02-03T09:11:00Z</time>
      </trkpt>
      <trkpt lat="46.27423" lon="6.46955">
        <ele>1160.45</ele>
        <time>2019-02-03T09:13:02Z</time>
      </trkpt>
      <trkpt lat="46.27418" lon="6.4696">
        <ele>1161.89</ele>
        <time>2019-02-03T09:13:14Z</time>
      </trkpt>
      <trkpt lat="46.27415" lon="6.46965">
        <ele>1163.33</ele>
        <time>2019-02-03T09:13:29Z</time>
      </trkpt>
      <trkpt lat="46.2741" lon="6.46971">
        <ele>1165.26</ele>
        <time>2019-02-03T09:13:45Z</time>
      </trkpt>
      <trkpt lat="46.27399" lon="6.4698">
        <ele>1165.26</ele>
        <time>2019-02-03T09:14:00Z</time>
      </trkpt>
      <trkpt lat="46.27394" lon="6.46986">
        <ele>1166.22</ele>
        <time>2019-02-03T09:14:12Z</time>
      </trkpt>
      <trkpt lat="46.27393" lon="6.4699">
        <ele>1167.66</ele>
        <time>2019-02-03T09:14:23Z</time>
      </trkpt>
      <trkpt lat="46.2739" lon="6.46997">
        <ele>1169.1</ele>
        <time>2019-02-03T09:14:35Z</time>
      </trkpt>
      <trkpt lat="46.27386" lon="6.47001">
        <ele>1170.06</ele>
        <time>2019-02-03T09:14:46Z</time>
      </trkpt>
      <trkpt lat="46.2738" lon="6.47007">
        <ele>1171.5</ele>
        <time>2019-02-03T09:14:59Z</time>
      </trkpt>
      <trkpt lat="46.27378" lon="6.4701">
        <ele>1172.47</ele>
        <time>2019-02-03T09:15:12Z</time>
      </trkpt>
      <trkpt lat="46.27374" lon="6.47013">
        <ele>1174.39</ele>
        <time>2019-02-03T09:15:27Z</time>
      </trkpt>
      <trkpt lat="46.27365" lon="6.47017">
        <ele>1175.35</ele>
        <time>2019-02-03T09:15:40Z</time>
      </trkpt>
      <trkpt lat="46.27358" lon="6.47021">
        <ele>1176.79</ele>
        <time>2019-02-03T09:15:50Z</time>
      </trkpt>
      <trkpt lat="46.27352" lon="6.47024">
        <ele>1176.31</ele>
        <time>2019-02-03T09:16:01Z</time>
      </trkpt>
      <trkpt lat="46.27345" lon="6.47027">
        <ele>1177.75</ele>
        <time>2019-02-03T09:16:14Z</time>
      </trkpt>
      <trkpt lat="46.2734" lon="6.47029">
        <ele>1178.71</ele>
        <time>2019-02-03T09:16:26Z</time>
      </trkpt>
      <trkpt lat="46.27333" lon="6.47029">
        <ele>1181.12</ele>
        <time>2019-02-03T09:16:41Z</time>
      </trkpt>
      <trkpt lat="46.27325" lon="6.4703">
        <ele>1182.08</ele>
        <time>2019-02-03T09:16:53Z</time>
      </trkpt>
      <trkpt lat="46.27315" lon="6.47032">
        <ele>1184</ele>
        <time>2019-02-03T09:17:07Z</time>
      </trkpt>
      <trkpt lat="46.27312" lon="6.47032">
        <ele>1184.48</ele>
        <time>2019-02-03T09:17:20Z</time>
      </trkpt>
      <trkpt lat="46.27306" lon="6.47034">
        <ele>1185.44</ele>
        <time>2019-02-03T09:17:31Z</time>
      </trkpt>
      <trkpt lat="46.27299" lon="6.47034">
        <ele>1186.4</ele>
        <time>2019-02-03T09:17:43Z</time>
      </trkpt>
      <trkpt lat="46.27296" lon="6.47033">
        <ele>1188.33</ele>
        <time>2019-02-03T09:17:56Z</time>
      </trkpt>
      <trkpt lat="46.27289" lon="6.47036">
        <ele>1188.81</ele>
        <time>2019-02-03T09:18:08Z</time>
      </trkpt>
      <trkpt lat="46.27279" lon="6.4704">
        <ele>1189.77</ele>
        <time>2019-02-03T09:18:22Z</time>
      </trkpt>
      <trkpt lat="46.27275" lon="6.47041">
        <ele>1191.21</ele>
        <time>2019-02-03T09:18:37Z</time>
      </trkpt>
      <trkpt lat="46.27268" lon="6.47045">
        <ele>1192.17</ele>
        <time>2019-02-03T09:18:51Z</time>
      </trkpt>
      <trkpt lat="46.27259" lon="6.4705">
        <ele>1193.13</ele>
        <time>2019-02-03T09:19:03Z</time>
      </trkpt>
      <trkpt lat="46.27255" lon="6.47054">
        <ele>1194.09</ele>
        <time>2019-02-03T09:19:20Z</time>
      </trkpt>
      <trkpt lat="46.27251" lon="6.47059">
        <ele>1195.54</ele>
        <time>2019-02-03T09:19:32Z</time>
      </trkpt>
      <trkpt lat="46.27244" lon="6.47069">
        <ele>1196.98</ele>
        <time>2019-02-03T09:19:45Z</time>
      </trkpt>
      <trkpt lat="46.27241" lon="6.47073">
        <ele>1196.98</ele>
        <time>2019-02-03T09:19:58Z</time>
      </trkpt>
      <trkpt lat="46.27234" lon="6.47079">
        <ele>1198.42</ele>
        <time>2019-02-03T09:20:11Z</time>
      </trkpt>
      <trkpt lat="46.2723" lon="6.47083">
        <ele>1199.38</ele>
        <time>2019-02-03T09:20:27Z</time>
      </trkpt>
      <trkpt lat="46.27227" lon="6.47089">
        <ele>1200.82</ele>
        <time>2019-02-03T09:20:39Z</time>
      </trkpt>
      <trkpt lat="46.27221" lon="6.47093">
        <ele>1203.23</ele>
        <time>2019-02-03T09:20:50Z</time>
      </trkpt>
      <trkpt lat="46.27217" lon="6.47097">
        <ele>1203.71</ele>
        <time>2019-02-03T09:21:03Z</time>
      </trkpt>
      <trkpt lat="46.27212" lon="6.47103">
        <ele>1204.19</ele>
        <time>2019-02-03T09:21:14Z</time>
      </trkpt>
      <trkpt lat="46.27205" lon="6.4711">
        <ele>1205.15</ele>
        <time>2019-02-03T09:21:26Z</time>
      </trkpt>
      <trkpt lat="46.27198" lon="6.47116">
        <ele>1205.15</ele>
        <time>2019-02-03T09:21:42Z</time>
      </trkpt>
      <trkpt lat="46.27195" lon="6.47121">
        <ele>1206.11</ele>
        <time>2019-02-03T09:21:55Z</time>
      </trkpt>
      <trkpt lat="46.27192" lon="6.47125">
        <ele>1207.07</ele>
        <time>2019-02-03T09:22:05Z</time>
      </trkpt>
      <trkpt lat="46.27187" lon="6.47129">
        <ele>1208.51</ele>
        <time>2019-02-03T09:22:18Z</time>
      </trkpt>
      <trkpt lat="46.27182" lon="6.47132">
        <ele>1209</ele>
        <time>2019-02-03T09:22:32Z</time>
      </trkpt>
      <trkpt lat="46.27175" lon="6.47136">
        <ele>1210.92</ele>
        <time>2019-02-03T09:22:46Z</time>
      </trkpt>
      <trkpt lat="46.27171" lon="6.47139">
        <ele>1211.88</ele>
        <time>2019-02-03T09:22:59Z</time>
      </trkpt>
      <trkpt lat="46.27171" lon="6.4714">
        <ele>1211.88</ele>
        <time>2019-02-03T09:23:30Z</time>
      </trkpt>
      <trkpt lat="46.27171" lon="6.4714">
        <ele>1212.36</ele>
        <time>2019-02-03T09:24:05Z</time>
      </trkpt>
      <trkpt lat="46.27171" lon="6.4714">
        <ele>1211.88</ele>
        <time>2019-02-03T09:24:58Z</time>
      </trkpt>
      <trkpt lat="46.27171" lon="6.4714">
        <ele>1211.88</ele>
        <time>2019-02-03T09:25:40Z</time>
      </trkpt>
      <trkpt lat="46.27171" lon="6.4714">
        <ele>1211.88</ele>
        <time>2019-02-03T09:26:12Z</time>
      </trkpt>
      <trkpt lat="46.27171" lon="6.47141">
        <ele>1211.88</ele>
        <time>2019-02-03T09:26:40Z</time>
      </trkpt>
      <trkpt lat="46.27166" lon="6.47146">
        <ele>1212.36</ele>
        <time>2019-02-03T09:26:50Z</time>
      </trkpt>
      <trkpt lat="46.27166" lon="6.47153">
        <ele>1213.32</ele>
        <time>2019-02-03T09:27:03Z</time>
      </trkpt>
      <trkpt lat="46.27169" lon="6.47159">
        <ele>1214.28</ele>
        <time>2019-02-03T09:27:13Z</time>
      </trkpt>
      <trkpt lat="46.27174" lon="6.47163">
        <ele>1215.72</ele>
        <time>2019-02-03T09:27:26Z</time>
      </trkpt>
      <trkpt lat="46.2718" lon="6.47164">
        <ele>1217.17</ele>
        <time>2019-02-03T09:27:39Z</time>
      </trkpt>
      <trkpt lat="46.27187" lon="6.47165">
        <ele>1218.13</ele>
        <time>2019-02-03T09:27:51Z</time>
      </trkpt>
      <trkpt lat="46.27195" lon="6.47165">
        <ele>1218.61</ele>
        <time>2019-02-03T09:28:05Z</time>
      </trkpt>
      <trkpt lat="46.27201" lon="6.47167">
        <ele>1219.57</ele>
        <time>2019-02-03T09:28:16Z</time>
      </trkpt>
      <trkpt lat="46.27206" lon="6.4717">
        <ele>1220.53</ele>
        <time>2019-02-03T09:28:27Z</time>
      </trkpt>
      <trkpt lat="46.27214" lon="6.47175">
        <ele>1221.49</ele>
        <time>2019-02-03T09:28:44Z</time>
      </trkpt>
      <trkpt lat="46.27217" lon="6.47177">
        <ele>1222.45</ele>
        <time>2019-02-03T09:28:53Z</time>
      </trkpt>
      <trkpt lat="46.27221" lon="6.47178">
        <ele>1222.93</ele>
        <time>2019-02-03T09:29:04Z</time>
      </trkpt>
      <trkpt lat="46.27225" lon="6.47181">
        <ele>1223.9</ele>
        <time>2019-02-03T09:29:21Z</time>
      </trkpt>
      <trkpt lat="46.27232" lon="6.47183">
        <ele>1225.34</ele>
        <time>2019-02-03T09:29:33Z</time>
      </trkpt>
      <trkpt lat="46.27236" lon="6.47185">
        <ele>1227.26</ele>
        <time>2019-02-03T09:29:45Z</time>
      </trkpt>
      <trkpt lat="46.27242" lon="6.47188">
        <ele>1228.22</ele>
        <time>2019-02-03T09:29:59Z</time>
      </trkpt>
      <trkpt lat="46.27245" lon="6.47191">
        <ele>1229.66</ele>
        <time>2019-02-03T09:30:07Z</time>
      </trkpt>
      <trkpt lat="46.2725" lon="6.47192">
        <ele>1229.66</ele>
        <time>2019-02-03T09:30:19Z</time>
      </trkpt>
      <trkpt lat="46.27253" lon="6.47191">
        <ele>1232.07</ele>
        <time>2019-02-03T09:30:32Z</time>
      </trkpt>
      <trkpt lat="46.27258" lon="6.47189">
        <ele>1233.99</ele>
        <time>2019-02-03T09:30:49Z</time>
      </trkpt>
      <trkpt lat="46.27262" lon="6.47192">
        <ele>1234.95</ele>
        <time>2019-02-03T09:31:04Z</time>
      </trkpt>
      <trkpt lat="46.27268" lon="6.47193">
        <ele>1235.43</ele>
        <time>2019-02-03T09:31:15Z</time>
      </trkpt>
      <trkpt lat="46.27272" lon="6.47196">
        <ele>1236.87</ele>
        <time>2019-02-03T09:31:25Z</time>
      </trkpt>
      <trkpt lat="46.27279" lon="6.47199">
        <ele>1237.83</ele>
        <time>2019-02-03T09:31:36Z</time>
      </trkpt>
      <trkpt lat="46.27282" lon="6.472">
        <ele>1238.8</ele>
        <time>2019-02-03T09:31:50Z</time>
      </trkpt>
      <trkpt lat="46.27286" lon="6.47202">
        <ele>1238.32</ele>
        <time>2019-02-03T09:32:13Z</time>
      </trkpt>
      <trkpt lat="46.27288" lon="6.47202">
        <ele>1239.76</ele>
        <time>2019-02-03T09:32:32Z</time>
      </trkpt>
      <trkpt lat="46.27292" lon="6.47201">
        <ele>1240.72</ele>
        <time>2019-02-03T09:33:03Z</time>
      </trkpt>
      <trkpt lat="46.27299" lon="6.47201">
        <ele>1241.68</ele>
        <time>2019-02-03T09:33:15Z</time>
      </trkpt>
      <trkpt lat="46.27307" lon="6.47203">
        <ele>1242.16</ele>
        <time>2019-02-03T09:33:24Z</time>
      </trkpt>
      <trkpt lat="46.27313" lon="6.47205">
        <ele>1242.64</ele>
        <time>2019-02-03T09:33:33Z</time>
      </trkpt>
      <trkpt lat="46.27319" lon="6.47208">
        <ele>1243.6</ele>
        <time>2019-02-03T09:33:44Z</time>
      </trkpt>
      <trkpt lat="46.27321" lon="6.47211">
        <ele>1245.04</ele>
        <time>2019-02-03T09:33:58Z</time>
      </trkpt>
      <trkpt lat="46.27327" lon="6.47214">
        <ele>1246.01</ele>
        <time>2019-02-03T09:34:09Z</time>
      </trkpt>
      <trkpt lat="46.27332" lon="6.47216">
        <ele>1246.97</ele>
        <time>2019-02-03T09:34:23Z</time>
      </trkpt>
      <trkpt lat="46.27335" lon="6.47218">
        <ele>1247.93</ele>
        <time>2019-02-03T09:34:36Z</time>
      </trkpt>
      <trkpt lat="46.27346" lon="6.47222">
        <ele>1249.37</ele>
        <time>2019-02-03T09:34:48Z</time>
      </trkpt>
      <trkpt lat="46.2735" lon="6.47222">
        <ele>1249.85</ele>
        <time>2019-02-03T09:35:01Z</time>
      </trkpt>
      <trkpt lat="46.27353" lon="6.47222">
        <ele>1251.29</ele>
        <time>2019-02-03T09:35:14Z</time>
      </trkpt>
      <trkpt lat="46.27359" lon="6.47221">
        <ele>1251.77</ele>
        <time>2019-02-03T09:35:27Z</time>
      </trkpt>
      <trkpt lat="46.27361" lon="6.4722">
        <ele>1252.74</ele>
        <time>2019-02-03T09:35:38Z</time>
      </trkpt>
      <trkpt lat="46.27369" lon="6.4722">
        <ele>1253.22</ele>
        <time>2019-02-03T09:35:47Z</time>
      </trkpt>
      <trkpt lat="46.27376" lon="6.4722">
        <ele>1254.66</ele>
        <time>2019-02-03T09:35:58Z</time>
      </trkpt>
      <trkpt lat="46.27381" lon="6.47222">
        <ele>1255.14</ele>
        <time>2019-02-03T09:36:08Z</time>
      </trkpt>
      <trkpt lat="46.27388" lon="6.47226">
        <ele>1256.58</ele>
        <time>2019-02-03T09:36:24Z</time>
      </trkpt>
      <trkpt lat="46.27394" lon="6.47231">
        <ele>1257.06</ele>
        <time>2019-02-03T09:36:35Z</time>
      </trkpt>
      <trkpt lat="46.27397" lon="6.47235">
        <ele>1258.5</ele>
        <time>2019-02-03T09:36:50Z</time>
      </trkpt>
      <trkpt lat="46.27398" lon="6.47241">
        <ele>1258.98</ele>
        <time>2019-02-03T09:37:06Z</time>
      </trkpt>
      <trkpt lat="46.27394" lon="6.47248">
        <ele>1259.94</ele>
        <time>2019-02-03T09:37:24Z</time>
      </trkpt>
      <trkpt lat="46.2739" lon="6.47256">
        <ele>1261.39</ele>
        <time>2019-02-03T09:37:37Z</time>
      </trkpt>
      <trkpt lat="46.27388" lon="6.47261">
        <ele>1262.83</ele>
        <time>2019-02-03T09:37:49Z</time>
      </trkpt>
      <trkpt lat="46.27387" lon="6.47263">
        <ele>1263.79</ele>
        <time>2019-02-03T09:37:58Z</time>
      </trkpt>
      <trkpt lat="46.27388" lon="6.47258">
        <ele>1261.39</ele>
        <time>2019-02-03T09:38:16Z</time>
      </trkpt>
      <trkpt lat="46.27391" lon="6.47254">
        <ele>1260.43</ele>
        <time>2019-02-03T09:38:22Z</time>
      </trkpt>
      <trkpt lat="46.27392" lon="6.47251">
        <ele>1259.94</ele>
        <time>2019-02-03T09:38:37Z</time>
      </trkpt>
      <trkpt lat="46.27392" lon="6.47251">
        <ele>1259.46</ele>
        <time>2019-02-03T09:38:54Z</time>
      </trkpt>
      <trkpt lat="46.27391" lon="6.4725">
        <ele>1258.98</ele>
        <time>2019-02-03T09:39:05Z</time>
      </trkpt>
      <trkpt lat="46.27391" lon="6.4725">
        <ele>1259.94</ele>
        <time>2019-02-03T09:40:09Z</time>
      </trkpt>
      <trkpt lat="46.27391" lon="6.47249">
        <ele>1259.94</ele>
        <time>2019-02-03T09:40:21Z</time>
      </trkpt>
      <trkpt lat="46.27394" lon="6.47246">
        <ele>1258.98</ele>
        <time>2019-02-03T09:40:45Z</time>
      </trkpt>
      <trkpt lat="46.27395" lon="6.47243">
        <ele>1258.5</ele>
        <time>2019-02-03T09:41:08Z</time>
      </trkpt>
      <trkpt lat="46.27396" lon="6.47238">
        <ele>1258.02</ele>
        <time>2019-02-03T09:41:25Z</time>
      </trkpt>
      <trkpt lat="46.27397" lon="6.47237">
        <ele>1257.54</ele>
        <time>2019-02-03T09:42:07Z</time>
      </trkpt>
      <trkpt lat="46.27397" lon="6.47237">
        <ele>1257.54</ele>
        <time>2019-02-03T09:42:53Z</time>
      </trkpt>
      <trkpt lat="46.27398" lon="6.47238">
        <ele>1257.54</ele>
        <time>2019-02-03T09:44:18Z</time>
      </trkpt>
      <trkpt lat="46.27398" lon="6.47238">
        <ele>1256.58</ele>
        <time>2019-02-03T09:45:04Z</time>
      </trkpt>
      <trkpt lat="46.27398" lon="6.47238">
        <ele>1256.58</ele>
        <time>2019-02-03T09:45:36Z</time>
      </trkpt>
      <trkpt lat="46.27398" lon="6.47238">
        <ele>1256.58</ele>
        <time>2019-02-03T09:46:02Z</time>
      </trkpt>
      <trkpt lat="46.27401" lon="6.47243">
        <ele>1256.58</ele>
        <time>2019-02-03T09:47:14Z</time>
      </trkpt>
      <trkpt lat="46.27406" lon="6.47245">
        <ele>1257.54</ele>
        <time>2019-02-03T09:47:23Z</time>
      </trkpt>
      <trkpt lat="46.27411" lon="6.47249">
        <ele>1258.02</ele>
        <time>2019-02-03T09:47:39Z</time>
      </trkpt>
      <trkpt lat="46.27415" lon="6.4725">
        <ele>1258.5</ele>
        <time>2019-02-03T09:47:51Z</time>
      </trkpt>
      <trkpt lat="46.27421" lon="6.47252">
        <ele>1258.98</ele>
        <time>2019-02-03T09:48:08Z</time>
      </trkpt>
      <trkpt lat="46.27428" lon="6.47253">
        <ele>1259.94</ele>
        <time>2019-02-03T09:48:22Z</time>
      </trkpt>
      <trkpt lat="46.27431" lon="6.47256">
        <ele>1260.91</ele>
        <time>2019-02-03T09:48:35Z</time>
      </trkpt>
      <trkpt lat="46.27436" lon="6.47257">
        <ele>1260.91</ele>
        <time>2019-02-03T09:48:46Z</time>
      </trkpt>
      <trkpt lat="46.27441" lon="6.47259">
        <ele>1262.35</ele>
        <time>2019-02-03T09:49:01Z</time>
      </trkpt>
      <trkpt lat="46.27448" lon="6.47263">
        <ele>1263.79</ele>
        <time>2019-02-03T09:49:13Z</time>
      </trkpt>
      <trkpt lat="46.27452" lon="6.47266">
        <ele>1263.79</ele>
        <time>2019-02-03T09:49:27Z</time>
      </trkpt>
      <trkpt lat="46.27456" lon="6.47267">
        <ele>1265.23</ele>
        <time>2019-02-03T09:49:39Z</time>
      </trkpt>
      <trkpt lat="46.27461" lon="6.47268">
        <ele>1264.75</ele>
        <time>2019-02-03T09:49:48Z</time>
      </trkpt>
      <trkpt lat="46.27467" lon="6.47269">
        <ele>1266.19</ele>
        <time>2019-02-03T09:49:59Z</time>
      </trkpt>
      <trkpt lat="46.27469" lon="6.4727">
        <ele>1267.16</ele>
        <time>2019-02-03T09:50:14Z</time>
      </trkpt>
      <trkpt lat="46.27473" lon="6.47272">
        <ele>1267.64</ele>
        <time>2019-02-03T09:50:35Z</time>
      </trkpt>
      <trkpt lat="46.27475" lon="6.47274">
        <ele>1268.12</ele>
        <time>2019-02-03T09:50:44Z</time>
      </trkpt>
      <trkpt lat="46.27477" lon="6.47277">
        <ele>1269.08</ele>
        <time>2019-02-03T09:50:56Z</time>
      </trkpt>
      <trkpt lat="46.27481" lon="6.4728">
        <ele>1269.08</ele>
        <time>2019-02-03T09:51:04Z</time>
      </trkpt>
      <trkpt lat="46.27481" lon="6.4728">
        <ele>1271.48</ele>
        <time>2019-02-03T09:51:27Z</time>
      </trkpt>
      <trkpt lat="46.27488" lon="6.47286">
        <ele>1271.48</ele>
        <time>2019-02-03T09:51:39Z</time>
      </trkpt>
      <trkpt lat="46.27492" lon="6.47289">
        <ele>1272.44</ele>
        <time>2019-02-03T09:51:47Z</time>
      </trkpt>
      <trkpt lat="46.27495" lon="6.47292">
        <ele>1273.4</ele>
        <time>2019-02-03T09:52:00Z</time>
      </trkpt>
      <trkpt lat="46.27497" lon="6.47295">
        <ele>1273.4</ele>
        <time>2019-02-03T09:52:05Z</time>
      </trkpt>
      <trkpt lat="46.275" lon="6.47302">
        <ele>1274.85</ele>
        <time>2019-02-03T09:52:14Z</time>
      </trkpt>
      <trkpt lat="46.27501" lon="6.47304">
        <ele>1275.33</ele>
        <time>2019-02-03T09:52:24Z</time>
      </trkpt>
      <trkpt lat="46.27504" lon="6.4731">
        <ele>1276.77</ele>
        <time>2019-02-03T09:52:47Z</time>
      </trkpt>
      <trkpt lat="46.27506" lon="6.47315">
        <ele>1278.21</ele>
        <time>2019-02-03T09:52:56Z</time>
      </trkpt>
      <trkpt lat="46.27506" lon="6.47315">
        <ele>1278.21</ele>
        <time>2019-02-03T09:52:57Z</time>
      </trkpt>
      <trkpt lat="46.27507" lon="6.47321">
        <ele>1278.69</ele>
        <time>2019-02-03T09:53:07Z</time>
      </trkpt>
      <trkpt lat="46.27509" lon="6.47325">
        <ele>1279.65</ele>
        <time>2019-02-03T09:53:18Z</time>
      </trkpt>
      <trkpt lat="46.27512" lon="6.47329">
        <ele>1280.61</ele>
        <time>2019-02-03T09:53:31Z</time>
      </trkpt>
      <trkpt lat="46.27514" lon="6.47333">
        <ele>1282.06</ele>
        <time>2019-02-03T09:53:40Z</time>
      </trkpt>
      <trkpt lat="46.27517" lon="6.47339">
        <ele>1282.06</ele>
        <time>2019-02-03T09:53:49Z</time>
      </trkpt>
      <trkpt lat="46.27517" lon="6.47343">
        <ele>1283.5</ele>
        <time>2019-02-03T09:54:02Z</time>
      </trkpt>
      <trkpt lat="46.27522" lon="6.47349">
        <ele>1284.46</ele>
        <time>2019-02-03T09:54:13Z</time>
      </trkpt>
      <trkpt lat="46.27525" lon="6.47356">
        <ele>1284.94</ele>
        <time>2019-02-03T09:54:26Z</time>
      </trkpt>
      <trkpt lat="46.27528" lon="6.47362">
        <ele>1285.42</ele>
        <time>2019-02-03T09:54:37Z</time>
      </trkpt>
      <trkpt lat="46.27531" lon="6.47367">
        <ele>1286.38</ele>
        <time>2019-02-03T09:54:50Z</time>
      </trkpt>
      <trkpt lat="46.27535" lon="6.47374">
        <ele>1286.86</ele>
        <time>2019-02-03T09:55:04Z</time>
      </trkpt>
      <trkpt lat="46.27537" lon="6.47379">
        <ele>1287.34</ele>
        <time>2019-02-03T09:55:18Z</time>
      </trkpt>
      <trkpt lat="46.2754" lon="6.47383">
        <ele>1288.3</ele>
        <time>2019-02-03T09:55:30Z</time>
      </trkpt>
      <trkpt lat="46.27542" lon="6.47387">
        <ele>1288.78</ele>
        <time>2019-02-03T09:55:49Z</time>
      </trkpt>
      <trkpt lat="46.27544" lon="6.47391">
        <ele>1289.27</ele>
        <time>2019-02-03T09:55:59Z</time>
      </trkpt>
      <trkpt lat="46.27545" lon="6.47395">
        <ele>1290.71</ele>
        <time>2019-02-03T09:56:12Z</time>
      </trkpt>
      <trkpt lat="46.27547" lon="6.47402">
        <ele>1291.67</ele>
        <time>2019-02-03T09:56:23Z</time>
      </trkpt>
      <trkpt lat="46.2755" lon="6.47406">
        <ele>1292.15</ele>
        <time>2019-02-03T09:56:31Z</time>
      </trkpt>
      <trkpt lat="46.27552" lon="6.47408">
        <ele>1293.11</ele>
        <time>2019-02-03T09:56:46Z</time>
      </trkpt>
      <trkpt lat="46.27555" lon="6.47414">
        <ele>1294.55</ele>
        <time>2019-02-03T09:57:02Z</time>
      </trkpt>
      <trkpt lat="46.27557" lon="6.47418">
        <ele>1295.51</ele>
        <time>2019-02-03T09:57:16Z</time>
      </trkpt>
      <trkpt lat="46.27563" lon="6.47426">
        <ele>1295.99</ele>
        <time>2019-02-03T09:57:40Z</time>
      </trkpt>
      <trkpt lat="46.27564" lon="6.47431">
        <ele>1297.92</ele>
        <time>2019-02-03T09:57:52Z</time>
      </trkpt>
      <trkpt lat="46.27565" lon="6.47438">
        <ele>1297.92</ele>
        <time>2019-02-03T09:58:04Z</time>
      </trkpt>
      <trkpt lat="46.27568" lon="6.47444">
        <ele>1298.88</ele>
        <time>2019-02-03T09:58:18Z</time>
      </trkpt>
      <trkpt lat="46.27568" lon="6.47449">
        <ele>1300.8</ele>
        <time>2019-02-03T09:58:47Z</time>
      </trkpt>
      <trkpt lat="46.2757" lon="6.47457">
        <ele>1302.72</ele>
        <time>2019-02-03T09:58:58Z</time>
      </trkpt>
      <trkpt lat="46.27572" lon="6.47464">
        <ele>1303.2</ele>
        <time>2019-02-03T09:59:09Z</time>
      </trkpt>
      <trkpt lat="46.27572" lon="6.47468">
        <ele>1303.2</ele>
        <time>2019-02-03T09:59:29Z</time>
      </trkpt>
      <trkpt lat="46.27574" lon="6.47476">
        <ele>1304.65</ele>
        <time>2019-02-03T10:00:11Z</time>
      </trkpt>
      <trkpt lat="46.27576" lon="6.47479">
        <ele>1304.65</ele>
        <time>2019-02-03T10:00:26Z</time>
      </trkpt>
      <trkpt lat="46.27575" lon="6.47479">
        <ele>1305.13</ele>
        <time>2019-02-03T10:01:32Z</time>
      </trkpt>
      <trkpt lat="46.27577" lon="6.47482">
        <ele>1305.13</ele>
        <time>2019-02-03T10:02:11Z</time>
      </trkpt>
      <trkpt lat="46.27576" lon="6.47487">
        <ele>1305.61</ele>
        <time>2019-02-03T10:02:21Z</time>
      </trkpt>
      <trkpt lat="46.27576" lon="6.47492">
        <ele>1307.05</ele>
        <time>2019-02-03T10:02:34Z</time>
      </trkpt>
      <trkpt lat="46.27579" lon="6.47502">
        <ele>1308.49</ele>
        <time>2019-02-03T10:02:47Z</time>
      </trkpt>
      <trkpt lat="46.27581" lon="6.47508">
        <ele>1310.9</ele>
        <time>2019-02-03T10:03:02Z</time>
      </trkpt>
      <trkpt lat="46.27583" lon="6.47512">
        <ele>1311.38</ele>
        <time>2019-02-03T10:03:14Z</time>
      </trkpt>
      <trkpt lat="46.27584" lon="6.47513">
        <ele>1311.86</ele>
        <time>2019-02-03T10:03:17Z</time>
      </trkpt>
      <trkpt lat="46.27584" lon="6.47517">
        <ele>1311.86</ele>
        <time>2019-02-03T10:03:27Z</time>
      </trkpt>
      <trkpt lat="46.27584" lon="6.47519">
        <ele>1312.34</ele>
        <time>2019-02-03T10:03:34Z</time>
      </trkpt>
      <trkpt lat="46.27588" lon="6.47526">
        <ele>1312.82</ele>
        <time>2019-02-03T10:03:45Z</time>
      </trkpt>
      <trkpt lat="46.2759" lon="6.47533">
        <ele>1314.74</ele>
        <time>2019-02-03T10:03:58Z</time>
      </trkpt>
      <trkpt lat="46.27593" lon="6.47543">
        <ele>1315.22</ele>
        <time>2019-02-03T10:04:09Z</time>
      </trkpt>
      <trkpt lat="46.27593" lon="6.47546">
        <ele>1315.7</ele>
        <time>2019-02-03T10:04:16Z</time>
      </trkpt>
      <trkpt lat="46.27596" lon="6.47558">
        <ele>1317.14</ele>
        <time>2019-02-03T10:04:29Z</time>
      </trkpt>
      <trkpt lat="46.27598" lon="6.47567">
        <ele>1317.62</ele>
        <time>2019-02-03T10:04:38Z</time>
      </trkpt>
      <trkpt lat="46.27598" lon="6.47573">
        <ele>1318.59</ele>
        <time>2019-02-03T10:04:46Z</time>
      </trkpt>
      <trkpt lat="46.27598" lon="6.47583">
        <ele>1319.07</ele>
        <time>2019-02-03T10:04:57Z</time>
      </trkpt>
      <trkpt lat="46.27598" lon="6.47591">
        <ele>1319.55</ele>
        <time>2019-02-03T10:05:06Z</time>
      </trkpt>
      <trkpt lat="46.27599" lon="6.47601">
        <ele>1320.51</ele>
        <time>2019-02-03T10:05:17Z</time>
      </trkpt>
      <trkpt lat="46.27601" lon="6.47616">
        <ele>1320.51</ele>
        <time>2019-02-03T10:05:29Z</time>
      </trkpt>
      <trkpt lat="46.276" lon="6.4762">
        <ele>1321.47</ele>
        <time>2019-02-03T10:05:42Z</time>
      </trkpt>
      <trkpt lat="46.27601" lon="6.47625">
        <ele>1320.99</ele>
        <time>2019-02-03T10:05:57Z</time>
      </trkpt>
      <trkpt lat="46.27603" lon="6.47632">
        <ele>1321.47</ele>
        <time>2019-02-03T10:06:10Z</time>
      </trkpt>
      <trkpt lat="46.27604" lon="6.47637">
        <ele>1322.91</ele>
        <time>2019-02-03T10:06:20Z</time>
      </trkpt>
      <trkpt lat="46.27606" lon="6.47639">
        <ele>1323.39</ele>
        <time>2019-02-03T10:06:32Z</time>
      </trkpt>
      <trkpt lat="46.27609" lon="6.47639">
        <ele>1323.39</ele>
        <time>2019-02-03T10:06:38Z</time>
      </trkpt>
      <trkpt lat="46.27613" lon="6.47643">
        <ele>1324.35</ele>
        <time>2019-02-03T10:06:51Z</time>
      </trkpt>
      <trkpt lat="46.27613" lon="6.47645">
        <ele>1325.31</ele>
        <time>2019-02-03T10:07:02Z</time>
      </trkpt>
      <trkpt lat="46.27615" lon="6.47647">
        <ele>1325.31</ele>
        <time>2019-02-03T10:07:20Z</time>
      </trkpt>
      <trkpt lat="46.2762" lon="6.47651">
        <ele>1326.28</ele>
        <time>2019-02-03T10:07:49Z</time>
      </trkpt>
      <trkpt lat="46.27624" lon="6.47654">
        <ele>1328.68</ele>
        <time>2019-02-03T10:08:07Z</time>
      </trkpt>
      <trkpt lat="46.27625" lon="6.47656">
        <ele>1329.64</ele>
        <time>2019-02-03T10:08:13Z</time>
      </trkpt>
      <trkpt lat="46.27626" lon="6.47658">
        <ele>1331.08</ele>
        <time>2019-02-03T10:08:20Z</time>
      </trkpt>
      <trkpt lat="46.2763" lon="6.47658">
        <ele>1330.12</ele>
        <time>2019-02-03T10:08:31Z</time>
      </trkpt>
      <trkpt lat="46.27638" lon="6.47657">
        <ele>1330.6</ele>
        <time>2019-02-03T10:08:43Z</time>
      </trkpt>
      <trkpt lat="46.27639" lon="6.47656">
        <ele>1330.6</ele>
        <time>2019-02-03T10:08:44Z</time>
      </trkpt>
      <trkpt lat="46.27648" lon="6.47653">
        <ele>1331.08</ele>
        <time>2019-02-03T10:08:58Z</time>
      </trkpt>
      <trkpt lat="46.27649" lon="6.47653">
        <ele>1331.08</ele>
        <time>2019-02-03T10:09:00Z</time>
      </trkpt>
      <trkpt lat="46.27657" lon="6.47652">
        <ele>1331.56</ele>
        <time>2019-02-03T10:09:12Z</time>
      </trkpt>
      <trkpt lat="46.27662" lon="6.47649">
        <ele>1331.56</ele>
        <time>2019-02-03T10:09:24Z</time>
      </trkpt>
      <trkpt lat="46.27665" lon="6.47646">
        <ele>1332.04</ele>
        <time>2019-02-03T10:09:37Z</time>
      </trkpt>
      <trkpt lat="46.27668" lon="6.47645">
        <ele>1333.01</ele>
        <time>2019-02-03T10:09:55Z</time>
      </trkpt>
      <trkpt lat="46.27669" lon="6.47644">
        <ele>1333.49</ele>
        <time>2019-02-03T10:09:57Z</time>
      </trkpt>
      <trkpt lat="46.27673" lon="6.47645">
        <ele>1333.49</ele>
        <time>2019-02-03T10:10:12Z</time>
      </trkpt>
      <trkpt lat="46.27675" lon="6.47646">
        <ele>1333.49</ele>
        <time>2019-02-03T10:10:23Z</time>
      </trkpt>
      <trkpt lat="46.27679" lon="6.47649">
        <ele>1333.49</ele>
        <time>2019-02-03T10:10:33Z</time>
      </trkpt>
      <trkpt lat="46.27684" lon="6.4765">
        <ele>1333.97</ele>
        <time>2019-02-03T10:10:47Z</time>
      </trkpt>
      <trkpt lat="46.27689" lon="6.47649">
        <ele>1333.97</ele>
        <time>2019-02-03T10:10:59Z</time>
      </trkpt>
      <trkpt lat="46.27698" lon="6.47649">
        <ele>1334.93</ele>
        <time>2019-02-03T10:11:12Z</time>
      </trkpt>
      <trkpt lat="46.27704" lon="6.47648">
        <ele>1335.89</ele>
        <time>2019-02-03T10:11:28Z</time>
      </trkpt>
      <trkpt lat="46.27705" lon="6.47647">
        <ele>1335.41</ele>
        <time>2019-02-03T10:11:34Z</time>
      </trkpt>
      <trkpt lat="46.27711" lon="6.47651">
        <ele>1335.89</ele>
        <time>2019-02-03T10:11:45Z</time>
      </trkpt>
      <trkpt lat="46.27714" lon="6.47655">
        <ele>1337.33</ele>
        <time>2019-02-03T10:11:58Z</time>
      </trkpt>
      <trkpt lat="46.27716" lon="6.47659">
        <ele>1337.81</ele>
        <time>2019-02-03T10:12:09Z</time>
      </trkpt>
      <trkpt lat="46.27718" lon="6.47663">
        <ele>1338.77</ele>
        <time>2019-02-03T10:12:25Z</time>
      </trkpt>
      <trkpt lat="46.27724" lon="6.47668">
        <ele>1339.73</ele>
        <time>2019-02-03T10:12:40Z</time>
      </trkpt>
      <trkpt lat="46.27726" lon="6.47672">
        <ele>1341.18</ele>
        <time>2019-02-03T10:12:52Z</time>
      </trkpt>
      <trkpt lat="46.2773" lon="6.47677">
        <ele>1341.66</ele>
        <time>2019-02-03T10:13:03Z</time>
      </trkpt>
      <trkpt lat="46.27732" lon="6.47681">
        <ele>1342.62</ele>
        <time>2019-02-03T10:13:18Z</time>
      </trkpt>
      <trkpt lat="46.27734" lon="6.47687">
        <ele>1343.1</ele>
        <time>2019-02-03T10:13:35Z</time>
      </trkpt>
      <trkpt lat="46.27737" lon="6.47689">
        <ele>1343.58</ele>
        <time>2019-02-03T10:13:50Z</time>
      </trkpt>
      <trkpt lat="46.27738" lon="6.47689">
        <ele>1343.1</ele>
        <time>2019-02-03T10:14:02Z</time>
      </trkpt>
      <trkpt lat="46.27738" lon="6.477">
        <ele>1345.5</ele>
        <time>2019-02-03T10:14:19Z</time>
      </trkpt>
      <trkpt lat="46.27738" lon="6.47708">
        <ele>1345.5</ele>
        <time>2019-02-03T10:14:34Z</time>
      </trkpt>
      <trkpt lat="46.27736" lon="6.47715">
        <ele>1346.46</ele>
        <time>2019-02-03T10:14:46Z</time>
      </trkpt>
      <trkpt lat="46.27737" lon="6.47715">
        <ele>1346.94</ele>
        <time>2019-02-03T10:15:23Z</time>
      </trkpt>
      <trkpt lat="46.27738" lon="6.47719">
        <ele>1347.91</ele>
        <time>2019-02-03T10:16:35Z</time>
      </trkpt>
      <trkpt lat="46.27737" lon="6.4772">
        <ele>1348.39</ele>
        <time>2019-02-03T10:16:55Z</time>
      </trkpt>
      <trkpt lat="46.27734" lon="6.47727">
        <ele>1348.39</ele>
        <time>2019-02-03T10:17:23Z</time>
      </trkpt>
      <trkpt lat="46.27731" lon="6.47732">
        <ele>1349.35</ele>
        <time>2019-02-03T10:17:34Z</time>
      </trkpt>
      <trkpt lat="46.27729" lon="6.47732">
        <ele>1351.27</ele>
        <time>2019-02-03T10:17:49Z</time>
      </trkpt>
      <trkpt lat="46.27726" lon="6.47738">
        <ele>1351.75</ele>
        <time>2019-02-03T10:17:58Z</time>
      </trkpt>
      <trkpt lat="46.27724" lon="6.47741">
        <ele>1352.71</ele>
        <time>2019-02-03T10:18:13Z</time>
      </trkpt>
      <trkpt lat="46.27723" lon="6.47742">
        <ele>1353.67</ele>
        <time>2019-02-03T10:18:28Z</time>
      </trkpt>
      <trkpt lat="46.27726" lon="6.47749">
        <ele>1354.15</ele>
        <time>2019-02-03T10:18:41Z</time>
      </trkpt>
      <trkpt lat="46.27726" lon="6.4775">
        <ele>1354.63</ele>
        <time>2019-02-03T10:18:55Z</time>
      </trkpt>
      <trkpt lat="46.27719" lon="6.47757">
        <ele>1355.6</ele>
        <time>2019-02-03T10:19:08Z</time>
      </trkpt>
      <trkpt lat="46.2772" lon="6.47758">
        <ele>1357.04</ele>
        <time>2019-02-03T10:19:19Z</time>
      </trkpt>
      <trkpt lat="46.27721" lon="6.47758">
        <ele>1357.52</ele>
        <time>2019-02-03T10:19:35Z</time>
      </trkpt>
      <trkpt lat="46.27722" lon="6.47765">
        <ele>1358.48</ele>
        <time>2019-02-03T10:19:53Z</time>
      </trkpt>
      <trkpt lat="46.27721" lon="6.47772">
        <ele>1358.48</ele>
        <time>2019-02-03T10:20:05Z</time>
      </trkpt>
      <trkpt lat="46.27723" lon="6.47777">
        <ele>1358.48</ele>
        <time>2019-02-03T10:20:17Z</time>
      </trkpt>
      <trkpt lat="46.27723" lon="6.47783">
        <ele>1357.52</ele>
        <time>2019-02-03T10:20:30Z</time>
      </trkpt>
      <trkpt lat="46.2772" lon="6.47786">
        <ele>1358.48</ele>
        <time>2019-02-03T10:21:07Z</time>
      </trkpt>
      <trkpt lat="46.2772" lon="6.47791">
        <ele>1357.52</ele>
        <time>2019-02-03T10:21:25Z</time>
      </trkpt>
      <trkpt lat="46.27719" lon="6.47793">
        <ele>1357.04</ele>
        <time>2019-02-03T10:21:39Z</time>
      </trkpt>
      <trkpt lat="46.27723" lon="6.47795">
        <ele>1357.04</ele>
        <time>2019-02-03T10:22:16Z</time>
      </trkpt>
      <trkpt lat="46.27722" lon="6.47796">
        <ele>1357.04</ele>
        <time>2019-02-03T10:22:33Z</time>
      </trkpt>
      <trkpt lat="46.27726" lon="6.47797">
        <ele>1357.52</ele>
        <time>2019-02-03T10:23:08Z</time>
      </trkpt>
      <trkpt lat="46.27729" lon="6.47801">
        <ele>1358</ele>
        <time>2019-02-03T10:23:37Z</time>
      </trkpt>
      <trkpt lat="46.27731" lon="6.47804">
        <ele>1359.44</ele>
        <time>2019-02-03T10:23:53Z</time>
      </trkpt>
      <trkpt lat="46.27729" lon="6.47809">
        <ele>1360.4</ele>
        <time>2019-02-03T10:24:13Z</time>
      </trkpt>
      <trkpt lat="46.27732" lon="6.47815">
        <ele>1361.36</ele>
        <time>2019-02-03T10:24:25Z</time>
      </trkpt>
      <trkpt lat="46.27735" lon="6.47819">
        <ele>1361.84</ele>
        <time>2019-02-03T10:24:32Z</time>
      </trkpt>
      <trkpt lat="46.27737" lon="6.47822">
        <ele>1362.33</ele>
        <time>2019-02-03T10:24:48Z</time>
      </trkpt>
      <trkpt lat="46.27736" lon="6.4783">
        <ele>1363.29</ele>
        <time>2019-02-03T10:25:01Z</time>
      </trkpt>
      <trkpt lat="46.27738" lon="6.47839">
        <ele>1363.77</ele>
        <time>2019-02-03T10:25:14Z</time>
      </trkpt>
      <trkpt lat="46.2774" lon="6.47843">
        <ele>1363.29</ele>
        <time>2019-02-03T10:25:33Z</time>
      </trkpt>
      <trkpt lat="46.27744" lon="6.47853">
        <ele>1363.29</ele>
        <time>2019-02-03T10:25:44Z</time>
      </trkpt>
      <trkpt lat="46.27743" lon="6.47858">
        <ele>1363.77</ele>
        <time>2019-02-03T10:26:05Z</time>
      </trkpt>
      <trkpt lat="46.27741" lon="6.47869">
        <ele>1363.77</ele>
        <time>2019-02-03T10:26:19Z</time>
      </trkpt>
      <trkpt lat="46.2774" lon="6.47879">
        <ele>1364.73</ele>
        <time>2019-02-03T10:26:29Z</time>
      </trkpt>
      <trkpt lat="46.27742" lon="6.47886">
        <ele>1364.73</ele>
        <time>2019-02-03T10:26:40Z</time>
      </trkpt>
      <trkpt lat="46.27741" lon="6.47889">
        <ele>1363.77</ele>
        <time>2019-02-03T10:26:45Z</time>
      </trkpt>
      <trkpt lat="46.27743" lon="6.47898">
        <ele>1365.69</ele>
        <time>2019-02-03T10:26:58Z</time>
      </trkpt>
      <trkpt lat="46.27742" lon="6.47902">
        <ele>1365.69</ele>
        <time>2019-02-03T10:27:11Z</time>
      </trkpt>
      <trkpt lat="46.27741" lon="6.47903">
        <ele>1365.69</ele>
        <time>2019-02-03T10:27:27Z</time>
      </trkpt>
      <trkpt lat="46.27741" lon="6.47904">
        <ele>1365.69</ele>
        <time>2019-02-03T10:27:32Z</time>
      </trkpt>
      <trkpt lat="46.27744" lon="6.47904">
        <ele>1366.17</ele>
        <time>2019-02-03T10:27:46Z</time>
      </trkpt>
      <trkpt lat="46.27744" lon="6.47905">
        <ele>1366.17</ele>
        <time>2019-02-03T10:28:53Z</time>
      </trkpt>
      <trkpt lat="46.27739" lon="6.47908">
        <ele>1366.17</ele>
        <time>2019-02-03T10:29:20Z</time>
      </trkpt>
      <trkpt lat="46.27739" lon="6.47909">
        <ele>1366.17</ele>
        <time>2019-02-03T10:30:13Z</time>
      </trkpt>
      <trkpt lat="46.27736" lon="6.47908">
        <ele>1367.13</ele>
        <time>2019-02-03T10:30:22Z</time>
      </trkpt>
      <trkpt lat="46.27736" lon="6.47905">
        <ele>1367.13</ele>
        <time>2019-02-03T10:30:25Z</time>
      </trkpt>
      <trkpt lat="46.27733" lon="6.47904">
        <ele>1367.61</ele>
        <time>2019-02-03T10:30:30Z</time>
      </trkpt>
      <trkpt lat="46.27731" lon="6.479">
        <ele>1368.57</ele>
        <time>2019-02-03T10:30:41Z</time>
      </trkpt>
      <trkpt lat="46.27726" lon="6.47897">
        <ele>1369.54</ele>
        <time>2019-02-03T10:30:55Z</time>
      </trkpt>
      <trkpt lat="46.27721" lon="6.47892">
        <ele>1370.98</ele>
        <time>2019-02-03T10:31:07Z</time>
      </trkpt>
      <trkpt lat="46.27721" lon="6.47883">
        <ele>1371.94</ele>
        <time>2019-02-03T10:31:20Z</time>
      </trkpt>
      <trkpt lat="46.27721" lon="6.47883">
        <ele>1372.42</ele>
        <time>2019-02-03T10:31:22Z</time>
      </trkpt>
      <trkpt lat="46.27721" lon="6.47876">
        <ele>1372.42</ele>
        <time>2019-02-03T10:31:33Z</time>
      </trkpt>
      <trkpt lat="46.2772" lon="6.47871">
        <ele>1372.42</ele>
        <time>2019-02-03T10:31:44Z</time>
      </trkpt>
      <trkpt lat="46.2772" lon="6.47868">
        <ele>1372.42</ele>
        <time>2019-02-03T10:32:01Z</time>
      </trkpt>
      <trkpt lat="46.27716" lon="6.47865">
        <ele>1373.38</ele>
        <time>2019-02-03T10:32:13Z</time>
      </trkpt>
      <trkpt lat="46.27716" lon="6.47868">
        <ele>1373.86</ele>
        <time>2019-02-03T10:32:25Z</time>
      </trkpt>
      <trkpt lat="46.27718" lon="6.47875">
        <ele>1374.34</ele>
        <time>2019-02-03T10:32:38Z</time>
      </trkpt>
      <trkpt lat="46.27717" lon="6.47876">
        <ele>1375.3</ele>
        <time>2019-02-03T10:32:59Z</time>
      </trkpt>
      <trkpt lat="46.27712" lon="6.47879">
        <ele>1375.3</ele>
        <time>2019-02-03T10:33:08Z</time>
      </trkpt>
      <trkpt lat="46.27713" lon="6.47882">
        <ele>1376.75</ele>
        <time>2019-02-03T10:33:13Z</time>
      </trkpt>
      <trkpt lat="46.27711" lon="6.47885">
        <ele>1377.23</ele>
        <time>2019-02-03T10:33:26Z</time>
      </trkpt>
      <trkpt lat="46.27706" lon="6.47883">
        <ele>1379.15</ele>
        <time>2019-02-03T10:33:47Z</time>
      </trkpt>
      <trkpt lat="46.27699" lon="6.47879">
        <ele>1379.63</ele>
        <time>2019-02-03T10:34:17Z</time>
      </trkpt>
      <trkpt lat="46.27698" lon="6.47878">
        <ele>1379.63</ele>
        <time>2019-02-03T10:34:38Z</time>
      </trkpt>
      <trkpt lat="46.27701" lon="6.47884">
        <ele>1380.11</ele>
        <time>2019-02-03T10:35:10Z</time>
      </trkpt>
      <trkpt lat="46.27704" lon="6.4789">
        <ele>1382.51</ele>
        <time>2019-02-03T10:35:22Z</time>
      </trkpt>
      <trkpt lat="46.27704" lon="6.47893">
        <ele>1382.03</ele>
        <time>2019-02-03T10:35:42Z</time>
      </trkpt>
      <trkpt lat="46.27701" lon="6.479">
        <ele>1382.99</ele>
        <time>2019-02-03T10:35:53Z</time>
      </trkpt>
      <trkpt lat="46.27701" lon="6.47909">
        <ele>1383.96</ele>
        <time>2019-02-03T10:36:06Z</time>
      </trkpt>
      <trkpt lat="46.27703" lon="6.47915">
        <ele>1384.92</ele>
        <time>2019-02-03T10:36:20Z</time>
      </trkpt>
      <trkpt lat="46.27701" lon="6.4792">
        <ele>1386.36</ele>
        <time>2019-02-03T10:36:38Z</time>
      </trkpt>
      <trkpt lat="46.27701" lon="6.4792">
        <ele>1387.32</ele>
        <time>2019-02-03T10:37:41Z</time>
      </trkpt>
      <trkpt lat="46.27704" lon="6.47929">
        <ele>1387.8</ele>
        <time>2019-02-03T10:38:01Z</time>
      </trkpt>
      <trkpt lat="46.27704" lon="6.47936">
        <ele>1388.28</ele>
        <time>2019-02-03T10:38:11Z</time>
      </trkpt>
      <trkpt lat="46.27703" lon="6.47936">
        <ele>1387.8</ele>
        <time>2019-02-03T10:38:12Z</time>
      </trkpt>
      <trkpt lat="46.27703" lon="6.47939">
        <ele>1387.8</ele>
        <time>2019-02-03T10:38:24Z</time>
      </trkpt>
      <trkpt lat="46.27703" lon="6.47939">
        <ele>1388.76</ele>
        <time>2019-02-03T10:38:32Z</time>
      </trkpt>
      <trkpt lat="46.27704" lon="6.47945">
        <ele>1388.28</ele>
        <time>2019-02-03T10:38:44Z</time>
      </trkpt>
      <trkpt lat="46.27705" lon="6.47948">
        <ele>1387.8</ele>
        <time>2019-02-03T10:39:17Z</time>
      </trkpt>
      <trkpt lat="46.27706" lon="6.47952">
        <ele>1388.76</ele>
        <time>2019-02-03T10:39:28Z</time>
      </trkpt>
      <trkpt lat="46.27705" lon="6.47953">
        <ele>1388.76</ele>
        <time>2019-02-03T10:39:59Z</time>
      </trkpt>
      <trkpt lat="46.27705" lon="6.47953">
        <ele>1389.72</ele>
        <time>2019-02-03T10:40:31Z</time>
      </trkpt>
      <trkpt lat="46.27705" lon="6.47956">
        <ele>1389.72</ele>
        <time>2019-02-03T10:41:17Z</time>
      </trkpt>
      <trkpt lat="46.27705" lon="6.47959">
        <ele>1389.72</ele>
        <time>2019-02-03T10:41:22Z</time>
      </trkpt>
      <trkpt lat="46.27707" lon="6.47968">
        <ele>1390.68</ele>
        <time>2019-02-03T10:41:34Z</time>
      </trkpt>
      <trkpt lat="46.27707" lon="6.47968">
        <ele>1390.68</ele>
        <time>2019-02-03T10:42:09Z</time>
      </trkpt>
      <trkpt lat="46.27706" lon="6.47975">
        <ele>1391.65</ele>
        <time>2019-02-03T10:43:16Z</time>
      </trkpt>
      <trkpt lat="46.27706" lon="6.47975">
        <ele>1391.65</ele>
        <time>2019-02-03T10:43:44Z</time>
      </trkpt>
      <trkpt lat="46.27708" lon="6.4798">
        <ele>1391.65</ele>
        <time>2019-02-03T10:43:56Z</time>
      </trkpt>
      <trkpt lat="46.27705" lon="6.47983">
        <ele>1392.61</ele>
        <time>2019-02-03T10:44:10Z</time>
      </trkpt>
      <trkpt lat="46.27702" lon="6.47983">
        <ele>1394.05</ele>
        <time>2019-02-03T10:44:24Z</time>
      </trkpt>
      <trkpt lat="46.27702" lon="6.47984">
        <ele>1396.45</ele>
        <time>2019-02-03T10:44:54Z</time>
      </trkpt>
      <trkpt lat="46.27701" lon="6.47987">
        <ele>1396.93</ele>
        <time>2019-02-03T10:45:06Z</time>
      </trkpt>
      <trkpt lat="46.27701" lon="6.47988">
        <ele>1397.89</ele>
        <time>2019-02-03T10:45:49Z</time>
      </trkpt>
      <trkpt lat="46.27701" lon="6.47989">
        <ele>1397.89</ele>
        <time>2019-02-03T10:46:06Z</time>
      </trkpt>
      <trkpt lat="46.27702" lon="6.47992">
        <ele>1398.86</ele>
        <time>2019-02-03T10:47:13Z</time>
      </trkpt>
      <trkpt lat="46.27702" lon="6.47992">
        <ele>1399.34</ele>
        <time>2019-02-03T10:47:18Z</time>
      </trkpt>
      <trkpt lat="46.27702" lon="6.47995">
        <ele>1397.89</ele>
        <time>2019-02-03T10:47:33Z</time>
      </trkpt>
      <trkpt lat="46.27702" lon="6.47997">
        <ele>1400.3</ele>
        <time>2019-02-03T10:48:07Z</time>
      </trkpt>
      <trkpt lat="46.27701" lon="6.48">
        <ele>1399.82</ele>
        <time>2019-02-03T10:48:51Z</time>
      </trkpt>
      <trkpt lat="46.27701" lon="6.48">
        <ele>1399.82</ele>
        <time>2019-02-03T10:49:54Z</time>
      </trkpt>
      <trkpt lat="46.27701" lon="6.48002">
        <ele>1399.34</ele>
        <time>2019-02-03T10:51:13Z</time>
      </trkpt>
      <trkpt lat="46.277" lon="6.48004">
        <ele>1400.78</ele>
        <time>2019-02-03T10:52:03Z</time>
      </trkpt>
      <trkpt lat="46.277" lon="6.48005">
        <ele>1399.82</ele>
        <time>2019-02-03T10:53:24Z</time>
      </trkpt>
      <trkpt lat="46.277" lon="6.48007">
        <ele>1401.26</ele>
        <time>2019-02-03T10:53:50Z</time>
      </trkpt>
      <trkpt lat="46.277" lon="6.48008">
        <ele>1400.3</ele>
        <time>2019-02-03T10:54:29Z</time>
      </trkpt>
      <trkpt lat="46.277" lon="6.48008">
        <ele>1401.26</ele>
        <time>2019-02-03T10:54:41Z</time>
      </trkpt>
      <trkpt lat="46.27699" lon="6.48009">
        <ele>1401.74</ele>
        <time>2019-02-03T10:54:52Z</time>
      </trkpt>
      <trkpt lat="46.27699" lon="6.48009">
        <ele>1402.7</ele>
        <time>2019-02-03T10:55:09Z</time>
      </trkpt>
      <trkpt lat="46.27698" lon="6.48009">
        <ele>1401.74</ele>
        <time>2019-02-03T10:55:35Z</time>
      </trkpt>
      <trkpt lat="46.27697" lon="6.48009">
        <ele>1402.22</ele>
        <time>2019-02-03T10:55:55Z</time>
      </trkpt>
      <trkpt lat="46.27697" lon="6.48009">
        <ele>1404.14</ele>
        <time>2019-02-03T10:56:24Z</time>
      </trkpt>
      <trkpt lat="46.27693" lon="6.48013">
        <ele>1405.1</ele>
        <time>2019-02-03T10:56:39Z</time>
      </trkpt>
      <trkpt lat="46.27689" lon="6.48014">
        <ele>1405.58</ele>
        <time>2019-02-03T10:56:51Z</time>
      </trkpt>
      <trkpt lat="46.27687" lon="6.4802">
        <ele>1407.03</ele>
        <time>2019-02-03T10:57:06Z</time>
      </trkpt>
      <trkpt lat="46.27686" lon="6.4802">
        <ele>1408.47</ele>
        <time>2019-02-03T10:57:21Z</time>
      </trkpt>
      <trkpt lat="46.27684" lon="6.48026">
        <ele>1409.43</ele>
        <time>2019-02-03T10:57:32Z</time>
      </trkpt>
      <trkpt lat="46.27684" lon="6.48032">
        <ele>1410.39</ele>
        <time>2019-02-03T10:57:44Z</time>
      </trkpt>
      <trkpt lat="46.27684" lon="6.48032">
        <ele>1411.35</ele>
        <time>2019-02-03T10:58:03Z</time>
      </trkpt>
      <trkpt lat="46.27684" lon="6.48032">
        <ele>1412.79</ele>
        <time>2019-02-03T10:58:16Z</time>
      </trkpt>
      <trkpt lat="46.27682" lon="6.4804">
        <ele>1413.76</ele>
        <time>2019-02-03T10:58:33Z</time>
      </trkpt>
      <trkpt lat="46.2768" lon="6.48046">
        <ele>1413.76</ele>
        <time>2019-02-03T10:58:47Z</time>
      </trkpt>
      <trkpt lat="46.2768" lon="6.48049">
        <ele>1414.24</ele>
        <time>2019-02-03T10:59:44Z</time>
      </trkpt>
      <trkpt lat="46.2768" lon="6.48059">
        <ele>1414.24</ele>
        <time>2019-02-03T10:59:56Z</time>
      </trkpt>
      <trkpt lat="46.2768" lon="6.48062">
        <ele>1415.2</ele>
        <time>2019-02-03T11:00:09Z</time>
      </trkpt>
      <trkpt lat="46.27681" lon="6.4807">
        <ele>1415.2</ele>
        <time>2019-02-03T11:00:24Z</time>
      </trkpt>
      <trkpt lat="46.2768" lon="6.48078">
        <ele>1415.68</ele>
        <time>2019-02-03T11:00:33Z</time>
      </trkpt>
      <trkpt lat="46.2768" lon="6.48079">
        <ele>1416.64</ele>
        <time>2019-02-03T11:01:11Z</time>
      </trkpt>
      <trkpt lat="46.2768" lon="6.48079">
        <ele>1417.12</ele>
        <time>2019-02-03T11:01:30Z</time>
      </trkpt>
      <trkpt lat="46.27679" lon="6.4808">
        <ele>1416.16</ele>
        <time>2019-02-03T11:02:00Z</time>
      </trkpt>
      <trkpt lat="46.27679" lon="6.48081">
        <ele>1417.12</ele>
        <time>2019-02-03T11:03:16Z</time>
      </trkpt>
      <trkpt lat="46.27679" lon="6.48081">
        <ele>1417.12</ele>
        <time>2019-02-03T11:03:41Z</time>
      </trkpt>
      <trkpt lat="46.27679" lon="6.48082">
        <ele>1416.64</ele>
        <time>2019-02-03T11:04:24Z</time>
      </trkpt>
      <trkpt lat="46.27679" lon="6.48086">
        <ele>1417.6</ele>
        <time>2019-02-03T11:04:42Z</time>
      </trkpt>
      <trkpt lat="46.27679" lon="6.48086">
        <ele>1417.12</ele>
        <time>2019-02-03T11:05:09Z</time>
      </trkpt>
      <trkpt lat="46.2768" lon="6.48099">
        <ele>1418.08</ele>
        <time>2019-02-03T11:05:25Z</time>
      </trkpt>
      <trkpt lat="46.2768" lon="6.481">
        <ele>1418.08</ele>
        <time>2019-02-03T11:06:14Z</time>
      </trkpt>
      <trkpt lat="46.2768" lon="6.481">
        <ele>1418.08</ele>
        <time>2019-02-03T11:06:28Z</time>
      </trkpt>
      <trkpt lat="46.2768" lon="6.481">
        <ele>1419.52</ele>
        <time>2019-02-03T11:06:41Z</time>
      </trkpt>
      <trkpt lat="46.27683" lon="6.48106">
        <ele>1418.56</ele>
        <time>2019-02-03T11:06:52Z</time>
      </trkpt>
      <trkpt lat="46.27683" lon="6.48109">
        <ele>1417.12</ele>
        <time>2019-02-03T11:07:11Z</time>
      </trkpt>
      <trkpt lat="46.27686" lon="6.48114">
        <ele>1419.04</ele>
        <time>2019-02-03T11:07:27Z</time>
      </trkpt>
      <trkpt lat="46.27686" lon="6.48114">
        <ele>1418.08</ele>
        <time>2019-02-03T11:07:39Z</time>
      </trkpt>
      <trkpt lat="46.27691" lon="6.48127">
        <ele>1417.6</ele>
        <time>2019-02-03T11:07:53Z</time>
      </trkpt>
      <trkpt lat="46.27691" lon="6.48127">
        <ele>1418.08</ele>
        <time>2019-02-03T11:08:17Z</time>
      </trkpt>
      <trkpt lat="46.27693" lon="6.48132">
        <ele>1418.08</ele>
        <time>2019-02-03T11:08:54Z</time>
      </trkpt>
      <trkpt lat="46.27694" lon="6.48132">
        <ele>1417.12</ele>
        <time>2019-02-03T11:09:07Z</time>
      </trkpt>
      <trkpt lat="46.27696" lon="6.48136">
        <ele>1418.08</ele>
        <time>2019-02-03T11:09:24Z</time>
      </trkpt>
      <trkpt lat="46.27696" lon="6.48136">
        <ele>1417.12</ele>
        <time>2019-02-03T11:09:41Z</time>
      </trkpt>
      <trkpt lat="46.277" lon="6.48147">
        <ele>1417.6</ele>
        <time>2019-02-03T11:10:02Z</time>
      </trkpt>
      <trkpt lat="46.27701" lon="6.4815">
        <ele>1418.08</ele>
        <time>2019-02-03T11:10:34Z</time>
      </trkpt>
      <trkpt lat="46.27702" lon="6.48151">
        <ele>1417.6</ele>
        <time>2019-02-03T11:11:17Z</time>
      </trkpt>
      <trkpt lat="46.27703" lon="6.48151">
        <ele>1417.6</ele>
        <time>2019-02-03T11:13:00Z</time>
      </trkpt>
      <trkpt lat="46.27706" lon="6.48153">
        <ele>1417.12</ele>
        <time>2019-02-03T11:13:32Z</time>
      </trkpt>
      <trkpt lat="46.27708" lon="6.48155">
        <ele>1417.6</ele>
        <time>2019-02-03T11:13:52Z</time>
      </trkpt>
      <trkpt lat="46.27708" lon="6.48155">
        <ele>1417.12</ele>
        <time>2019-02-03T11:14:16Z</time>
      </trkpt>
      <trkpt lat="46.27711" lon="6.48157">
        <ele>1417.12</ele>
        <time>2019-02-03T11:14:32Z</time>
      </trkpt>
      <trkpt lat="46.27711" lon="6.48157">
        <ele>1417.12</ele>
        <time>2019-02-03T11:14:50Z</time>
      </trkpt>
      <trkpt lat="46.27712" lon="6.4816">
        <ele>1419.04</ele>
        <time>2019-02-03T11:15:11Z</time>
      </trkpt>
      <trkpt lat="46.27712" lon="6.4816">
        <ele>1418.56</ele>
        <time>2019-02-03T11:15:25Z</time>
      </trkpt>
      <trkpt lat="46.27713" lon="6.48162">
        <ele>1420</ele>
        <time>2019-02-03T11:15:38Z</time>
      </trkpt>
      <trkpt lat="46.27713" lon="6.48162">
        <ele>1420</ele>
        <time>2019-02-03T11:15:59Z</time>
      </trkpt>
      <trkpt lat="46.27714" lon="6.48163">
        <ele>1421.45</ele>
        <time>2019-02-03T11:16:17Z</time>
      </trkpt>
      <trkpt lat="46.27714" lon="6.48164">
        <ele>1421.45</ele>
        <time>2019-02-03T11:16:45Z</time>
      </trkpt>
      <trkpt lat="46.27714" lon="6.48164">
        <ele>1420.97</ele>
        <time>2019-02-03T11:17:04Z</time>
      </trkpt>
      <trkpt lat="46.27714" lon="6.48165">
        <ele>1421.45</ele>
        <time>2019-02-03T11:17:25Z</time>
      </trkpt>
      <trkpt lat="46.27714" lon="6.48165">
        <ele>1422.41</ele>
        <time>2019-02-03T11:17:27Z</time>
      </trkpt>
      <trkpt lat="46.27714" lon="6.48165">
        <ele>1422.89</ele>
        <time>2019-02-03T11:17:49Z</time>
      </trkpt>
      <trkpt lat="46.27715" lon="6.48166">
        <ele>1422.89</ele>
        <time>2019-02-03T11:18:09Z</time>
      </trkpt>
      <trkpt lat="46.27715" lon="6.48166">
        <ele>1422.89</ele>
        <time>2019-02-03T11:19:12Z</time>
      </trkpt>
      <trkpt lat="46.27711" lon="6.48169">
        <ele>1421.93</ele>
        <time>2019-02-03T11:20:30Z</time>
      </trkpt>
      <trkpt lat="46.2771" lon="6.4817">
        <ele>1421.93</ele>
        <time>2019-02-03T11:21:09Z</time>
      </trkpt>
      <trkpt lat="46.27706" lon="6.48173">
        <ele>1421.45</ele>
        <time>2019-02-03T11:22:02Z</time>
      </trkpt>
      <trkpt lat="46.27705" lon="6.48172">
        <ele>1421.45</ele>
        <time>2019-02-03T11:22:51Z</time>
      </trkpt>
      <trkpt lat="46.27705" lon="6.48172">
        <ele>1420</ele>
        <time>2019-02-03T11:23:14Z</time>
      </trkpt>
      <trkpt lat="46.27704" lon="6.48171">
        <ele>1419.52</ele>
        <time>2019-02-03T11:23:32Z</time>
      </trkpt>
      <trkpt lat="46.27703" lon="6.48171">
        <ele>1420</ele>
        <time>2019-02-03T11:24:01Z</time>
      </trkpt>
      <trkpt lat="46.27703" lon="6.48171">
        <ele>1420</ele>
        <time>2019-02-03T11:24:18Z</time>
      </trkpt>
      <trkpt lat="46.27687" lon="6.48163">
        <ele>1420</ele>
        <time>2019-02-03T11:25:01Z</time>
      </trkpt>
      <trkpt lat="46.27687" lon="6.48163">
        <ele>1420</ele>
        <time>2019-02-03T11:25:19Z</time>
      </trkpt>
      <trkpt lat="46.27687" lon="6.48162">
        <ele>1421.45</ele>
        <time>2019-02-03T11:25:46Z</time>
      </trkpt>
      <trkpt lat="46.27687" lon="6.48162">
        <ele>1420.49</ele>
        <time>2019-02-03T11:26:09Z</time>
      </trkpt>
      <trkpt lat="46.27684" lon="6.48159">
        <ele>1420.97</ele>
        <time>2019-02-03T11:27:46Z</time>
      </trkpt>
      <trkpt lat="46.27684" lon="6.48159">
        <ele>1420.97</ele>
        <time>2019-02-03T11:28:02Z</time>
      </trkpt>
      <trkpt lat="46.27681" lon="6.48158">
        <ele>1420.49</ele>
        <time>2019-02-03T11:28:15Z</time>
      </trkpt>
      <trkpt lat="46.27681" lon="6.48158">
        <ele>1419.04</ele>
        <time>2019-02-03T11:29:15Z</time>
      </trkpt>
      <trkpt lat="46.27681" lon="6.48157">
        <ele>1419.04</ele>
        <time>2019-02-03T11:29:43Z</time>
      </trkpt>
      <trkpt lat="46.2768" lon="6.48157">
        <ele>1419.04</ele>
        <time>2019-02-03T11:31:07Z</time>
      </trkpt>
      <trkpt lat="46.2768" lon="6.48156">
        <ele>1418.56</ele>
        <time>2019-02-03T11:31:58Z</time>
      </trkpt>
      <trkpt lat="46.2768" lon="6.48153">
        <ele>1419.04</ele>
        <time>2019-02-03T11:32:28Z</time>
      </trkpt>
      <trkpt lat="46.2768" lon="6.48149">
        <ele>1418.56</ele>
        <time>2019-02-03T11:32:40Z</time>
      </trkpt>
      <trkpt lat="46.2768" lon="6.48149">
        <ele>1419.04</ele>
        <time>2019-02-03T11:33:01Z</time>
      </trkpt>
      <trkpt lat="46.27681" lon="6.48149">
        <ele>1419.52</ele>
        <time>2019-02-03T11:34:17Z</time>
      </trkpt>
      <trkpt lat="46.2768" lon="6.48149">
        <ele>1417.6</ele>
        <time>2019-02-03T11:34:44Z</time>
      </trkpt>
      <trkpt lat="46.27677" lon="6.48146">
        <ele>1418.08</ele>
        <time>2019-02-03T11:34:55Z</time>
      </trkpt>
      <trkpt lat="46.27673" lon="6.48141">
        <ele>1420.97</ele>
        <time>2019-02-03T11:35:09Z</time>
      </trkpt>
      <trkpt lat="46.27663" lon="6.48138">
        <ele>1422.41</ele>
        <time>2019-02-03T11:35:23Z</time>
      </trkpt>
      <trkpt lat="46.27663" lon="6.48138">
        <ele>1423.37</ele>
        <time>2019-02-03T11:35:36Z</time>
      </trkpt>
      <trkpt lat="46.27661" lon="6.48139">
        <ele>1423.85</ele>
        <time>2019-02-03T11:36:09Z</time>
      </trkpt>
      <trkpt lat="46.27659" lon="6.48139">
        <ele>1423.85</ele>
        <time>2019-02-03T11:36:31Z</time>
      </trkpt>
      <trkpt lat="46.27655" lon="6.48141">
        <ele>1424.81</ele>
        <time>2019-02-03T11:37:05Z</time>
      </trkpt>
      <trkpt lat="46.27654" lon="6.48141">
        <ele>1424.33</ele>
        <time>2019-02-03T11:37:49Z</time>
      </trkpt>
      <trkpt lat="46.27652" lon="6.48141">
        <ele>1424.33</ele>
        <time>2019-02-03T11:38:10Z</time>
      </trkpt>
      <trkpt lat="46.27651" lon="6.48139">
        <ele>1422.41</ele>
        <time>2019-02-03T11:40:14Z</time>
      </trkpt>
      <trkpt lat="46.27649" lon="6.48139">
        <ele>1421.45</ele>
        <time>2019-02-03T11:43:35Z</time>
      </trkpt>
      <trkpt lat="46.27649" lon="6.4814">
        <ele>1420</ele>
        <time>2019-02-03T11:50:59Z</time>
      </trkpt>
      <trkpt lat="46.27649" lon="6.48138">
        <ele>1420.49</ele>
        <time>2019-02-03T11:55:33Z</time>
      </trkpt>
      <trkpt lat="46.2765" lon="6.48137">
        <ele>1420.49</ele>
        <time>2019-02-03T11:57:28Z</time>
      </trkpt>
      <trkpt lat="46.27649" lon="6.48136">
        <ele>1420.97</ele>
        <time>2019-02-03T11:57:54Z</time>
      </trkpt>
      <trkpt lat="46.27647" lon="6.48136">
        <ele>1421.45</ele>
        <time>2019-02-03T11:58:16Z</time>
      </trkpt>
      <trkpt lat="46.27647" lon="6.48136">
        <ele>1421.45</ele>
        <time>2019-02-03T11:58:36Z</time>
      </trkpt>
      <trkpt lat="46.27648" lon="6.48136">
        <ele>1421.93</ele>
        <time>2019-02-03T11:59:23Z</time>
      </trkpt>
      <trkpt lat="46.27647" lon="6.48136">
        <ele>1421.45</ele>
        <time>2019-02-03T12:00:44Z</time>
      </trkpt>
      <trkpt lat="46.27647" lon="6.48135">
        <ele>1421.93</ele>
        <time>2019-02-03T12:01:06Z</time>
      </trkpt>
      <trkpt lat="46.27648" lon="6.48134">
        <ele>1420.49</ele>
        <time>2019-02-03T12:02:44Z</time>
      </trkpt>
      <trkpt lat="46.27653" lon="6.48128">
        <ele>1418.08</ele>
        <time>2019-02-03T12:02:53Z</time>
      </trkpt>
      <trkpt lat="46.27655" lon="6.48128">
        <ele>1416.64</ele>
        <time>2019-02-03T12:03:13Z</time>
      </trkpt>
      <trkpt lat="46.27657" lon="6.48126">
        <ele>1415.68</ele>
        <time>2019-02-03T12:03:33Z</time>
      </trkpt>
      <trkpt lat="46.27661" lon="6.48125">
        <ele>1413.76</ele>
        <time>2019-02-03T12:03:53Z</time>
      </trkpt>
      <trkpt lat="46.2766" lon="6.48125">
        <ele>1414.24</ele>
        <time>2019-02-03T12:04:02Z</time>
      </trkpt>
      <trkpt lat="46.27662" lon="6.48125">
        <ele>1411.83</ele>
        <time>2019-02-03T12:04:15Z</time>
      </trkpt>
      <trkpt lat="46.27662" lon="6.48125">
        <ele>1410.87</ele>
        <time>2019-02-03T12:04:29Z</time>
      </trkpt>
      <trkpt lat="46.27663" lon="6.48125">
        <ele>1410.39</ele>
        <time>2019-02-03T12:04:46Z</time>
      </trkpt>
      <trkpt lat="46.27665" lon="6.48126">
        <ele>1411.35</ele>
        <time>2019-02-03T12:04:57Z</time>
      </trkpt>
      <trkpt lat="46.27665" lon="6.48125">
        <ele>1409.91</ele>
        <time>2019-02-03T12:05:15Z</time>
      </trkpt>
      <trkpt lat="46.27671" lon="6.48124">
        <ele>1409.43</ele>
        <time>2019-02-03T12:05:31Z</time>
      </trkpt>
      <trkpt lat="46.27673" lon="6.48122">
        <ele>1407.99</ele>
        <time>2019-02-03T12:05:55Z</time>
      </trkpt>
      <trkpt lat="46.27673" lon="6.48122">
        <ele>1407.51</ele>
        <time>2019-02-03T12:06:15Z</time>
      </trkpt>
      <trkpt lat="46.27676" lon="6.48113">
        <ele>1406.55</ele>
        <time>2019-02-03T12:06:31Z</time>
      </trkpt>
      <trkpt lat="46.27675" lon="6.48104">
        <ele>1405.58</ele>
        <time>2019-02-03T12:06:43Z</time>
      </trkpt>
      <trkpt lat="46.27677" lon="6.48095">
        <ele>1403.66</ele>
        <time>2019-02-03T12:06:56Z</time>
      </trkpt>
      <trkpt lat="46.27678" lon="6.4809">
        <ele>1402.7</ele>
        <time>2019-02-03T12:07:04Z</time>
      </trkpt>
      <trkpt lat="46.2768" lon="6.4808">
        <ele>1402.22</ele>
        <time>2019-02-03T12:07:14Z</time>
      </trkpt>
      <trkpt lat="46.27679" lon="6.48062">
        <ele>1399.82</ele>
        <time>2019-02-03T12:07:28Z</time>
      </trkpt>
      <trkpt lat="46.2768" lon="6.48049">
        <ele>1398.37</ele>
        <time>2019-02-03T12:07:41Z</time>
      </trkpt>
      <trkpt lat="46.27678" lon="6.48037">
        <ele>1396.93</ele>
        <time>2019-02-03T12:07:52Z</time>
      </trkpt>
      <trkpt lat="46.27679" lon="6.48025">
        <ele>1394.53</ele>
        <time>2019-02-03T12:08:06Z</time>
      </trkpt>
      <trkpt lat="46.2768" lon="6.48023">
        <ele>1393.09</ele>
        <time>2019-02-03T12:08:18Z</time>
      </trkpt>
      <trkpt lat="46.2768" lon="6.48023">
        <ele>1391.17</ele>
        <time>2019-02-03T12:08:30Z</time>
      </trkpt>
      <trkpt lat="46.2768" lon="6.48023">
        <ele>1388.76</ele>
        <time>2019-02-03T12:08:41Z</time>
      </trkpt>
      <trkpt lat="46.2768" lon="6.48023">
        <ele>1387.32</ele>
        <time>2019-02-03T12:08:55Z</time>
      </trkpt>
      <trkpt lat="46.27681" lon="6.4802">
        <ele>1385.88</ele>
        <time>2019-02-03T12:09:11Z</time>
      </trkpt>
      <trkpt lat="46.27682" lon="6.48018">
        <ele>1384.92</ele>
        <time>2019-02-03T12:09:19Z</time>
      </trkpt>
      <trkpt lat="46.27684" lon="6.48015">
        <ele>1383.47</ele>
        <time>2019-02-03T12:09:30Z</time>
      </trkpt>
      <trkpt lat="46.27687" lon="6.48012">
        <ele>1382.99</ele>
        <time>2019-02-03T12:09:41Z</time>
      </trkpt>
      <trkpt lat="46.27692" lon="6.48003">
        <ele>1379.63</ele>
        <time>2019-02-03T12:09:59Z</time>
      </trkpt>
      <trkpt lat="46.277" lon="6.47979">
        <ele>1377.23</ele>
        <time>2019-02-03T12:10:19Z</time>
      </trkpt>
      <trkpt lat="46.277" lon="6.47965">
        <ele>1376.75</ele>
        <time>2019-02-03T12:10:30Z</time>
      </trkpt>
      <trkpt lat="46.27699" lon="6.47951">
        <ele>1375.78</ele>
        <time>2019-02-03T12:10:41Z</time>
      </trkpt>
      <trkpt lat="46.277" lon="6.47933">
        <ele>1374.82</ele>
        <time>2019-02-03T12:10:56Z</time>
      </trkpt>
      <trkpt lat="46.27701" lon="6.47923">
        <ele>1373.86</ele>
        <time>2019-02-03T12:11:05Z</time>
      </trkpt>
      <trkpt lat="46.27697" lon="6.47913">
        <ele>1372.9</ele>
        <time>2019-02-03T12:11:16Z</time>
      </trkpt>
      <trkpt lat="46.27698" lon="6.47904">
        <ele>1370.5</ele>
        <time>2019-02-03T12:11:28Z</time>
      </trkpt>
      <trkpt lat="46.27698" lon="6.47898">
        <ele>1369.05</ele>
        <time>2019-02-03T12:11:39Z</time>
      </trkpt>
      <trkpt lat="46.27698" lon="6.47889">
        <ele>1368.09</ele>
        <time>2019-02-03T12:11:50Z</time>
      </trkpt>
      <trkpt lat="46.27703" lon="6.47886">
        <ele>1366.65</ele>
        <time>2019-02-03T12:12:04Z</time>
      </trkpt>
      <trkpt lat="46.27703" lon="6.47885">
        <ele>1367.13</ele>
        <time>2019-02-03T12:12:20Z</time>
      </trkpt>
      <trkpt lat="46.27704" lon="6.47884">
        <ele>1365.21</ele>
        <time>2019-02-03T12:12:43Z</time>
      </trkpt>
      <trkpt lat="46.27706" lon="6.47884">
        <ele>1363.29</ele>
        <time>2019-02-03T12:12:54Z</time>
      </trkpt>
      <trkpt lat="46.27709" lon="6.47875">
        <ele>1361.84</ele>
        <time>2019-02-03T12:13:06Z</time>
      </trkpt>
      <trkpt lat="46.27713" lon="6.47868">
        <ele>1359.44</ele>
        <time>2019-02-03T12:13:19Z</time>
      </trkpt>
      <trkpt lat="46.27714" lon="6.47868">
        <ele>1358.96</ele>
        <time>2019-02-03T12:13:24Z</time>
      </trkpt>
      <trkpt lat="46.27715" lon="6.47881">
        <ele>1356.56</ele>
        <time>2019-02-03T12:13:36Z</time>
      </trkpt>
      <trkpt lat="46.27716" lon="6.47885">
        <ele>1356.56</ele>
        <time>2019-02-03T12:13:39Z</time>
      </trkpt>
      <trkpt lat="46.2772" lon="6.479">
        <ele>1353.67</ele>
        <time>2019-02-03T12:13:53Z</time>
      </trkpt>
      <trkpt lat="46.27725" lon="6.47899">
        <ele>1352.71</ele>
        <time>2019-02-03T12:14:07Z</time>
      </trkpt>
      <trkpt lat="46.2774" lon="6.47891">
        <ele>1351.75</ele>
        <time>2019-02-03T12:14:18Z</time>
      </trkpt>
      <trkpt lat="46.27741" lon="6.47874">
        <ele>1351.75</ele>
        <time>2019-02-03T12:14:28Z</time>
      </trkpt>
      <trkpt lat="46.27741" lon="6.4787">
        <ele>1350.79</ele>
        <time>2019-02-03T12:14:32Z</time>
      </trkpt>
      <trkpt lat="46.2774" lon="6.4785">
        <ele>1350.31</ele>
        <time>2019-02-03T12:14:45Z</time>
      </trkpt>
      <trkpt lat="46.27735" lon="6.4784">
        <ele>1351.27</ele>
        <time>2019-02-03T12:14:59Z</time>
      </trkpt>
      <trkpt lat="46.27733" lon="6.47833">
        <ele>1349.35</ele>
        <time>2019-02-03T12:15:12Z</time>
      </trkpt>
      <trkpt lat="46.27731" lon="6.47826">
        <ele>1348.39</ele>
        <time>2019-02-03T12:15:28Z</time>
      </trkpt>
      <trkpt lat="46.27731" lon="6.4782">
        <ele>1345.5</ele>
        <time>2019-02-03T12:15:43Z</time>
      </trkpt>
      <trkpt lat="46.27728" lon="6.47806">
        <ele>1344.54</ele>
        <time>2019-02-03T12:15:54Z</time>
      </trkpt>
      <trkpt lat="46.27724" lon="6.47801">
        <ele>1345.02</ele>
        <time>2019-02-03T12:16:05Z</time>
      </trkpt>
      <trkpt lat="46.27722" lon="6.4779">
        <ele>1346.46</ele>
        <time>2019-02-03T12:16:17Z</time>
      </trkpt>
      <trkpt lat="46.27722" lon="6.4777">
        <ele>1345.5</ele>
        <time>2019-02-03T12:16:31Z</time>
      </trkpt>
      <trkpt lat="46.27722" lon="6.47762">
        <ele>1342.62</ele>
        <time>2019-02-03T12:16:43Z</time>
      </trkpt>
      <trkpt lat="46.27723" lon="6.47752">
        <ele>1340.7</ele>
        <time>2019-02-03T12:16:55Z</time>
      </trkpt>
      <trkpt lat="46.27726" lon="6.47745">
        <ele>1338.77</ele>
        <time>2019-02-03T12:17:07Z</time>
      </trkpt>
      <trkpt lat="46.27729" lon="6.47731">
        <ele>1335.89</ele>
        <time>2019-02-03T12:17:19Z</time>
      </trkpt>
      <trkpt lat="46.27732" lon="6.47717">
        <ele>1333.49</ele>
        <time>2019-02-03T12:17:33Z</time>
      </trkpt>
      <trkpt lat="46.27736" lon="6.47709">
        <ele>1333.01</ele>
        <time>2019-02-03T12:17:49Z</time>
      </trkpt>
      <trkpt lat="46.27738" lon="6.477">
        <ele>1332.04</ele>
        <time>2019-02-03T12:17:59Z</time>
      </trkpt>
      <trkpt lat="46.27733" lon="6.47689">
        <ele>1329.64</ele>
        <time>2019-02-03T12:18:11Z</time>
      </trkpt>
      <trkpt lat="46.27732" lon="6.47686">
        <ele>1329.16</ele>
        <time>2019-02-03T12:18:13Z</time>
      </trkpt>
      <trkpt lat="46.27729" lon="6.47683">
        <ele>1328.68</ele>
        <time>2019-02-03T12:18:16Z</time>
      </trkpt>
      <trkpt lat="46.27725" lon="6.47679">
        <ele>1327.72</ele>
        <time>2019-02-03T12:18:20Z</time>
      </trkpt>
      <trkpt lat="46.27717" lon="6.4767">
        <ele>1326.28</ele>
        <time>2019-02-03T12:18:31Z</time>
      </trkpt>
      <trkpt lat="46.27717" lon="6.47661">
        <ele>1325.8</ele>
        <time>2019-02-03T12:18:45Z</time>
      </trkpt>
      <trkpt lat="46.27714" lon="6.47655">
        <ele>1323.87</ele>
        <time>2019-02-03T12:19:16Z</time>
      </trkpt>
      <trkpt lat="46.27704" lon="6.47651">
        <ele>1321.95</ele>
        <time>2019-02-03T12:19:27Z</time>
      </trkpt>
      <trkpt lat="46.27698" lon="6.47653">
        <ele>1321.95</ele>
        <time>2019-02-03T12:19:37Z</time>
      </trkpt>
      <trkpt lat="46.27691" lon="6.4765">
        <ele>1320.99</ele>
        <time>2019-02-03T12:19:47Z</time>
      </trkpt>
      <trkpt lat="46.2768" lon="6.47648">
        <ele>1321.47</ele>
        <time>2019-02-03T12:19:59Z</time>
      </trkpt>
      <trkpt lat="46.27674" lon="6.4765">
        <ele>1319.07</ele>
        <time>2019-02-03T12:20:17Z</time>
      </trkpt>
      <trkpt lat="46.27663" lon="6.4765">
        <ele>1318.1</ele>
        <time>2019-02-03T12:20:28Z</time>
      </trkpt>
      <trkpt lat="46.27655" lon="6.47654">
        <ele>1318.1</ele>
        <time>2019-02-03T12:20:42Z</time>
      </trkpt>
      <trkpt lat="46.27653" lon="6.47656">
        <ele>1318.1</ele>
        <time>2019-02-03T12:20:45Z</time>
      </trkpt>
      <trkpt lat="46.27644" lon="6.47658">
        <ele>1316.66</ele>
        <time>2019-02-03T12:20:57Z</time>
      </trkpt>
      <trkpt lat="46.27633" lon="6.47661">
        <ele>1317.14</ele>
        <time>2019-02-03T12:21:15Z</time>
      </trkpt>
      <trkpt lat="46.27625" lon="6.4766">
        <ele>1314.74</ele>
        <time>2019-02-03T12:21:32Z</time>
      </trkpt>
      <trkpt lat="46.27617" lon="6.47654">
        <ele>1312.34</ele>
        <time>2019-02-03T12:21:44Z</time>
      </trkpt>
      <trkpt lat="46.27609" lon="6.47645">
        <ele>1310.41</ele>
        <time>2019-02-03T12:21:56Z</time>
      </trkpt>
      <trkpt lat="46.276" lon="6.47636">
        <ele>1308.49</ele>
        <time>2019-02-03T12:22:07Z</time>
      </trkpt>
      <trkpt lat="46.27599" lon="6.47614">
        <ele>1307.05</ele>
        <time>2019-02-03T12:22:23Z</time>
      </trkpt>
      <trkpt lat="46.27599" lon="6.47597">
        <ele>1307.05</ele>
        <time>2019-02-03T12:22:36Z</time>
      </trkpt>
      <trkpt lat="46.276" lon="6.47588">
        <ele>1305.61</ele>
        <time>2019-02-03T12:22:46Z</time>
      </trkpt>
      <trkpt lat="46.27599" lon="6.47585">
        <ele>1305.61</ele>
        <time>2019-02-03T12:22:47Z</time>
      </trkpt>
      <trkpt lat="46.27597" lon="6.47579">
        <ele>1305.13</ele>
        <time>2019-02-03T12:22:50Z</time>
      </trkpt>
      <trkpt lat="46.27595" lon="6.47566">
        <ele>1303.69</ele>
        <time>2019-02-03T12:23:00Z</time>
      </trkpt>
      <trkpt lat="46.27592" lon="6.47549">
        <ele>1301.76</ele>
        <time>2019-02-03T12:23:13Z</time>
      </trkpt>
      <trkpt lat="46.27588" lon="6.47533">
        <ele>1300.8</ele>
        <time>2019-02-03T12:23:25Z</time>
      </trkpt>
      <trkpt lat="46.27584" lon="6.47524">
        <ele>1299.84</ele>
        <time>2019-02-03T12:23:38Z</time>
      </trkpt>
      <trkpt lat="46.27584" lon="6.4752">
        <ele>1297.92</ele>
        <time>2019-02-03T12:23:58Z</time>
      </trkpt>
      <trkpt lat="46.27581" lon="6.47512">
        <ele>1297.92</ele>
        <time>2019-02-03T12:24:09Z</time>
      </trkpt>
      <trkpt lat="46.27577" lon="6.47503">
        <ele>1295.51</ele>
        <time>2019-02-03T12:24:19Z</time>
      </trkpt>
      <trkpt lat="46.27575" lon="6.4749">
        <ele>1293.59</ele>
        <time>2019-02-03T12:24:36Z</time>
      </trkpt>
      <trkpt lat="46.27572" lon="6.47483">
        <ele>1293.11</ele>
        <time>2019-02-03T12:24:45Z</time>
      </trkpt>
      <trkpt lat="46.2757" lon="6.47471">
        <ele>1291.19</ele>
        <time>2019-02-03T12:24:59Z</time>
      </trkpt>
      <trkpt lat="46.27569" lon="6.47461">
        <ele>1288.78</ele>
        <time>2019-02-03T12:25:12Z</time>
      </trkpt>
      <trkpt lat="46.27568" lon="6.47447">
        <ele>1286.38</ele>
        <time>2019-02-03T12:25:23Z</time>
      </trkpt>
      <trkpt lat="46.27565" lon="6.47433">
        <ele>1283.98</ele>
        <time>2019-02-03T12:25:36Z</time>
      </trkpt>
      <trkpt lat="46.27557" lon="6.4742">
        <ele>1281.57</ele>
        <time>2019-02-03T12:25:49Z</time>
      </trkpt>
      <trkpt lat="46.27555" lon="6.47415">
        <ele>1280.13</ele>
        <time>2019-02-03T12:26:02Z</time>
      </trkpt>
      <trkpt lat="46.27551" lon="6.47408">
        <ele>1279.17</ele>
        <time>2019-02-03T12:26:07Z</time>
      </trkpt>
      <trkpt lat="46.27543" lon="6.47391">
        <ele>1276.77</ele>
        <time>2019-02-03T12:26:20Z</time>
      </trkpt>
      <trkpt lat="46.27536" lon="6.47378">
        <ele>1274.36</ele>
        <time>2019-02-03T12:26:34Z</time>
      </trkpt>
      <trkpt lat="46.27531" lon="6.47366">
        <ele>1273.88</ele>
        <time>2019-02-03T12:26:45Z</time>
      </trkpt>
      <trkpt lat="46.27525" lon="6.47357">
        <ele>1271.96</ele>
        <time>2019-02-03T12:26:58Z</time>
      </trkpt>
      <trkpt lat="46.27518" lon="6.47347">
        <ele>1271</ele>
        <time>2019-02-03T12:27:09Z</time>
      </trkpt>
      <trkpt lat="46.27511" lon="6.47333">
        <ele>1269.08</ele>
        <time>2019-02-03T12:27:22Z</time>
      </trkpt>
      <trkpt lat="46.27504" lon="6.47318">
        <ele>1266.67</ele>
        <time>2019-02-03T12:27:37Z</time>
      </trkpt>
      <trkpt lat="46.27499" lon="6.47306">
        <ele>1263.79</ele>
        <time>2019-02-03T12:27:48Z</time>
      </trkpt>
      <trkpt lat="46.27493" lon="6.47293">
        <ele>1260.91</ele>
        <time>2019-02-03T12:28:03Z</time>
      </trkpt>
      <trkpt lat="46.27491" lon="6.4729">
        <ele>1259.94</ele>
        <time>2019-02-03T12:28:06Z</time>
      </trkpt>
      <trkpt lat="46.27482" lon="6.47282">
        <ele>1258.98</ele>
        <time>2019-02-03T12:28:20Z</time>
      </trkpt>
      <trkpt lat="46.27473" lon="6.47277">
        <ele>1255.62</ele>
        <time>2019-02-03T12:28:34Z</time>
      </trkpt>
      <trkpt lat="46.27466" lon="6.4727">
        <ele>1253.22</ele>
        <time>2019-02-03T12:28:48Z</time>
      </trkpt>
      <trkpt lat="46.27452" lon="6.47268">
        <ele>1251.77</ele>
        <time>2019-02-03T12:29:02Z</time>
      </trkpt>
      <trkpt lat="46.27442" lon="6.47263">
        <ele>1250.33</ele>
        <time>2019-02-03T12:29:14Z</time>
      </trkpt>
      <trkpt lat="46.27432" lon="6.47258">
        <ele>1247.93</ele>
        <time>2019-02-03T12:29:29Z</time>
      </trkpt>
      <trkpt lat="46.27428" lon="6.47253">
        <ele>1247.93</ele>
        <time>2019-02-03T12:29:42Z</time>
      </trkpt>
      <trkpt lat="46.27427" lon="6.47252">
        <ele>1247.45</ele>
        <time>2019-02-03T12:29:44Z</time>
      </trkpt>
      <trkpt lat="46.27413" lon="6.47248">
        <ele>1245.04</ele>
        <time>2019-02-03T12:29:58Z</time>
      </trkpt>
      <trkpt lat="46.27403" lon="6.47247">
        <ele>1244.08</ele>
        <time>2019-02-03T12:30:13Z</time>
      </trkpt>
      <trkpt lat="46.27401" lon="6.47246">
        <ele>1245.04</ele>
        <time>2019-02-03T12:30:36Z</time>
      </trkpt>
      <trkpt lat="46.27397" lon="6.47244">
        <ele>1244.08</ele>
        <time>2019-02-03T12:31:13Z</time>
      </trkpt>
      <trkpt lat="46.27392" lon="6.47233">
        <ele>1243.12</ele>
        <time>2019-02-03T12:31:27Z</time>
      </trkpt>
      <trkpt lat="46.27391" lon="6.4723">
        <ele>1242.16</ele>
        <time>2019-02-03T12:31:31Z</time>
      </trkpt>
      <trkpt lat="46.2738" lon="6.47226">
        <ele>1239.76</ele>
        <time>2019-02-03T12:31:46Z</time>
      </trkpt>
      <trkpt lat="46.27368" lon="6.47226">
        <ele>1237.83</ele>
        <time>2019-02-03T12:31:59Z</time>
      </trkpt>
      <trkpt lat="46.27366" lon="6.47227">
        <ele>1237.83</ele>
        <time>2019-02-03T12:32:04Z</time>
      </trkpt>
      <trkpt lat="46.2736" lon="6.47228">
        <ele>1236.39</ele>
        <time>2019-02-03T12:32:17Z</time>
      </trkpt>
      <trkpt lat="46.27345" lon="6.47226">
        <ele>1233.99</ele>
        <time>2019-02-03T12:32:32Z</time>
      </trkpt>
      <trkpt lat="46.27339" lon="6.47224">
        <ele>1232.55</ele>
        <time>2019-02-03T12:32:40Z</time>
      </trkpt>
      <trkpt lat="46.27331" lon="6.47221">
        <ele>1230.14</ele>
        <time>2019-02-03T12:32:52Z</time>
      </trkpt>
      <trkpt lat="46.27321" lon="6.47214">
        <ele>1228.7</ele>
        <time>2019-02-03T12:33:04Z</time>
      </trkpt>
      <trkpt lat="46.2732" lon="6.47214">
        <ele>1228.7</ele>
        <time>2019-02-03T12:33:05Z</time>
      </trkpt>
      <trkpt lat="46.27308" lon="6.47207">
        <ele>1226.3</ele>
        <time>2019-02-03T12:33:19Z</time>
      </trkpt>
      <trkpt lat="46.27298" lon="6.47206">
        <ele>1224.86</ele>
        <time>2019-02-03T12:33:30Z</time>
      </trkpt>
      <trkpt lat="46.2729" lon="6.47207">
        <ele>1223.42</ele>
        <time>2019-02-03T12:33:41Z</time>
      </trkpt>
      <trkpt lat="46.27282" lon="6.47204">
        <ele>1222.45</ele>
        <time>2019-02-03T12:33:54Z</time>
      </trkpt>
      <trkpt lat="46.27277" lon="6.47205">
        <ele>1222.45</ele>
        <time>2019-02-03T12:34:03Z</time>
      </trkpt>
      <trkpt lat="46.27269" lon="6.472">
        <ele>1219.57</ele>
        <time>2019-02-03T12:34:14Z</time>
      </trkpt>
      <trkpt lat="46.27265" lon="6.47198">
        <ele>1217.65</ele>
        <time>2019-02-03T12:34:26Z</time>
      </trkpt>
      <trkpt lat="46.2726" lon="6.47196">
        <ele>1215.24</ele>
        <time>2019-02-03T12:34:38Z</time>
      </trkpt>
      <trkpt lat="46.2725" lon="6.47193">
        <ele>1213.32</ele>
        <time>2019-02-03T12:34:53Z</time>
      </trkpt>
      <trkpt lat="46.27243" lon="6.47191">
        <ele>1210.92</ele>
        <time>2019-02-03T12:35:07Z</time>
      </trkpt>
      <trkpt lat="46.27235" lon="6.47185">
        <ele>1207.55</ele>
        <time>2019-02-03T12:35:18Z</time>
      </trkpt>
      <trkpt lat="46.27233" lon="6.47184">
        <ele>1207.07</ele>
        <time>2019-02-03T12:35:21Z</time>
      </trkpt>
      <trkpt lat="46.27222" lon="6.47178">
        <ele>1205.15</ele>
        <time>2019-02-03T12:35:31Z</time>
      </trkpt>
      <trkpt lat="46.27212" lon="6.47175">
        <ele>1204.19</ele>
        <time>2019-02-03T12:35:40Z</time>
      </trkpt>
      <trkpt lat="46.27208" lon="6.47174">
        <ele>1204.19</ele>
        <time>2019-02-03T12:35:44Z</time>
      </trkpt>
      <trkpt lat="46.27195" lon="6.47171">
        <ele>1201.79</ele>
        <time>2019-02-03T12:35:57Z</time>
      </trkpt>
      <trkpt lat="46.27194" lon="6.47171">
        <ele>1202.27</ele>
        <time>2019-02-03T12:35:58Z</time>
      </trkpt>
      <trkpt lat="46.27183" lon="6.47169">
        <ele>1200.82</ele>
        <time>2019-02-03T12:36:09Z</time>
      </trkpt>
      <trkpt lat="46.27176" lon="6.47169">
        <ele>1199.86</ele>
        <time>2019-02-03T12:36:18Z</time>
      </trkpt>
      <trkpt lat="46.27174" lon="6.47168">
        <ele>1199.38</ele>
        <time>2019-02-03T12:36:25Z</time>
      </trkpt>
      <trkpt lat="46.27171" lon="6.47167">
        <ele>1197.46</ele>
        <time>2019-02-03T12:36:38Z</time>
      </trkpt>
      <trkpt lat="46.27165" lon="6.47157">
        <ele>1196.5</ele>
        <time>2019-02-03T12:36:48Z</time>
      </trkpt>
      <trkpt lat="46.27169" lon="6.47145">
        <ele>1194.58</ele>
        <time>2019-02-03T12:37:00Z</time>
      </trkpt>
      <trkpt lat="46.27176" lon="6.4714">
        <ele>1192.17</ele>
        <time>2019-02-03T12:37:14Z</time>
      </trkpt>
      <trkpt lat="46.27186" lon="6.47132">
        <ele>1190.25</ele>
        <time>2019-02-03T12:37:28Z</time>
      </trkpt>
      <trkpt lat="46.27198" lon="6.47123">
        <ele>1187.37</ele>
        <time>2019-02-03T12:37:42Z</time>
      </trkpt>
      <trkpt lat="46.27203" lon="6.47116">
        <ele>1186.4</ele>
        <time>2019-02-03T12:37:53Z</time>
      </trkpt>
      <trkpt lat="46.27205" lon="6.47115">
        <ele>1185.92</ele>
        <time>2019-02-03T12:37:56Z</time>
      </trkpt>
      <trkpt lat="46.27216" lon="6.47104">
        <ele>1185.92</ele>
        <time>2019-02-03T12:38:12Z</time>
      </trkpt>
      <trkpt lat="46.27222" lon="6.47093">
        <ele>1183.04</ele>
        <time>2019-02-03T12:38:26Z</time>
      </trkpt>
      <trkpt lat="46.2723" lon="6.47086">
        <ele>1180.64</ele>
        <time>2019-02-03T12:38:38Z</time>
      </trkpt>
      <trkpt lat="46.2724" lon="6.47073">
        <ele>1178.71</ele>
        <time>2019-02-03T12:38:52Z</time>
      </trkpt>
      <trkpt lat="46.27242" lon="6.4707">
        <ele>1178.71</ele>
        <time>2019-02-03T12:39:07Z</time>
      </trkpt>
      <trkpt lat="46.2725" lon="6.47062">
        <ele>1176.79</ele>
        <time>2019-02-03T12:39:19Z</time>
      </trkpt>
      <trkpt lat="46.27253" lon="6.47059">
        <ele>1175.83</ele>
        <time>2019-02-03T12:39:30Z</time>
      </trkpt>
      <trkpt lat="46.27262" lon="6.4705">
        <ele>1174.39</ele>
        <time>2019-02-03T12:39:40Z</time>
      </trkpt>
      <trkpt lat="46.27272" lon="6.47042">
        <ele>1172.95</ele>
        <time>2019-02-03T12:39:53Z</time>
      </trkpt>
      <trkpt lat="46.27274" lon="6.47041">
        <ele>1171.98</ele>
        <time>2019-02-03T12:40:03Z</time>
      </trkpt>
      <trkpt lat="46.27287" lon="6.47034">
        <ele>1169.58</ele>
        <time>2019-02-03T12:40:18Z</time>
      </trkpt>
      <trkpt lat="46.27295" lon="6.47032">
        <ele>1169.1</ele>
        <time>2019-02-03T12:40:25Z</time>
      </trkpt>
      <trkpt lat="46.27308" lon="6.47027">
        <ele>1167.18</ele>
        <time>2019-02-03T12:40:38Z</time>
      </trkpt>
      <trkpt lat="46.27326" lon="6.47024">
        <ele>1165.26</ele>
        <time>2019-02-03T12:40:52Z</time>
      </trkpt>
      <trkpt lat="46.27328" lon="6.47024">
        <ele>1162.37</ele>
        <time>2019-02-03T12:41:04Z</time>
      </trkpt>
      <trkpt lat="46.27343" lon="6.4702">
        <ele>1160.93</ele>
        <time>2019-02-03T12:41:17Z</time>
      </trkpt>
      <trkpt lat="46.27358" lon="6.47015">
        <ele>1160.45</ele>
        <time>2019-02-03T12:41:29Z</time>
      </trkpt>
      <trkpt lat="46.27365" lon="6.47011">
        <ele>1158.53</ele>
        <time>2019-02-03T12:41:40Z</time>
      </trkpt>
      <trkpt lat="46.27374" lon="6.47003">
        <ele>1156.6</ele>
        <time>2019-02-03T12:41:51Z</time>
      </trkpt>
      <trkpt lat="46.27374" lon="6.47003">
        <ele>1156.12</ele>
        <time>2019-02-03T12:41:52Z</time>
      </trkpt>
      <trkpt lat="46.27386" lon="6.46997">
        <ele>1154.68</ele>
        <time>2019-02-03T12:42:05Z</time>
      </trkpt>
      <trkpt lat="46.27393" lon="6.46987">
        <ele>1152.28</ele>
        <time>2019-02-03T12:42:18Z</time>
      </trkpt>
      <trkpt lat="46.27395" lon="6.46983">
        <ele>1151.8</ele>
        <time>2019-02-03T12:42:21Z</time>
      </trkpt>
      <trkpt lat="46.27399" lon="6.46975">
        <ele>1150.35</ele>
        <time>2019-02-03T12:42:35Z</time>
      </trkpt>
      <trkpt lat="46.27406" lon="6.4697">
        <ele>1149.39</ele>
        <time>2019-02-03T12:42:47Z</time>
      </trkpt>
      <trkpt lat="46.2741" lon="6.46962">
        <ele>1147.47</ele>
        <time>2019-02-03T12:42:56Z</time>
      </trkpt>
      <trkpt lat="46.27416" lon="6.46955">
        <ele>1145.55</ele>
        <time>2019-02-03T12:43:04Z</time>
      </trkpt>
      <trkpt lat="46.27421" lon="6.46944">
        <ele>1144.11</ele>
        <time>2019-02-03T12:43:18Z</time>
      </trkpt>
      <trkpt lat="46.27428" lon="6.46935">
        <ele>1141.7</ele>
        <time>2019-02-03T12:43:32Z</time>
      </trkpt>
      <trkpt lat="46.27436" lon="6.46928">
        <ele>1139.3</ele>
        <time>2019-02-03T12:43:44Z</time>
      </trkpt>
      <trkpt lat="46.27444" lon="6.46923">
        <ele>1136.9</ele>
        <time>2019-02-03T12:43:58Z</time>
      </trkpt>
      <trkpt lat="46.27451" lon="6.46913">
        <ele>1134.01</ele>
        <time>2019-02-03T12:44:11Z</time>
      </trkpt>
      <trkpt lat="46.27456" lon="6.46901">
        <ele>1132.09</ele>
        <time>2019-02-03T12:44:25Z</time>
      </trkpt>
      <trkpt lat="46.27462" lon="6.46894">
        <ele>1130.17</ele>
        <time>2019-02-03T12:44:40Z</time>
      </trkpt>
      <trkpt lat="46.2747" lon="6.46887">
        <ele>1127.28</ele>
        <time>2019-02-03T12:44:51Z</time>
      </trkpt>
      <trkpt lat="46.27477" lon="6.46874">
        <ele>1127.28</ele>
        <time>2019-02-03T12:45:03Z</time>
      </trkpt>
      <trkpt lat="46.27487" lon="6.46865">
        <ele>1123.92</ele>
        <time>2019-02-03T12:45:18Z</time>
      </trkpt>
      <trkpt lat="46.27495" lon="6.46855">
        <ele>1121.52</ele>
        <time>2019-02-03T12:45:33Z</time>
      </trkpt>
      <trkpt lat="46.27504" lon="6.46847">
        <ele>1120.55</ele>
        <time>2019-02-03T12:45:47Z</time>
      </trkpt>
      <trkpt lat="46.27505" lon="6.46846">
        <ele>1118.63</ele>
        <time>2019-02-03T12:46:00Z</time>
      </trkpt>
      <trkpt lat="46.27505" lon="6.46846">
        <ele>1118.15</ele>
        <time>2019-02-03T12:46:04Z</time>
      </trkpt>
      <trkpt lat="46.27514" lon="6.46837">
        <ele>1115.75</ele>
        <time>2019-02-03T12:46:18Z</time>
      </trkpt>
      <trkpt lat="46.27525" lon="6.46828">
        <ele>1113.82</ele>
        <time>2019-02-03T12:46:31Z</time>
      </trkpt>
      <trkpt lat="46.27539" lon="6.46819">
        <ele>1112.38</ele>
        <time>2019-02-03T12:46:44Z</time>
      </trkpt>
      <trkpt lat="46.27548" lon="6.46805">
        <ele>1109.5</ele>
        <time>2019-02-03T12:46:57Z</time>
      </trkpt>
      <trkpt lat="46.27549" lon="6.46797">
        <ele>1108.54</ele>
        <time>2019-02-03T12:47:11Z</time>
      </trkpt>
      <trkpt lat="46.2755" lon="6.46782">
        <ele>1106.61</ele>
        <time>2019-02-03T12:47:21Z</time>
      </trkpt>
      <trkpt lat="46.27546" lon="6.46767">
        <ele>1105.17</ele>
        <time>2019-02-03T12:47:36Z</time>
      </trkpt>
      <trkpt lat="46.27544" lon="6.4676">
        <ele>1104.21</ele>
        <time>2019-02-03T12:47:50Z</time>
      </trkpt>
      <trkpt lat="46.27542" lon="6.46756">
        <ele>1103.73</ele>
        <time>2019-02-03T12:48:06Z</time>
      </trkpt>
      <trkpt lat="46.27544" lon="6.46741">
        <ele>1103.25</ele>
        <time>2019-02-03T12:48:20Z</time>
      </trkpt>
      <trkpt lat="46.27545" lon="6.46735">
        <ele>1102.77</ele>
        <time>2019-02-03T12:48:30Z</time>
      </trkpt>
      <trkpt lat="46.27545" lon="6.46735">
        <ele>1103.73</ele>
        <time>2019-02-03T12:49:05Z</time>
      </trkpt>
      <trkpt lat="46.27548" lon="6.46738">
        <ele>1101.81</ele>
        <time>2019-02-03T12:49:41Z</time>
      </trkpt>
      <trkpt lat="46.27553" lon="6.46742">
        <ele>1102.77</ele>
        <time>2019-02-03T12:49:49Z</time>
      </trkpt>
      <trkpt lat="46.27558" lon="6.46743">
        <ele>1104.69</ele>
        <time>2019-02-03T12:50:02Z</time>
      </trkpt>
      <trkpt lat="46.27562" lon="6.46745">
        <ele>1105.17</ele>
        <time>2019-02-03T12:50:14Z</time>
      </trkpt>
      <trkpt lat="46.27566" lon="6.46742">
        <ele>1106.13</ele>
        <time>2019-02-03T12:50:30Z</time>
      </trkpt>
      <trkpt lat="46.27568" lon="6.46738">
        <ele>1106.13</ele>
        <time>2019-02-03T12:50:36Z</time>
      </trkpt>
      <trkpt lat="46.27571" lon="6.46729">
        <ele>1106.13</ele>
        <time>2019-02-03T12:50:44Z</time>
      </trkpt>
      <trkpt lat="46.27573" lon="6.46718">
        <ele>1106.13</ele>
        <time>2019-02-03T12:50:58Z</time>
      </trkpt>
      <trkpt lat="46.27578" lon="6.46706">
        <ele>1105.65</ele>
        <time>2019-02-03T12:51:11Z</time>
      </trkpt>
      <trkpt lat="46.27581" lon="6.46697">
        <ele>1105.65</ele>
        <time>2019-02-03T12:51:22Z</time>
      </trkpt>
      <trkpt lat="46.27585" lon="6.46688">
        <ele>1105.65</ele>
        <time>2019-02-03T12:51:32Z</time>
      </trkpt>
      <trkpt lat="46.27588" lon="6.46678">
        <ele>1106.13</ele>
        <time>2019-02-03T12:51:43Z</time>
      </trkpt>
      <trkpt lat="46.27591" lon="6.46668">
        <ele>1104.69</ele>
        <time>2019-02-03T12:51:55Z</time>
      </trkpt>
      <trkpt lat="46.27594" lon="6.46656">
        <ele>1104.69</ele>
        <time>2019-02-03T12:52:07Z</time>
      </trkpt>
      <trkpt lat="46.27597" lon="6.46647">
        <ele>1104.21</ele>
        <time>2019-02-03T12:52:18Z</time>
      </trkpt>
      <trkpt lat="46.27598" lon="6.46638">
        <ele>1105.17</ele>
        <time>2019-02-03T12:52:30Z</time>
      </trkpt>
      <trkpt lat="46.27597" lon="6.46627">
        <ele>1105.17</ele>
        <time>2019-02-03T12:52:44Z</time>
      </trkpt>
      <trkpt lat="46.27597" lon="6.46617">
        <ele>1104.69</ele>
        <time>2019-02-03T12:52:55Z</time>
      </trkpt>
      <trkpt lat="46.27596" lon="6.46609">
        <ele>1104.21</ele>
        <time>2019-02-03T12:53:16Z</time>
      </trkpt>
      <trkpt lat="46.27598" lon="6.46599">
        <ele>1104.69</ele>
        <time>2019-02-03T12:53:30Z</time>
      </trkpt>
      <trkpt lat="46.27599" lon="6.46588">
        <ele>1104.69</ele>
        <time>2019-02-03T12:53:40Z</time>
      </trkpt>
      <trkpt lat="46.276" lon="6.46578">
        <ele>1104.69</ele>
        <time>2019-02-03T12:53:53Z</time>
      </trkpt>
      <trkpt lat="46.27601" lon="6.4657">
        <ele>1105.17</ele>
        <time>2019-02-03T12:54:06Z</time>
      </trkpt>
      <trkpt lat="46.27602" lon="6.46556">
        <ele>1105.65</ele>
        <time>2019-02-03T12:54:19Z</time>
      </trkpt>
      <trkpt lat="46.276" lon="6.46547">
        <ele>1106.61</ele>
        <time>2019-02-03T12:54:31Z</time>
      </trkpt>
      <trkpt lat="46.27601" lon="6.46541">
        <ele>1106.13</ele>
        <time>2019-02-03T12:54:43Z</time>
      </trkpt>
      <trkpt lat="46.27599" lon="6.46533">
        <ele>1106.61</ele>
        <time>2019-02-03T12:55:00Z</time>
      </trkpt>
      <trkpt lat="46.27594" lon="6.46519">
        <ele>1107.1</ele>
        <time>2019-02-03T12:55:14Z</time>
      </trkpt>
      <trkpt lat="46.27593" lon="6.46511">
        <ele>1107.58</ele>
        <time>2019-02-03T12:55:27Z</time>
      </trkpt>
      <trkpt lat="46.27588" lon="6.46502">
        <ele>1108.06</ele>
        <time>2019-02-03T12:55:40Z</time>
      </trkpt>
      <trkpt lat="46.27586" lon="6.46496">
        <ele>1108.54</ele>
        <time>2019-02-03T12:55:51Z</time>
      </trkpt>
      <trkpt lat="46.27584" lon="6.46486">
        <ele>1108.54</ele>
        <time>2019-02-03T12:56:05Z</time>
      </trkpt>
      <trkpt lat="46.27584" lon="6.46484">
        <ele>1108.54</ele>
        <time>2019-02-03T12:56:21Z</time>
      </trkpt>
      <trkpt lat="46.27584" lon="6.46485">
        <ele>1107.58</ele>
        <time>2019-02-03T12:56:55Z</time>
      </trkpt>
      <trkpt lat="46.27585" lon="6.46486">
        <ele>1109.98</ele>
        <time>2019-02-03T13:01:39Z</time>
      </trkpt>
      <trkpt lat="46.27585" lon="6.46486">
        <ele>1109.98</ele>
        <time>2019-02-03T13:01:59Z</time>
      </trkpt>
      <trkpt lat="46.27585" lon="6.46483">
        <ele>1110.94</ele>
        <time>2019-02-03T13:03:34Z</time>
      </trkpt>
      <trkpt lat="46.27584" lon="6.46484">
        <ele>1110.94</ele>
        <time>2019-02-03T13:05:29Z</time>
      </trkpt>
      <trkpt lat="46.27584" lon="6.46484">
        <ele>1111.42</ele>
        <time>2019-02-03T13:06:28Z</time>
      </trkpt>
      <trkpt lat="46.27584" lon="6.46483">
        <ele>1110.94</ele>
        <time>2019-02-03T13:07:33Z</time>
      </trkpt>
      <trkpt lat="46.27581" lon="6.46474">
        <ele>1110.46</ele>
        <time>2019-02-03T13:07:56Z</time>
      </trkpt>
      <trkpt lat="46.27579" lon="6.46458">
        <ele>1111.9</ele>
        <time>2019-02-03T13:08:09Z</time>
      </trkpt>
      <trkpt lat="46.27578" lon="6.46443">
        <ele>1111.9</ele>
        <time>2019-02-03T13:08:22Z</time>
      </trkpt>
      <trkpt lat="46.27578" lon="6.46431">
        <ele>1111.9</ele>
        <time>2019-02-03T13:08:32Z</time>
      </trkpt>
      <trkpt lat="46.27578" lon="6.46417">
        <ele>1112.86</ele>
        <time>2019-02-03T13:08:45Z</time>
      </trkpt>
      <trkpt lat="46.2758" lon="6.46406">
        <ele>1112.86</ele>
        <time>2019-02-03T13:08:57Z</time>
      </trkpt>
      <trkpt lat="46.27583" lon="6.46397">
        <ele>1112.38</ele>
        <time>2019-02-03T13:09:10Z</time>
      </trkpt>
      <trkpt lat="46.27585" lon="6.46391">
        <ele>1111.9</ele>
        <time>2019-02-03T13:09:21Z</time>
      </trkpt>
      <trkpt lat="46.27587" lon="6.46381">
        <ele>1112.38</ele>
        <time>2019-02-03T13:09:34Z</time>
      </trkpt>
      <trkpt lat="46.27588" lon="6.46371">
        <ele>1113.34</ele>
        <time>2019-02-03T13:09:47Z</time>
      </trkpt>
      <trkpt lat="46.27593" lon="6.46363">
        <ele>1113.34</ele>
        <time>2019-02-03T13:09:58Z</time>
      </trkpt>
      <trkpt lat="46.27595" lon="6.46354">
        <ele>1112.86</ele>
        <time>2019-02-03T13:10:09Z</time>
      </trkpt>
      <trkpt lat="46.27597" lon="6.46342">
        <ele>1112.86</ele>
        <time>2019-02-03T13:10:22Z</time>
      </trkpt>
      <trkpt lat="46.276" lon="6.46334">
        <ele>1112.86</ele>
        <time>2019-02-03T13:10:33Z</time>
      </trkpt>
      <trkpt lat="46.27602" lon="6.46325">
        <ele>1113.34</ele>
        <time>2019-02-03T13:10:44Z</time>
      </trkpt>
      <trkpt lat="46.27605" lon="6.46319">
        <ele>1112.86</ele>
        <time>2019-02-03T13:10:53Z</time>
      </trkpt>
      <trkpt lat="46.27608" lon="6.46312">
        <ele>1112.86</ele>
        <time>2019-02-03T13:11:05Z</time>
      </trkpt>
      <trkpt lat="46.27609" lon="6.46304">
        <ele>1113.34</ele>
        <time>2019-02-03T13:11:17Z</time>
      </trkpt>
      <trkpt lat="46.27608" lon="6.46299">
        <ele>1112.86</ele>
        <time>2019-02-03T13:11:29Z</time>
      </trkpt>
      <trkpt lat="46.27611" lon="6.4629">
        <ele>1113.82</ele>
        <time>2019-02-03T13:11:40Z</time>
      </trkpt>
      <trkpt lat="46.27617" lon="6.46287">
        <ele>1113.34</ele>
        <time>2019-02-03T13:11:53Z</time>
      </trkpt>
      <trkpt lat="46.27622" lon="6.46287">
        <ele>1113.82</ele>
        <time>2019-02-03T13:12:03Z</time>
      </trkpt>
      <trkpt lat="46.27625" lon="6.46287">
        <ele>1113.82</ele>
        <time>2019-02-03T13:12:22Z</time>
      </trkpt>
      <trkpt lat="46.27631" lon="6.46285">
        <ele>1113.82</ele>
        <time>2019-02-03T13:12:35Z</time>
      </trkpt>
      <trkpt lat="46.27634" lon="6.46284">
        <ele>1114.79</ele>
        <time>2019-02-03T13:12:40Z</time>
      </trkpt>
      <trkpt lat="46.2764" lon="6.46283">
        <ele>1113.82</ele>
        <time>2019-02-03T13:12:49Z</time>
      </trkpt>
      <trkpt lat="46.27648" lon="6.46278">
        <ele>1115.27</ele>
        <time>2019-02-03T13:13:02Z</time>
      </trkpt>
      <trkpt lat="46.2766" lon="6.46281">
        <ele>1114.79</ele>
        <time>2019-02-03T13:13:15Z</time>
      </trkpt>
      <trkpt lat="46.2767" lon="6.46283">
        <ele>1114.79</ele>
        <time>2019-02-03T13:13:27Z</time>
      </trkpt>
      <trkpt lat="46.27679" lon="6.46285">
        <ele>1115.27</ele>
        <time>2019-02-03T13:13:39Z</time>
      </trkpt>
      <trkpt lat="46.27687" lon="6.46289">
        <ele>1116.23</ele>
        <time>2019-02-03T13:13:50Z</time>
      </trkpt>
      <trkpt lat="46.27692" lon="6.46292">
        <ele>1116.23</ele>
        <time>2019-02-03T13:14:02Z</time>
      </trkpt>
      <trkpt lat="46.27701" lon="6.46295">
        <ele>1116.71</ele>
        <time>2019-02-03T13:14:14Z</time>
      </trkpt>
      <trkpt lat="46.27708" lon="6.46299">
        <ele>1116.23</ele>
        <time>2019-02-03T13:14:27Z</time>
      </trkpt>
      <trkpt lat="46.27716" lon="6.46304">
        <ele>1117.67</ele>
        <time>2019-02-03T13:14:42Z</time>
      </trkpt>
      <trkpt lat="46.27725" lon="6.46308">
        <ele>1118.15</ele>
        <time>2019-02-03T13:14:53Z</time>
      </trkpt>
      <trkpt lat="46.27731" lon="6.46313">
        <ele>1119.11</ele>
        <time>2019-02-03T13:15:06Z</time>
      </trkpt>
      <trkpt lat="46.27733" lon="6.46316">
        <ele>1119.11</ele>
        <time>2019-02-03T13:15:43Z</time>
      </trkpt>
      <trkpt lat="46.27737" lon="6.4632">
        <ele>1121.03</ele>
        <time>2019-02-03T13:16:01Z</time>
      </trkpt>
      <trkpt lat="46.27745" lon="6.46326">
        <ele>1122.96</ele>
        <time>2019-02-03T13:16:13Z</time>
      </trkpt>
      <trkpt lat="46.27746" lon="6.46326">
        <ele>1122.96</ele>
        <time>2019-02-03T13:16:14Z</time>
      </trkpt>
      <trkpt lat="46.2775" lon="6.46329">
        <ele>1122.48</ele>
        <time>2019-02-03T13:16:19Z</time>
      </trkpt>
      <trkpt lat="46.27758" lon="6.46337">
        <ele>1122.48</ele>
        <time>2019-02-03T13:16:31Z</time>
      </trkpt>
      <trkpt lat="46.27764" lon="6.46341">
        <ele>1123.44</ele>
        <time>2019-02-03T13:16:43Z</time>
      </trkpt>
      <trkpt lat="46.27768" lon="6.46343">
        <ele>1124.4</ele>
        <time>2019-02-03T13:16:55Z</time>
      </trkpt>
      <trkpt lat="46.27774" lon="6.46345">
        <ele>1123.92</ele>
        <time>2019-02-03T13:17:07Z</time>
      </trkpt>
      <trkpt lat="46.27781" lon="6.46347">
        <ele>1125.36</ele>
        <time>2019-02-03T13:17:19Z</time>
      </trkpt>
      <trkpt lat="46.27785" lon="6.46348">
        <ele>1126.32</ele>
        <time>2019-02-03T13:17:30Z</time>
      </trkpt>
      <trkpt lat="46.27789" lon="6.4635">
        <ele>1127.76</ele>
        <time>2019-02-03T13:17:42Z</time>
      </trkpt>
      <trkpt lat="46.27795" lon="6.46351">
        <ele>1129.21</ele>
        <time>2019-02-03T13:17:57Z</time>
      </trkpt>
      <trkpt lat="46.278" lon="6.46351">
        <ele>1128.73</ele>
        <time>2019-02-03T13:18:10Z</time>
      </trkpt>
      <trkpt lat="46.27804" lon="6.46348">
        <ele>1129.21</ele>
        <time>2019-02-03T13:18:22Z</time>
      </trkpt>
      <trkpt lat="46.27809" lon="6.4634">
        <ele>1128.73</ele>
        <time>2019-02-03T13:18:33Z</time>
      </trkpt>
      <trkpt lat="46.27814" lon="6.46332">
        <ele>1128.24</ele>
        <time>2019-02-03T13:18:45Z</time>
      </trkpt>
      <trkpt lat="46.2782" lon="6.46327">
        <ele>1129.69</ele>
        <time>2019-02-03T13:18:57Z</time>
      </trkpt>
      <trkpt lat="46.27825" lon="6.46326">
        <ele>1128.24</ele>
        <time>2019-02-03T13:19:10Z</time>
      </trkpt>
      <trkpt lat="46.2783" lon="6.46326">
        <ele>1128.73</ele>
        <time>2019-02-03T13:19:23Z</time>
      </trkpt>
      <trkpt lat="46.27834" lon="6.46326">
        <ele>1129.21</ele>
        <time>2019-02-03T13:19:29Z</time>
      </trkpt>
      <trkpt lat="46.27842" lon="6.46326">
        <ele>1129.69</ele>
        <time>2019-02-03T13:19:43Z</time>
      </trkpt>
      <trkpt lat="46.27847" lon="6.46325">
        <ele>1129.69</ele>
        <time>2019-02-03T13:19:54Z</time>
      </trkpt>
      <trkpt lat="46.27854" lon="6.46326">
        <ele>1130.17</ele>
        <time>2019-02-03T13:20:06Z</time>
      </trkpt>
      <trkpt lat="46.27861" lon="6.46329">
        <ele>1131.61</ele>
        <time>2019-02-03T13:20:19Z</time>
      </trkpt>
      <trkpt lat="46.27867" lon="6.4633">
        <ele>1131.13</ele>
        <time>2019-02-03T13:20:30Z</time>
      </trkpt>
      <trkpt lat="46.27873" lon="6.46331">
        <ele>1132.57</ele>
        <time>2019-02-03T13:20:39Z</time>
      </trkpt>
      <trkpt lat="46.2788" lon="6.46336">
        <ele>1133.05</ele>
        <time>2019-02-03T13:20:51Z</time>
      </trkpt>
      <trkpt lat="46.27888" lon="6.4634">
        <ele>1131.61</ele>
        <time>2019-02-03T13:21:04Z</time>
      </trkpt>
      <trkpt lat="46.27894" lon="6.46342">
        <ele>1132.57</ele>
        <time>2019-02-03T13:21:18Z</time>
      </trkpt>
      <trkpt lat="46.27901" lon="6.46343">
        <ele>1132.57</ele>
        <time>2019-02-03T13:21:30Z</time>
      </trkpt>
      <trkpt lat="46.27906" lon="6.46343">
        <ele>1132.57</ele>
        <time>2019-02-03T13:21:41Z</time>
      </trkpt>
      <trkpt lat="46.27912" lon="6.46343">
        <ele>1132.09</ele>
        <time>2019-02-03T13:21:58Z</time>
      </trkpt>
      <trkpt lat="46.27914" lon="6.46344">
        <ele>1133.05</ele>
        <time>2019-02-03T13:22:12Z</time>
      </trkpt>
      <trkpt lat="46.27915" lon="6.46345">
        <ele>1133.05</ele>
        <time>2019-02-03T13:22:41Z</time>
      </trkpt>
      <trkpt lat="46.27915" lon="6.46345">
        <ele>1133.53</ele>
        <time>2019-02-03T13:22:57Z</time>
      </trkpt>
      <trkpt lat="46.27915" lon="6.46345">
        <ele>1133.53</ele>
        <time>2019-02-03T13:23:10Z</time>
      </trkpt>
      <trkpt lat="46.27915" lon="6.46345">
        <ele>1131.61</ele>
        <time>2019-02-03T13:23:22Z</time>
      </trkpt>
      <trkpt lat="46.27915" lon="6.46345">
        <ele>1133.53</ele>
        <time>2019-02-03T13:23:33Z</time>
      </trkpt>
      <trkpt lat="46.27916" lon="6.46342">
        <ele>1134.97</ele>
        <time>2019-02-03T13:23:48Z</time>
      </trkpt>
      <trkpt lat="46.27916" lon="6.46339">
        <ele>1135.94</ele>
        <time>2019-02-03T13:24:05Z</time>
      </trkpt>
      <trkpt lat="46.2792" lon="6.46333">
        <ele>1136.9</ele>
        <time>2019-02-03T13:24:19Z</time>
      </trkpt>
      <trkpt lat="46.2792" lon="6.46323">
        <ele>1137.86</ele>
        <time>2019-02-03T13:24:30Z</time>
      </trkpt>
      <trkpt lat="46.27921" lon="6.46317">
        <ele>1139.3</ele>
        <time>2019-02-03T13:24:36Z</time>
      </trkpt>
      <trkpt lat="46.27921" lon="6.46314">
        <ele>1139.3</ele>
        <time>2019-02-03T13:24:59Z</time>
      </trkpt>
      <trkpt lat="46.27919" lon="6.46309">
        <ele>1140.74</ele>
        <time>2019-02-03T13:25:12Z</time>
      </trkpt>
      <trkpt lat="46.27917" lon="6.46302">
        <ele>1141.22</ele>
        <time>2019-02-03T13:25:22Z</time>
      </trkpt>
      <trkpt lat="46.27916" lon="6.46299">
        <ele>1142.66</ele>
        <time>2019-02-03T13:25:33Z</time>
      </trkpt>
      <trkpt lat="46.27916" lon="6.46299">
        <ele>1143.63</ele>
        <time>2019-02-03T13:25:48Z</time>
      </trkpt>
      <trkpt lat="46.27916" lon="6.46299">
        <ele>1144.11</ele>
        <time>2019-02-03T13:26:03Z</time>
      </trkpt>
      <trkpt lat="46.27916" lon="6.46298">
        <ele>1144.11</ele>
        <time>2019-02-03T13:26:19Z</time>
      </trkpt>
      <trkpt lat="46.27916" lon="6.46298">
        <ele>1144.11</ele>
        <time>2019-02-03T13:26:29Z</time>
      </trkpt>
      <trkpt lat="46.27918" lon="6.46291">
        <ele>1146.51</ele>
        <time>2019-02-03T13:26:42Z</time>
      </trkpt>
      <trkpt lat="46.27918" lon="6.46275">
        <ele>1147.95</ele>
        <time>2019-02-03T13:26:54Z</time>
      </trkpt>
      <trkpt lat="46.27918" lon="6.46267">
        <ele>1148.43</ele>
        <time>2019-02-03T13:27:14Z</time>
      </trkpt>
      <trkpt lat="46.27921" lon="6.46251">
        <ele>1149.87</ele>
        <time>2019-02-03T13:27:27Z</time>
      </trkpt>
      <trkpt lat="46.27923" lon="6.46243">
        <ele>1149.87</ele>
        <time>2019-02-03T13:27:39Z</time>
      </trkpt>
      <trkpt lat="46.27923" lon="6.46238">
        <ele>1150.35</ele>
        <time>2019-02-03T13:27:50Z</time>
      </trkpt>
      <trkpt lat="46.27922" lon="6.46232">
        <ele>1151.8</ele>
        <time>2019-02-03T13:28:06Z</time>
      </trkpt>
      <trkpt lat="46.27923" lon="6.46232">
        <ele>1152.28</ele>
        <time>2019-02-03T13:28:34Z</time>
      </trkpt>
      <trkpt lat="46.27924" lon="6.46228">
        <ele>1151.8</ele>
        <time>2019-02-03T13:29:01Z</time>
      </trkpt>
      <trkpt lat="46.27924" lon="6.46225">
        <ele>1152.76</ele>
        <time>2019-02-03T13:29:25Z</time>
      </trkpt>
      <trkpt lat="46.27926" lon="6.46216">
        <ele>1152.76</ele>
        <time>2019-02-03T13:29:43Z</time>
      </trkpt>
      <trkpt lat="46.27927" lon="6.46213">
        <ele>1151.8</ele>
        <time>2019-02-03T13:30:01Z</time>
      </trkpt>
      <trkpt lat="46.27928" lon="6.46208">
        <ele>1153.24</ele>
        <time>2019-02-03T13:30:28Z</time>
      </trkpt>
      <trkpt lat="46.27934" lon="6.46201">
        <ele>1154.68</ele>
        <time>2019-02-03T13:30:43Z</time>
      </trkpt>
      <trkpt lat="46.27935" lon="6.46192">
        <ele>1154.2</ele>
        <time>2019-02-03T13:30:52Z</time>
      </trkpt>
      <trkpt lat="46.27935" lon="6.46189">
        <ele>1154.2</ele>
        <time>2019-02-03T13:30:56Z</time>
      </trkpt>
      <trkpt lat="46.27936" lon="6.46179">
        <ele>1156.12</ele>
        <time>2019-02-03T13:31:07Z</time>
      </trkpt>
      <trkpt lat="46.27935" lon="6.46179">
        <ele>1155.64</ele>
        <time>2019-02-03T13:32:23Z</time>
      </trkpt>
      <trkpt lat="46.27935" lon="6.46178">
        <ele>1157.56</ele>
        <time>2019-02-03T13:34:50Z</time>
      </trkpt>
      <trkpt lat="46.2794" lon="6.46171">
        <ele>1156.6</ele>
        <time>2019-02-03T13:35:16Z</time>
      </trkpt>
      <trkpt lat="46.27938" lon="6.46171">
        <ele>1156.12</ele>
        <time>2019-02-03T13:35:23Z</time>
      </trkpt>
      <trkpt lat="46.27932" lon="6.4617">
        <ele>1156.6</ele>
        <time>2019-02-03T13:35:35Z</time>
      </trkpt>
      <trkpt lat="46.27929" lon="6.46168">
        <ele>1158.05</ele>
        <time>2019-02-03T13:35:48Z</time>
      </trkpt>
      <trkpt lat="46.27924" lon="6.46165">
        <ele>1159.49</ele>
        <time>2019-02-03T13:35:59Z</time>
      </trkpt>
      <trkpt lat="46.27917" lon="6.46167">
        <ele>1159.49</ele>
        <time>2019-02-03T13:36:11Z</time>
      </trkpt>
      <trkpt lat="46.27911" lon="6.46166">
        <ele>1161.41</ele>
        <time>2019-02-03T13:36:23Z</time>
      </trkpt>
      <trkpt lat="46.27906" lon="6.46166">
        <ele>1159.97</ele>
        <time>2019-02-03T13:36:34Z</time>
      </trkpt>
      <trkpt lat="46.27901" lon="6.46161">
        <ele>1162.37</ele>
        <time>2019-02-03T13:36:45Z</time>
      </trkpt>
      <trkpt lat="46.27896" lon="6.46159">
        <ele>1162.37</ele>
        <time>2019-02-03T13:36:54Z</time>
      </trkpt>
      <trkpt lat="46.27894" lon="6.46158">
        <ele>1163.33</ele>
        <time>2019-02-03T13:37:05Z</time>
      </trkpt>
      <trkpt lat="46.27893" lon="6.46159">
        <ele>1164.29</ele>
        <time>2019-02-03T13:37:18Z</time>
      </trkpt>
      <trkpt lat="46.27886" lon="6.46159">
        <ele>1163.81</ele>
        <time>2019-02-03T13:37:31Z</time>
      </trkpt>
      <trkpt lat="46.27883" lon="6.46158">
        <ele>1165.74</ele>
        <time>2019-02-03T13:37:44Z</time>
      </trkpt>
      <trkpt lat="46.27877" lon="6.46158">
        <ele>1166.22</ele>
        <time>2019-02-03T13:37:54Z</time>
      </trkpt>
      <trkpt lat="46.27872" lon="6.46155">
        <ele>1168.14</ele>
        <time>2019-02-03T13:38:03Z</time>
      </trkpt>
      <trkpt lat="46.27872" lon="6.46155">
        <ele>1168.14</ele>
        <time>2019-02-03T13:38:07Z</time>
      </trkpt>
      <trkpt lat="46.27872" lon="6.46155">
        <ele>1167.66</ele>
        <time>2019-02-03T13:38:22Z</time>
      </trkpt>
      <trkpt lat="46.27869" lon="6.46155">
        <ele>1166.22</ele>
        <time>2019-02-03T13:38:36Z</time>
      </trkpt>
      <trkpt lat="46.27857" lon="6.46152">
        <ele>1167.66</ele>
        <time>2019-02-03T13:38:48Z</time>
      </trkpt>
      <trkpt lat="46.27844" lon="6.46148">
        <ele>1167.66</ele>
        <time>2019-02-03T13:39:01Z</time>
      </trkpt>
      <trkpt lat="46.27832" lon="6.46148">
        <ele>1165.74</ele>
        <time>2019-02-03T13:39:14Z</time>
      </trkpt>
      <trkpt lat="46.27819" lon="6.46146">
        <ele>1165.74</ele>
        <time>2019-02-03T13:39:28Z</time>
      </trkpt>
      <trkpt lat="46.2781" lon="6.46146">
        <ele>1164.77</ele>
        <time>2019-02-03T13:39:41Z</time>
      </trkpt>
      <trkpt lat="46.2781" lon="6.46146">
        <ele>1163.81</ele>
        <time>2019-02-03T13:39:53Z</time>
      </trkpt>
      <trkpt lat="46.2781" lon="6.46146">
        <ele>1163.81</ele>
        <time>2019-02-03T13:40:12Z</time>
      </trkpt>
      <trkpt lat="46.27807" lon="6.46145">
        <ele>1164.29</ele>
        <time>2019-02-03T13:40:47Z</time>
      </trkpt>
      <trkpt lat="46.278" lon="6.46138">
        <ele>1163.81</ele>
        <time>2019-02-03T13:41:00Z</time>
      </trkpt>
      <trkpt lat="46.27795" lon="6.46136">
        <ele>1164.77</ele>
        <time>2019-02-03T13:41:07Z</time>
      </trkpt>
      <trkpt lat="46.27786" lon="6.46127">
        <ele>1164.29</ele>
        <time>2019-02-03T13:41:19Z</time>
      </trkpt>
      <trkpt lat="46.2778" lon="6.46122">
        <ele>1166.7</ele>
        <time>2019-02-03T13:41:28Z</time>
      </trkpt>
      <trkpt lat="46.27776" lon="6.4612">
        <ele>1164.77</ele>
        <time>2019-02-03T13:41:40Z</time>
      </trkpt>
      <trkpt lat="46.2777" lon="6.46113">
        <ele>1166.22</ele>
        <time>2019-02-03T13:41:51Z</time>
      </trkpt>
      <trkpt lat="46.27769" lon="6.4611">
        <ele>1166.22</ele>
        <time>2019-02-03T13:42:01Z</time>
      </trkpt>
      <trkpt lat="46.27765" lon="6.46105">
        <ele>1166.22</ele>
        <time>2019-02-03T13:42:12Z</time>
      </trkpt>
      <trkpt lat="46.27761" lon="6.46103">
        <ele>1167.18</ele>
        <time>2019-02-03T13:42:23Z</time>
      </trkpt>
      <trkpt lat="46.27754" lon="6.461">
        <ele>1166.22</ele>
        <time>2019-02-03T13:42:38Z</time>
      </trkpt>
      <trkpt lat="46.27748" lon="6.46101">
        <ele>1166.22</ele>
        <time>2019-02-03T13:42:50Z</time>
      </trkpt>
      <trkpt lat="46.27745" lon="6.46101">
        <ele>1165.26</ele>
        <time>2019-02-03T13:42:54Z</time>
      </trkpt>
      <trkpt lat="46.27736" lon="6.46099">
        <ele>1163.81</ele>
        <time>2019-02-03T13:43:07Z</time>
      </trkpt>
      <trkpt lat="46.27731" lon="6.46095">
        <ele>1164.29</ele>
        <time>2019-02-03T13:43:14Z</time>
      </trkpt>
      <trkpt lat="46.27722" lon="6.46095">
        <ele>1163.33</ele>
        <time>2019-02-03T13:43:27Z</time>
      </trkpt>
      <trkpt lat="46.27716" lon="6.4609">
        <ele>1162.85</ele>
        <time>2019-02-03T13:43:41Z</time>
      </trkpt>
      <trkpt lat="46.27711" lon="6.46087">
        <ele>1162.85</ele>
        <time>2019-02-03T13:43:53Z</time>
      </trkpt>
      <trkpt lat="46.27703" lon="6.46085">
        <ele>1162.85</ele>
        <time>2019-02-03T13:44:05Z</time>
      </trkpt>
      <trkpt lat="46.27703" lon="6.46085">
        <ele>1163.33</ele>
        <time>2019-02-03T13:44:18Z</time>
      </trkpt>
      <trkpt lat="46.27703" lon="6.46085">
        <ele>1163.81</ele>
        <time>2019-02-03T13:44:27Z</time>
      </trkpt>
      <trkpt lat="46.27698" lon="6.46079">
        <ele>1163.33</ele>
        <time>2019-02-03T13:44:37Z</time>
      </trkpt>
      <trkpt lat="46.27695" lon="6.46078">
        <ele>1163.33</ele>
        <time>2019-02-03T13:44:50Z</time>
      </trkpt>
      <trkpt lat="46.27686" lon="6.46073">
        <ele>1162.85</ele>
        <time>2019-02-03T13:45:02Z</time>
      </trkpt>
      <trkpt lat="46.27683" lon="6.46072">
        <ele>1161.89</ele>
        <time>2019-02-03T13:45:16Z</time>
      </trkpt>
      <trkpt lat="46.27681" lon="6.4607">
        <ele>1163.33</ele>
        <time>2019-02-03T13:45:27Z</time>
      </trkpt>
      <trkpt lat="46.27677" lon="6.46069">
        <ele>1162.37</ele>
        <time>2019-02-03T13:45:40Z</time>
      </trkpt>
      <trkpt lat="46.27665" lon="6.46067">
        <ele>1160.93</ele>
        <time>2019-02-03T13:45:54Z</time>
      </trkpt>
      <trkpt lat="46.27658" lon="6.46066">
        <ele>1162.37</ele>
        <time>2019-02-03T13:46:08Z</time>
      </trkpt>
      <trkpt lat="46.27648" lon="6.46065">
        <ele>1162.37</ele>
        <time>2019-02-03T13:46:23Z</time>
      </trkpt>
      <trkpt lat="46.27633" lon="6.46061">
        <ele>1163.33</ele>
        <time>2019-02-03T13:46:36Z</time>
      </trkpt>
      <trkpt lat="46.27626" lon="6.46058">
        <ele>1163.81</ele>
        <time>2019-02-03T13:46:47Z</time>
      </trkpt>
      <trkpt lat="46.27617" lon="6.46052">
        <ele>1162.37</ele>
        <time>2019-02-03T13:47:03Z</time>
      </trkpt>
      <trkpt lat="46.27608" lon="6.46048">
        <ele>1161.41</ele>
        <time>2019-02-03T13:47:16Z</time>
      </trkpt>
      <trkpt lat="46.27599" lon="6.46044">
        <ele>1161.41</ele>
        <time>2019-02-03T13:47:28Z</time>
      </trkpt>
      <trkpt lat="46.27596" lon="6.46037">
        <ele>1160.45</ele>
        <time>2019-02-03T13:47:44Z</time>
      </trkpt>
      <trkpt lat="46.2759" lon="6.46028">
        <ele>1161.89</ele>
        <time>2019-02-03T13:47:57Z</time>
      </trkpt>
      <trkpt lat="46.27582" lon="6.46019">
        <ele>1161.41</ele>
        <time>2019-02-03T13:48:10Z</time>
      </trkpt>
      <trkpt lat="46.27579" lon="6.4601">
        <ele>1163.33</ele>
        <time>2019-02-03T13:48:26Z</time>
      </trkpt>
      <trkpt lat="46.27572" lon="6.46005">
        <ele>1162.85</ele>
        <time>2019-02-03T13:48:38Z</time>
      </trkpt>
      <trkpt lat="46.27564" lon="6.45998">
        <ele>1162.85</ele>
        <time>2019-02-03T13:48:51Z</time>
      </trkpt>
      <trkpt lat="46.27557" lon="6.45991">
        <ele>1163.81</ele>
        <time>2019-02-03T13:49:04Z</time>
      </trkpt>
      <trkpt lat="46.27552" lon="6.45983">
        <ele>1164.77</ele>
        <time>2019-02-03T13:49:17Z</time>
      </trkpt>
      <trkpt lat="46.27547" lon="6.45978">
        <ele>1165.26</ele>
        <time>2019-02-03T13:49:28Z</time>
      </trkpt>
      <trkpt lat="46.27541" lon="6.45975">
        <ele>1166.22</ele>
        <time>2019-02-03T13:49:40Z</time>
      </trkpt>
      <trkpt lat="46.27536" lon="6.4597">
        <ele>1165.74</ele>
        <time>2019-02-03T13:49:52Z</time>
      </trkpt>
      <trkpt lat="46.2753" lon="6.45966">
        <ele>1167.66</ele>
        <time>2019-02-03T13:50:06Z</time>
      </trkpt>
      <trkpt lat="46.27526" lon="6.45964">
        <ele>1168.14</ele>
        <time>2019-02-03T13:50:18Z</time>
      </trkpt>
      <trkpt lat="46.27518" lon="6.45963">
        <ele>1169.58</ele>
        <time>2019-02-03T13:50:30Z</time>
      </trkpt>
      <trkpt lat="46.2751" lon="6.45958">
        <ele>1170.54</ele>
        <time>2019-02-03T13:50:42Z</time>
      </trkpt>
      <trkpt lat="46.27504" lon="6.45953">
        <ele>1171.5</ele>
        <time>2019-02-03T13:50:55Z</time>
      </trkpt>
      <trkpt lat="46.275" lon="6.45946">
        <ele>1171.02</ele>
        <time>2019-02-03T13:51:06Z</time>
      </trkpt>
      <trkpt lat="46.27494" lon="6.45937">
        <ele>1172.47</ele>
        <time>2019-02-03T13:51:25Z</time>
      </trkpt>
      <trkpt lat="46.27488" lon="6.45932">
        <ele>1171.98</ele>
        <time>2019-02-03T13:51:36Z</time>
      </trkpt>
      <trkpt lat="46.27475" lon="6.45922">
        <ele>1171.98</ele>
        <time>2019-02-03T13:51:50Z</time>
      </trkpt>
      <trkpt lat="46.27467" lon="6.45913">
        <ele>1172.47</ele>
        <time>2019-02-03T13:52:03Z</time>
      </trkpt>
      <trkpt lat="46.27459" lon="6.45908">
        <ele>1172.47</ele>
        <time>2019-02-03T13:52:16Z</time>
      </trkpt>
      <trkpt lat="46.27453" lon="6.45901">
        <ele>1173.43</ele>
        <time>2019-02-03T13:52:31Z</time>
      </trkpt>
      <trkpt lat="46.27449" lon="6.45896">
        <ele>1174.39</ele>
        <time>2019-02-03T13:52:42Z</time>
      </trkpt>
      <trkpt lat="46.27445" lon="6.45891">
        <ele>1174.87</ele>
        <time>2019-02-03T13:52:54Z</time>
      </trkpt>
      <trkpt lat="46.2744" lon="6.45887">
        <ele>1173.91</ele>
        <time>2019-02-03T13:53:07Z</time>
      </trkpt>
      <trkpt lat="46.27435" lon="6.45882">
        <ele>1175.83</ele>
        <time>2019-02-03T13:53:21Z</time>
      </trkpt>
      <trkpt lat="46.27431" lon="6.45877">
        <ele>1176.31</ele>
        <time>2019-02-03T13:53:33Z</time>
      </trkpt>
      <trkpt lat="46.27428" lon="6.45871">
        <ele>1177.27</ele>
        <time>2019-02-03T13:53:47Z</time>
      </trkpt>
      <trkpt lat="46.27423" lon="6.45866">
        <ele>1177.75</ele>
        <time>2019-02-03T13:54:00Z</time>
      </trkpt>
      <trkpt lat="46.27413" lon="6.45857">
        <ele>1176.79</ele>
        <time>2019-02-03T13:54:11Z</time>
      </trkpt>
      <trkpt lat="46.2741" lon="6.45857">
        <ele>1176.79</ele>
        <time>2019-02-03T13:54:22Z</time>
      </trkpt>
      <trkpt lat="46.27401" lon="6.45856">
        <ele>1178.23</ele>
        <time>2019-02-03T13:54:31Z</time>
      </trkpt>
      <trkpt lat="46.27399" lon="6.45856">
        <ele>1178.23</ele>
        <time>2019-02-03T13:54:48Z</time>
      </trkpt>
      <trkpt lat="46.27395" lon="6.45853">
        <ele>1178.71</ele>
        <time>2019-02-03T13:54:57Z</time>
      </trkpt>
      <trkpt lat="46.27395" lon="6.45848">
        <ele>1179.19</ele>
        <time>2019-02-03T13:55:13Z</time>
      </trkpt>
      <trkpt lat="46.27395" lon="6.45847">
        <ele>1179.67</ele>
        <time>2019-02-03T13:56:09Z</time>
      </trkpt>
      <trkpt lat="46.27394" lon="6.45844">
        <ele>1179.67</ele>
        <time>2019-02-03T13:57:32Z</time>
      </trkpt>
      <trkpt lat="46.27394" lon="6.45843">
        <ele>1179.67</ele>
        <time>2019-02-03T13:58:19Z</time>
      </trkpt>
      <trkpt lat="46.27394" lon="6.45842">
        <ele>1180.64</ele>
        <time>2019-02-03T13:59:17Z</time>
      </trkpt>
      <trkpt lat="46.27389" lon="6.4584">
        <ele>1180.16</ele>
        <time>2019-02-03T14:00:27Z</time>
      </trkpt>
      <trkpt lat="46.27383" lon="6.45833">
        <ele>1180.64</ele>
        <time>2019-02-03T14:00:39Z</time>
      </trkpt>
      <trkpt lat="46.27375" lon="6.45827">
        <ele>1180.64</ele>
        <time>2019-02-03T14:00:50Z</time>
      </trkpt>
      <trkpt lat="46.27367" lon="6.45817">
        <ele>1182.56</ele>
        <time>2019-02-03T14:01:03Z</time>
      </trkpt>
      <trkpt lat="46.2736" lon="6.45811">
        <ele>1183.52</ele>
        <time>2019-02-03T14:01:15Z</time>
      </trkpt>
      <trkpt lat="46.27354" lon="6.45803">
        <ele>1184.96</ele>
        <time>2019-02-03T14:01:31Z</time>
      </trkpt>
      <trkpt lat="46.27351" lon="6.45797">
        <ele>1185.44</ele>
        <time>2019-02-03T14:01:45Z</time>
      </trkpt>
      <trkpt lat="46.2734" lon="6.45786">
        <ele>1187.37</ele>
        <time>2019-02-03T14:01:59Z</time>
      </trkpt>
      <trkpt lat="46.27337" lon="6.45782">
        <ele>1186.88</ele>
        <time>2019-02-03T14:02:03Z</time>
      </trkpt>
      <trkpt lat="46.2733" lon="6.45777">
        <ele>1187.37</ele>
        <time>2019-02-03T14:02:13Z</time>
      </trkpt>
      <trkpt lat="46.27325" lon="6.45775">
        <ele>1186.88</ele>
        <time>2019-02-03T14:02:29Z</time>
      </trkpt>
      <trkpt lat="46.2732" lon="6.45768">
        <ele>1185.44</ele>
        <time>2019-02-03T14:02:41Z</time>
      </trkpt>
      <trkpt lat="46.27321" lon="6.45763">
        <ele>1185.44</ele>
        <time>2019-02-03T14:02:52Z</time>
      </trkpt>
      <trkpt lat="46.2732" lon="6.4575">
        <ele>1186.88</ele>
        <time>2019-02-03T14:03:05Z</time>
      </trkpt>
      <trkpt lat="46.27321" lon="6.45743">
        <ele>1187.37</ele>
        <time>2019-02-03T14:03:19Z</time>
      </trkpt>
      <trkpt lat="46.27316" lon="6.45736">
        <ele>1188.81</ele>
        <time>2019-02-03T14:03:33Z</time>
      </trkpt>
      <trkpt lat="46.27308" lon="6.45732">
        <ele>1190.25</ele>
        <time>2019-02-03T14:03:46Z</time>
      </trkpt>
      <trkpt lat="46.27303" lon="6.45728">
        <ele>1191.21</ele>
        <time>2019-02-03T14:03:57Z</time>
      </trkpt>
      <trkpt lat="46.27293" lon="6.45724">
        <ele>1191.21</ele>
        <time>2019-02-03T14:04:11Z</time>
      </trkpt>
      <trkpt lat="46.27286" lon="6.45721">
        <ele>1191.21</ele>
        <time>2019-02-03T14:04:23Z</time>
      </trkpt>
      <trkpt lat="46.27278" lon="6.45719">
        <ele>1191.21</ele>
        <time>2019-02-03T14:04:36Z</time>
      </trkpt>
      <trkpt lat="46.2727" lon="6.45717">
        <ele>1191.69</ele>
        <time>2019-02-03T14:04:51Z</time>
      </trkpt>
      <trkpt lat="46.27264" lon="6.45715">
        <ele>1191.21</ele>
        <time>2019-02-03T14:05:03Z</time>
      </trkpt>
      <trkpt lat="46.27259" lon="6.45714">
        <ele>1192.65</ele>
        <time>2019-02-03T14:05:16Z</time>
      </trkpt>
      <trkpt lat="46.27252" lon="6.45712">
        <ele>1194.09</ele>
        <time>2019-02-03T14:05:41Z</time>
      </trkpt>
      <trkpt lat="46.2724" lon="6.45712">
        <ele>1195.06</ele>
        <time>2019-02-03T14:05:53Z</time>
      </trkpt>
      <trkpt lat="46.27236" lon="6.4571">
        <ele>1195.06</ele>
        <time>2019-02-03T14:06:10Z</time>
      </trkpt>
      <trkpt lat="46.27231" lon="6.45706">
        <ele>1196.5</ele>
        <time>2019-02-03T14:06:19Z</time>
      </trkpt>
      <trkpt lat="46.27226" lon="6.45699">
        <ele>1196.98</ele>
        <time>2019-02-03T14:06:31Z</time>
      </trkpt>
      <trkpt lat="46.27223" lon="6.45694">
        <ele>1198.9</ele>
        <time>2019-02-03T14:06:45Z</time>
      </trkpt>
      <trkpt lat="46.27211" lon="6.45691">
        <ele>1199.86</ele>
        <time>2019-02-03T14:06:58Z</time>
      </trkpt>
      <trkpt lat="46.27205" lon="6.45688">
        <ele>1200.34</ele>
        <time>2019-02-03T14:07:09Z</time>
      </trkpt>
      <trkpt lat="46.272" lon="6.45685">
        <ele>1200.34</ele>
        <time>2019-02-03T14:07:21Z</time>
      </trkpt>
      <trkpt lat="46.27192" lon="6.45684">
        <ele>1201.79</ele>
        <time>2019-02-03T14:07:34Z</time>
      </trkpt>
      <trkpt lat="46.27184" lon="6.45682">
        <ele>1202.75</ele>
        <time>2019-02-03T14:07:45Z</time>
      </trkpt>
      <trkpt lat="46.2718" lon="6.4568">
        <ele>1203.71</ele>
        <time>2019-02-03T14:08:01Z</time>
      </trkpt>
      <trkpt lat="46.27169" lon="6.45675">
        <ele>1204.19</ele>
        <time>2019-02-03T14:08:13Z</time>
      </trkpt>
      <trkpt lat="46.2716" lon="6.45676">
        <ele>1204.19</ele>
        <time>2019-02-03T14:08:26Z</time>
      </trkpt>
      <trkpt lat="46.27147" lon="6.45674">
        <ele>1202.75</ele>
        <time>2019-02-03T14:08:38Z</time>
      </trkpt>
      <trkpt lat="46.2714" lon="6.4567">
        <ele>1205.15</ele>
        <time>2019-02-03T14:08:50Z</time>
      </trkpt>
      <trkpt lat="46.27137" lon="6.45667">
        <ele>1204.67</ele>
        <time>2019-02-03T14:09:03Z</time>
      </trkpt>
      <trkpt lat="46.27136" lon="6.45666">
        <ele>1204.67</ele>
        <time>2019-02-03T14:09:38Z</time>
      </trkpt>
      <trkpt lat="46.27127" lon="6.45665">
        <ele>1204.19</ele>
        <time>2019-02-03T14:09:49Z</time>
      </trkpt>
      <trkpt lat="46.27126" lon="6.45664">
        <ele>1203.71</ele>
        <time>2019-02-03T14:10:19Z</time>
      </trkpt>
      <trkpt lat="46.27126" lon="6.45663">
        <ele>1204.19</ele>
        <time>2019-02-03T14:11:12Z</time>
      </trkpt>
      <trkpt lat="46.27128" lon="6.45663">
        <ele>1203.71</ele>
        <time>2019-02-03T14:13:13Z</time>
      </trkpt>
      <trkpt lat="46.27128" lon="6.45662">
        <ele>1203.71</ele>
        <time>2019-02-03T14:13:14Z</time>
      </trkpt>
      <trkpt lat="46.27131" lon="6.45662">
        <ele>1204.67</ele>
        <time>2019-02-03T14:13:30Z</time>
      </trkpt>
      <trkpt lat="46.27127" lon="6.45664">
        <ele>1204.19</ele>
        <time>2019-02-03T14:13:44Z</time>
      </trkpt>
      <trkpt lat="46.27127" lon="6.45664">
        <ele>1203.71</ele>
        <time>2019-02-03T14:14:01Z</time>
      </trkpt>
      <trkpt lat="46.27122" lon="6.45664">
        <ele>1204.19</ele>
        <time>2019-02-03T14:14:42Z</time>
      </trkpt>
      <trkpt lat="46.2712" lon="6.45662">
        <ele>1204.19</ele>
        <time>2019-02-03T14:14:54Z</time>
      </trkpt>
      <trkpt lat="46.27113" lon="6.45662">
        <ele>1203.23</ele>
        <time>2019-02-03T14:15:16Z</time>
      </trkpt>
      <trkpt lat="46.27111" lon="6.4566">
        <ele>1203.71</ele>
        <time>2019-02-03T14:15:28Z</time>
      </trkpt>
      <trkpt lat="46.27115" lon="6.45661">
        <ele>1203.71</ele>
        <time>2019-02-03T14:16:02Z</time>
      </trkpt>
      <trkpt lat="46.27118" lon="6.4566">
        <ele>1203.71</ele>
        <time>2019-02-03T14:16:13Z</time>
      </trkpt>
      <trkpt lat="46.2712" lon="6.45661">
        <ele>1203.23</ele>
        <time>2019-02-03T14:16:42Z</time>
      </trkpt>
      <trkpt lat="46.2712" lon="6.45661">
        <ele>1203.71</ele>
        <time>2019-02-03T14:19:01Z</time>
      </trkpt>
      <trkpt lat="46.2712" lon="6.4566">
        <ele>1202.75</ele>
        <time>2019-02-03T14:20:09Z</time>
      </trkpt>
      <trkpt lat="46.27116" lon="6.45663">
        <ele>1203.23</ele>
        <time>2019-02-03T14:20:49Z</time>
      </trkpt>
      <trkpt lat="46.27109" lon="6.45662">
        <ele>1202.27</ele>
        <time>2019-02-03T14:21:01Z</time>
      </trkpt>
      <trkpt lat="46.27102" lon="6.45661">
        <ele>1202.27</ele>
        <time>2019-02-03T14:21:18Z</time>
      </trkpt>
      <trkpt lat="46.27097" lon="6.45661">
        <ele>1201.79</ele>
        <time>2019-02-03T14:21:31Z</time>
      </trkpt>
      <trkpt lat="46.27096" lon="6.45661">
        <ele>1201.3</ele>
        <time>2019-02-03T14:21:52Z</time>
      </trkpt>
      <trkpt lat="46.27096" lon="6.45661">
        <ele>1202.27</ele>
        <time>2019-02-03T14:22:56Z</time>
      </trkpt>
      <trkpt lat="46.27094" lon="6.45661">
        <ele>1202.75</ele>
        <time>2019-02-03T14:23:35Z</time>
      </trkpt>
      <trkpt lat="46.27087" lon="6.4566">
        <ele>1201.79</ele>
        <time>2019-02-03T14:23:46Z</time>
      </trkpt>
      <trkpt lat="46.27077" lon="6.45661">
        <ele>1199.86</ele>
        <time>2019-02-03T14:23:59Z</time>
      </trkpt>
      <trkpt lat="46.27072" lon="6.4566">
        <ele>1198.42</ele>
        <time>2019-02-03T14:24:06Z</time>
      </trkpt>
      <trkpt lat="46.2706" lon="6.45658">
        <ele>1197.46</ele>
        <time>2019-02-03T14:24:21Z</time>
      </trkpt>
      <trkpt lat="46.2705" lon="6.45652">
        <ele>1196.98</ele>
        <time>2019-02-03T14:24:34Z</time>
      </trkpt>
      <trkpt lat="46.27042" lon="6.45654">
        <ele>1195.54</ele>
        <time>2019-02-03T14:24:46Z</time>
      </trkpt>
      <trkpt lat="46.27038" lon="6.45656">
        <ele>1195.54</ele>
        <time>2019-02-03T14:25:00Z</time>
      </trkpt>
      <trkpt lat="46.27026" lon="6.45656">
        <ele>1194.09</ele>
        <time>2019-02-03T14:25:13Z</time>
      </trkpt>
      <trkpt lat="46.27017" lon="6.45654">
        <ele>1194.09</ele>
        <time>2019-02-03T14:25:26Z</time>
      </trkpt>
      <trkpt lat="46.27011" lon="6.45652">
        <ele>1194.09</ele>
        <time>2019-02-03T14:25:44Z</time>
      </trkpt>
      <trkpt lat="46.27011" lon="6.45652">
        <ele>1194.09</ele>
        <time>2019-02-03T14:26:17Z</time>
      </trkpt>
      <trkpt lat="46.2701" lon="6.45653">
        <ele>1193.61</ele>
        <time>2019-02-03T14:27:03Z</time>
      </trkpt>
      <trkpt lat="46.27009" lon="6.45654">
        <ele>1194.58</ele>
        <time>2019-02-03T14:27:38Z</time>
      </trkpt>
      <trkpt lat="46.27009" lon="6.45651">
        <ele>1194.58</ele>
        <time>2019-02-03T14:28:09Z</time>
      </trkpt>
      <trkpt lat="46.27004" lon="6.45656">
        <ele>1193.61</ele>
        <time>2019-02-03T14:29:04Z</time>
      </trkpt>
      <trkpt lat="46.26998" lon="6.45656">
        <ele>1193.61</ele>
        <time>2019-02-03T14:29:15Z</time>
      </trkpt>
      <trkpt lat="46.26994" lon="6.45657">
        <ele>1194.09</ele>
        <time>2019-02-03T14:29:27Z</time>
      </trkpt>
      <trkpt lat="46.26985" lon="6.45653">
        <ele>1194.58</ele>
        <time>2019-02-03T14:29:40Z</time>
      </trkpt>
      <trkpt lat="46.26979" lon="6.45654">
        <ele>1194.58</ele>
        <time>2019-02-03T14:29:51Z</time>
      </trkpt>
      <trkpt lat="46.26975" lon="6.45651">
        <ele>1196.02</ele>
        <time>2019-02-03T14:30:02Z</time>
      </trkpt>
      <trkpt lat="46.26967" lon="6.45649">
        <ele>1196.02</ele>
        <time>2019-02-03T14:30:17Z</time>
      </trkpt>
      <trkpt lat="46.2696" lon="6.45646">
        <ele>1196.98</ele>
        <time>2019-02-03T14:30:31Z</time>
      </trkpt>
      <trkpt lat="46.26955" lon="6.45645">
        <ele>1197.46</ele>
        <time>2019-02-03T14:30:42Z</time>
      </trkpt>
      <trkpt lat="46.26947" lon="6.45643">
        <ele>1199.38</ele>
        <time>2019-02-03T14:30:54Z</time>
      </trkpt>
      <trkpt lat="46.26939" lon="6.45644">
        <ele>1199.86</ele>
        <time>2019-02-03T14:31:06Z</time>
      </trkpt>
      <trkpt lat="46.26929" lon="6.45646">
        <ele>1199.86</ele>
        <time>2019-02-03T14:31:19Z</time>
      </trkpt>
      <trkpt lat="46.26923" lon="6.45642">
        <ele>1200.82</ele>
        <time>2019-02-03T14:31:33Z</time>
      </trkpt>
      <trkpt lat="46.26914" lon="6.45641">
        <ele>1201.3</ele>
        <time>2019-02-03T14:31:47Z</time>
      </trkpt>
      <trkpt lat="46.2691" lon="6.45639">
        <ele>1201.3</ele>
        <time>2019-02-03T14:31:53Z</time>
      </trkpt>
      <trkpt lat="46.26902" lon="6.45634">
        <ele>1201.79</ele>
        <time>2019-02-03T14:32:05Z</time>
      </trkpt>
      <trkpt lat="46.26896" lon="6.45629">
        <ele>1203.71</ele>
        <time>2019-02-03T14:32:21Z</time>
      </trkpt>
      <trkpt lat="46.2689" lon="6.45627">
        <ele>1203.71</ele>
        <time>2019-02-03T14:32:29Z</time>
      </trkpt>
      <trkpt lat="46.26884" lon="6.45623">
        <ele>1204.19</ele>
        <time>2019-02-03T14:32:40Z</time>
      </trkpt>
      <trkpt lat="46.26875" lon="6.45622">
        <ele>1205.15</ele>
        <time>2019-02-03T14:32:52Z</time>
      </trkpt>
      <trkpt lat="46.26867" lon="6.45618">
        <ele>1205.63</ele>
        <time>2019-02-03T14:33:04Z</time>
      </trkpt>
      <trkpt lat="46.2686" lon="6.45612">
        <ele>1205.15</ele>
        <time>2019-02-03T14:33:15Z</time>
      </trkpt>
      <trkpt lat="46.26849" lon="6.45607">
        <ele>1206.11</ele>
        <time>2019-02-03T14:33:28Z</time>
      </trkpt>
      <trkpt lat="46.2684" lon="6.456">
        <ele>1206.59</ele>
        <time>2019-02-03T14:33:41Z</time>
      </trkpt>
      <trkpt lat="46.26831" lon="6.45599">
        <ele>1205.63</ele>
        <time>2019-02-03T14:33:52Z</time>
      </trkpt>
      <trkpt lat="46.26825" lon="6.45597">
        <ele>1206.59</ele>
        <time>2019-02-03T14:34:04Z</time>
      </trkpt>
      <trkpt lat="46.26816" lon="6.45591">
        <ele>1206.59</ele>
        <time>2019-02-03T14:34:17Z</time>
      </trkpt>
      <trkpt lat="46.26808" lon="6.45589">
        <ele>1207.07</ele>
        <time>2019-02-03T14:34:29Z</time>
      </trkpt>
      <trkpt lat="46.26805" lon="6.45587">
        <ele>1207.55</ele>
        <time>2019-02-03T14:34:33Z</time>
      </trkpt>
      <trkpt lat="46.26799" lon="6.45585">
        <ele>1206.59</ele>
        <time>2019-02-03T14:34:41Z</time>
      </trkpt>
      <trkpt lat="46.26789" lon="6.4558">
        <ele>1207.55</ele>
        <time>2019-02-03T14:34:54Z</time>
      </trkpt>
      <trkpt lat="46.26786" lon="6.45581">
        <ele>1207.07</ele>
        <time>2019-02-03T14:34:57Z</time>
      </trkpt>
      <trkpt lat="46.26778" lon="6.45578">
        <ele>1208.51</ele>
        <time>2019-02-03T14:35:07Z</time>
      </trkpt>
      <trkpt lat="46.26768" lon="6.45571">
        <ele>1207.55</ele>
        <time>2019-02-03T14:35:20Z</time>
      </trkpt>
      <trkpt lat="46.2676" lon="6.45565">
        <ele>1208.51</ele>
        <time>2019-02-03T14:35:31Z</time>
      </trkpt>
      <trkpt lat="46.26753" lon="6.45561">
        <ele>1208.51</ele>
        <time>2019-02-03T14:35:43Z</time>
      </trkpt>
      <trkpt lat="46.26746" lon="6.45561">
        <ele>1209</ele>
        <time>2019-02-03T14:35:54Z</time>
      </trkpt>
      <trkpt lat="46.26736" lon="6.45558">
        <ele>1209.48</ele>
        <time>2019-02-03T14:36:08Z</time>
      </trkpt>
      <trkpt lat="46.26727" lon="6.45552">
        <ele>1211.4</ele>
        <time>2019-02-03T14:36:22Z</time>
      </trkpt>
      <trkpt lat="46.26719" lon="6.45549">
        <ele>1212.36</ele>
        <time>2019-02-03T14:36:32Z</time>
      </trkpt>
      <trkpt lat="46.26714" lon="6.45546">
        <ele>1213.8</ele>
        <time>2019-02-03T14:36:42Z</time>
      </trkpt>
      <trkpt lat="46.26707" lon="6.45542">
        <ele>1213.32</ele>
        <time>2019-02-03T14:36:53Z</time>
      </trkpt>
      <trkpt lat="46.26703" lon="6.45539">
        <ele>1213.8</ele>
        <time>2019-02-03T14:37:03Z</time>
      </trkpt>
      <trkpt lat="46.26694" lon="6.45535">
        <ele>1215.72</ele>
        <time>2019-02-03T14:37:19Z</time>
      </trkpt>
      <trkpt lat="46.26691" lon="6.45535">
        <ele>1217.17</ele>
        <time>2019-02-03T14:37:31Z</time>
      </trkpt>
      <trkpt lat="46.26687" lon="6.45536">
        <ele>1218.61</ele>
        <time>2019-02-03T14:37:43Z</time>
      </trkpt>
      <trkpt lat="46.26681" lon="6.45538">
        <ele>1219.09</ele>
        <time>2019-02-03T14:37:53Z</time>
      </trkpt>
      <trkpt lat="46.26676" lon="6.45538">
        <ele>1219.57</ele>
        <time>2019-02-03T14:38:03Z</time>
      </trkpt>
      <trkpt lat="46.26671" lon="6.45538">
        <ele>1221.01</ele>
        <time>2019-02-03T14:38:12Z</time>
      </trkpt>
      <trkpt lat="46.26665" lon="6.45537">
        <ele>1221.49</ele>
        <time>2019-02-03T14:38:22Z</time>
      </trkpt>
      <trkpt lat="46.26657" lon="6.45537">
        <ele>1221.97</ele>
        <time>2019-02-03T14:38:36Z</time>
      </trkpt>
      <trkpt lat="46.2665" lon="6.45537">
        <ele>1222.93</ele>
        <time>2019-02-03T14:38:47Z</time>
      </trkpt>
      <trkpt lat="46.2664" lon="6.45539">
        <ele>1222.93</ele>
        <time>2019-02-03T14:38:59Z</time>
      </trkpt>
      <trkpt lat="46.26638" lon="6.4554">
        <ele>1223.42</ele>
        <time>2019-02-03T14:39:04Z</time>
      </trkpt>
      <trkpt lat="46.26632" lon="6.45544">
        <ele>1222.93</ele>
        <time>2019-02-03T14:39:11Z</time>
      </trkpt>
      <trkpt lat="46.26623" lon="6.45547">
        <ele>1221.49</ele>
        <time>2019-02-03T14:39:23Z</time>
      </trkpt>
      <trkpt lat="46.26613" lon="6.45546">
        <ele>1222.45</ele>
        <time>2019-02-03T14:39:35Z</time>
      </trkpt>
      <trkpt lat="46.26606" lon="6.45547">
        <ele>1221.49</ele>
        <time>2019-02-03T14:39:48Z</time>
      </trkpt>
      <trkpt lat="46.26605" lon="6.45548">
        <ele>1221.49</ele>
        <time>2019-02-03T14:40:07Z</time>
      </trkpt>
      <trkpt lat="46.26601" lon="6.45549">
        <ele>1220.53</ele>
        <time>2019-02-03T14:40:20Z</time>
      </trkpt>
      <trkpt lat="46.266" lon="6.45548">
        <ele>1219.09</ele>
        <time>2019-02-03T14:41:08Z</time>
      </trkpt>
      <trkpt lat="46.26592" lon="6.45546">
        <ele>1220.53</ele>
        <time>2019-02-03T14:41:19Z</time>
      </trkpt>
      <trkpt lat="46.26587" lon="6.45541">
        <ele>1218.61</ele>
        <time>2019-02-03T14:41:32Z</time>
      </trkpt>
      <trkpt lat="46.26586" lon="6.45541">
        <ele>1217.65</ele>
        <time>2019-02-03T14:41:44Z</time>
      </trkpt>
      <trkpt lat="46.26585" lon="6.45544">
        <ele>1217.65</ele>
        <time>2019-02-03T14:41:59Z</time>
      </trkpt>
      <trkpt lat="46.26585" lon="6.45544">
        <ele>1218.13</ele>
        <time>2019-02-03T14:42:54Z</time>
      </trkpt>
      <trkpt lat="46.26587" lon="6.45547">
        <ele>1218.61</ele>
        <time>2019-02-03T14:43:08Z</time>
      </trkpt>
      <trkpt lat="46.26587" lon="6.45547">
        <ele>1218.61</ele>
        <time>2019-02-03T14:43:50Z</time>
      </trkpt>
      <trkpt lat="46.26588" lon="6.45548">
        <ele>1218.13</ele>
        <time>2019-02-03T14:44:55Z</time>
      </trkpt>
      <trkpt lat="46.26588" lon="6.45548">
        <ele>1219.09</ele>
        <time>2019-02-03T14:46:03Z</time>
      </trkpt>
      <trkpt lat="46.26587" lon="6.45548">
        <ele>1218.13</ele>
        <time>2019-02-03T14:46:58Z</time>
      </trkpt>
      <trkpt lat="46.26584" lon="6.45546">
        <ele>1217.65</ele>
        <time>2019-02-03T14:47:08Z</time>
      </trkpt>
      <trkpt lat="46.26577" lon="6.4554">
        <ele>1214.76</ele>
        <time>2019-02-03T14:47:22Z</time>
      </trkpt>
      <trkpt lat="46.26576" lon="6.45539">
        <ele>1214.28</ele>
        <time>2019-02-03T14:47:35Z</time>
      </trkpt>
      <trkpt lat="46.26573" lon="6.45534">
        <ele>1211.4</ele>
        <time>2019-02-03T14:47:52Z</time>
      </trkpt>
      <trkpt lat="46.26569" lon="6.45529">
        <ele>1210.44</ele>
        <time>2019-02-03T14:48:02Z</time>
      </trkpt>
      <trkpt lat="46.26563" lon="6.45527">
        <ele>1206.59</ele>
        <time>2019-02-03T14:48:13Z</time>
      </trkpt>
      <trkpt lat="46.26562" lon="6.45527">
        <ele>1206.59</ele>
        <time>2019-02-03T14:48:14Z</time>
      </trkpt>
      <trkpt lat="46.2656" lon="6.45527">
        <ele>1205.15</ele>
        <time>2019-02-03T14:48:18Z</time>
      </trkpt>
      <trkpt lat="46.26553" lon="6.45525">
        <ele>1202.27</ele>
        <time>2019-02-03T14:48:30Z</time>
      </trkpt>
      <trkpt lat="46.26551" lon="6.45525">
        <ele>1202.75</ele>
        <time>2019-02-03T14:48:43Z</time>
      </trkpt>
      <trkpt lat="46.26546" lon="6.45525">
        <ele>1199.86</ele>
        <time>2019-02-03T14:48:55Z</time>
      </trkpt>
      <trkpt lat="46.2654" lon="6.45521">
        <ele>1197.46</ele>
        <time>2019-02-03T14:49:06Z</time>
      </trkpt>
      <trkpt lat="46.26538" lon="6.45521">
        <ele>1196.5</ele>
        <time>2019-02-03T14:49:22Z</time>
      </trkpt>
      <trkpt lat="46.26534" lon="6.4552">
        <ele>1195.06</ele>
        <time>2019-02-03T14:49:28Z</time>
      </trkpt>
      <trkpt lat="46.26531" lon="6.4552">
        <ele>1192.65</ele>
        <time>2019-02-03T14:49:35Z</time>
      </trkpt>
      <trkpt lat="46.26529" lon="6.45518">
        <ele>1191.69</ele>
        <time>2019-02-03T14:49:39Z</time>
      </trkpt>
      <trkpt lat="46.26526" lon="6.45516">
        <ele>1190.73</ele>
        <time>2019-02-03T14:49:45Z</time>
      </trkpt>
      <trkpt lat="46.26522" lon="6.45513">
        <ele>1189.29</ele>
        <time>2019-02-03T14:49:55Z</time>
      </trkpt>
      <trkpt lat="46.26517" lon="6.45512">
        <ele>1187.37</ele>
        <time>2019-02-03T14:50:17Z</time>
      </trkpt>
      <trkpt lat="46.26513" lon="6.45511">
        <ele>1185.44</ele>
        <time>2019-02-03T14:50:26Z</time>
      </trkpt>
      <trkpt lat="46.26506" lon="6.45509">
        <ele>1182.08</ele>
        <time>2019-02-03T14:50:40Z</time>
      </trkpt>
      <trkpt lat="46.26506" lon="6.45508">
        <ele>1181.12</ele>
        <time>2019-02-03T14:51:05Z</time>
      </trkpt>
      <trkpt lat="46.26506" lon="6.45508">
        <ele>1181.12</ele>
        <time>2019-02-03T14:51:22Z</time>
      </trkpt>
      <trkpt lat="46.26507" lon="6.45511">
        <ele>1182.56</ele>
        <time>2019-02-03T14:51:31Z</time>
      </trkpt>
      <trkpt lat="46.26508" lon="6.45512">
        <ele>1182.56</ele>
        <time>2019-02-03T14:52:00Z</time>
      </trkpt>
      <trkpt lat="46.26507" lon="6.45518">
        <ele>1181.6</ele>
        <time>2019-02-03T14:52:30Z</time>
      </trkpt>
      <trkpt lat="46.26505" lon="6.45522">
        <ele>1180.64</ele>
        <time>2019-02-03T14:52:47Z</time>
      </trkpt>
      <trkpt lat="46.26501" lon="6.45526">
        <ele>1179.19</ele>
        <time>2019-02-03T14:53:06Z</time>
      </trkpt>
      <trkpt lat="46.26496" lon="6.4553">
        <ele>1177.27</ele>
        <time>2019-02-03T14:53:25Z</time>
      </trkpt>
      <trkpt lat="46.26495" lon="6.45531">
        <ele>1176.79</ele>
        <time>2019-02-03T14:53:45Z</time>
      </trkpt>
      <trkpt lat="46.26494" lon="6.45531">
        <ele>1174.87</ele>
        <time>2019-02-03T14:54:05Z</time>
      </trkpt>
      <trkpt lat="46.26483" lon="6.45542">
        <ele>1172.47</ele>
        <time>2019-02-03T14:54:21Z</time>
      </trkpt>
      <trkpt lat="46.2648" lon="6.45545">
        <ele>1170.54</ele>
        <time>2019-02-03T14:54:31Z</time>
      </trkpt>
      <trkpt lat="46.26478" lon="6.4555">
        <ele>1168.62</ele>
        <time>2019-02-03T14:54:43Z</time>
      </trkpt>
      <trkpt lat="46.26478" lon="6.45553">
        <ele>1168.14</ele>
        <time>2019-02-03T14:54:58Z</time>
      </trkpt>
      <trkpt lat="46.26475" lon="6.45558">
        <ele>1166.22</ele>
        <time>2019-02-03T14:55:19Z</time>
      </trkpt>
      <trkpt lat="46.26471" lon="6.45567">
        <ele>1164.29</ele>
        <time>2019-02-03T14:55:31Z</time>
      </trkpt>
      <trkpt lat="46.26469" lon="6.4557">
        <ele>1164.29</ele>
        <time>2019-02-03T14:55:41Z</time>
      </trkpt>
      <trkpt lat="46.26466" lon="6.45567">
        <ele>1161.89</ele>
        <time>2019-02-03T14:55:55Z</time>
      </trkpt>
      <trkpt lat="46.26462" lon="6.45573">
        <ele>1159.97</ele>
        <time>2019-02-03T14:56:06Z</time>
      </trkpt>
      <trkpt lat="46.26459" lon="6.45573">
        <ele>1158.53</ele>
        <time>2019-02-03T14:56:19Z</time>
      </trkpt>
      <trkpt lat="46.26455" lon="6.45578">
        <ele>1155.64</ele>
        <time>2019-02-03T14:56:34Z</time>
      </trkpt>
      <trkpt lat="46.26452" lon="6.45584">
        <ele>1154.2</ele>
        <time>2019-02-03T14:56:47Z</time>
      </trkpt>
      <trkpt lat="46.26449" lon="6.45584">
        <ele>1152.28</ele>
        <time>2019-02-03T14:57:03Z</time>
      </trkpt>
      <trkpt lat="46.26442" lon="6.45583">
        <ele>1150.84</ele>
        <time>2019-02-03T14:57:30Z</time>
      </trkpt>
      <trkpt lat="46.26436" lon="6.45582">
        <ele>1148.43</ele>
        <time>2019-02-03T14:57:42Z</time>
      </trkpt>
      <trkpt lat="46.26434" lon="6.45582">
        <ele>1147.47</ele>
        <time>2019-02-03T14:57:55Z</time>
      </trkpt>
      <trkpt lat="46.26433" lon="6.45582">
        <ele>1147.47</ele>
        <time>2019-02-03T14:58:34Z</time>
      </trkpt>
      <trkpt lat="46.2643" lon="6.45587">
        <ele>1145.07</ele>
        <time>2019-02-03T14:58:46Z</time>
      </trkpt>
      <trkpt lat="46.26425" lon="6.45588">
        <ele>1142.18</ele>
        <time>2019-02-03T14:58:57Z</time>
      </trkpt>
      <trkpt lat="46.26419" lon="6.45581">
        <ele>1140.26</ele>
        <time>2019-02-03T14:59:09Z</time>
      </trkpt>
      <trkpt lat="46.26414" lon="6.45582">
        <ele>1136.42</ele>
        <time>2019-02-03T14:59:22Z</time>
      </trkpt>
      <trkpt lat="46.26411" lon="6.45584">
        <ele>1135.94</ele>
        <time>2019-02-03T14:59:27Z</time>
      </trkpt>
      <trkpt lat="46.26406" lon="6.45588">
        <ele>1134.01</ele>
        <time>2019-02-03T14:59:40Z</time>
      </trkpt>
      <trkpt lat="46.26406" lon="6.45587">
        <ele>1134.01</ele>
        <time>2019-02-03T14:59:59Z</time>
      </trkpt>
      <trkpt lat="46.26406" lon="6.45587">
        <ele>1133.53</ele>
        <time>2019-02-03T15:00:54Z</time>
      </trkpt>
      <trkpt lat="46.26399" lon="6.45594">
        <ele>1132.09</ele>
        <time>2019-02-03T15:01:09Z</time>
      </trkpt>
      <trkpt lat="46.26398" lon="6.45595">
        <ele>1131.13</ele>
        <time>2019-02-03T15:01:38Z</time>
      </trkpt>
      <trkpt lat="46.26394" lon="6.456">
        <ele>1130.17</ele>
        <time>2019-02-03T15:01:43Z</time>
      </trkpt>
      <trkpt lat="46.26396" lon="6.45608">
        <ele>1129.21</ele>
        <time>2019-02-03T15:01:49Z</time>
      </trkpt>
      <trkpt lat="46.26398" lon="6.45611">
        <ele>1129.21</ele>
        <time>2019-02-03T15:01:51Z</time>
      </trkpt>
      <trkpt lat="46.26404" lon="6.45629">
        <ele>1128.24</ele>
        <time>2019-02-03T15:02:03Z</time>
      </trkpt>
      <trkpt lat="46.26406" lon="6.45635">
        <ele>1128.24</ele>
        <time>2019-02-03T15:02:07Z</time>
      </trkpt>
      <trkpt lat="46.26411" lon="6.4564">
        <ele>1128.73</ele>
        <time>2019-02-03T15:02:12Z</time>
      </trkpt>
      <trkpt lat="46.26411" lon="6.45644">
        <ele>1128.24</ele>
        <time>2019-02-03T15:02:14Z</time>
      </trkpt>
      <trkpt lat="46.26414" lon="6.45655">
        <ele>1127.76</ele>
        <time>2019-02-03T15:02:21Z</time>
      </trkpt>
      <trkpt lat="46.26417" lon="6.45663">
        <ele>1127.76</ele>
        <time>2019-02-03T15:02:26Z</time>
      </trkpt>
      <trkpt lat="46.26423" lon="6.45682">
        <ele>1127.76</ele>
        <time>2019-02-03T15:02:39Z</time>
      </trkpt>
      <trkpt lat="46.26426" lon="6.45688">
        <ele>1128.24</ele>
        <time>2019-02-03T15:02:44Z</time>
      </trkpt>
      <trkpt lat="46.26429" lon="6.45697">
        <ele>1128.24</ele>
        <time>2019-02-03T15:03:01Z</time>
      </trkpt>
      <trkpt lat="46.26432" lon="6.45704">
        <ele>1127.28</ele>
        <time>2019-02-03T15:03:16Z</time>
      </trkpt>
      <trkpt lat="46.26431" lon="6.45711">
        <ele>1126.32</ele>
        <time>2019-02-03T15:03:35Z</time>
      </trkpt>
      <trkpt lat="46.26431" lon="6.45714">
        <ele>1125.84</ele>
        <time>2019-02-03T15:03:37Z</time>
      </trkpt>
      <trkpt lat="46.26433" lon="6.45725">
        <ele>1123.44</ele>
        <time>2019-02-03T15:03:48Z</time>
      </trkpt>
      <trkpt lat="46.26433" lon="6.45733">
        <ele>1123.44</ele>
        <time>2019-02-03T15:04:15Z</time>
      </trkpt>
      <trkpt lat="46.26436" lon="6.45739">
        <ele>1123.44</ele>
        <time>2019-02-03T15:04:21Z</time>
      </trkpt>
      <trkpt lat="46.26437" lon="6.45748">
        <ele>1122</ele>
        <time>2019-02-03T15:04:34Z</time>
      </trkpt>
      <trkpt lat="46.26437" lon="6.45748">
        <ele>1122.48</ele>
        <time>2019-02-03T15:04:58Z</time>
      </trkpt>
      <trkpt lat="46.26438" lon="6.45759">
        <ele>1121.52</ele>
        <time>2019-02-03T15:05:04Z</time>
      </trkpt>
      <trkpt lat="46.26439" lon="6.4577">
        <ele>1120.07</ele>
        <time>2019-02-03T15:05:10Z</time>
      </trkpt>
      <trkpt lat="46.2644" lon="6.45773">
        <ele>1119.59</ele>
        <time>2019-02-03T15:05:12Z</time>
      </trkpt>
      <trkpt lat="46.26441" lon="6.45779">
        <ele>1118.63</ele>
        <time>2019-02-03T15:05:16Z</time>
      </trkpt>
      <trkpt lat="46.26443" lon="6.45785">
        <ele>1118.63</ele>
        <time>2019-02-03T15:05:20Z</time>
      </trkpt>
      <trkpt lat="46.26447" lon="6.45793">
        <ele>1118.15</ele>
        <time>2019-02-03T15:05:26Z</time>
      </trkpt>
      <trkpt lat="46.2645" lon="6.45798">
        <ele>1117.67</ele>
        <time>2019-02-03T15:05:30Z</time>
      </trkpt>
      <trkpt lat="46.26459" lon="6.45811">
        <ele>1116.23</ele>
        <time>2019-02-03T15:05:44Z</time>
      </trkpt>
      <trkpt lat="46.26459" lon="6.45813">
        <ele>1116.23</ele>
        <time>2019-02-03T15:05:47Z</time>
      </trkpt>
      <trkpt lat="46.26461" lon="6.45817">
        <ele>1116.71</ele>
        <time>2019-02-03T15:05:50Z</time>
      </trkpt>
      <trkpt lat="46.26461" lon="6.4582">
        <ele>1116.23</ele>
        <time>2019-02-03T15:05:52Z</time>
      </trkpt>
      <trkpt lat="46.26468" lon="6.45831">
        <ele>1115.27</ele>
        <time>2019-02-03T15:06:01Z</time>
      </trkpt>
      <trkpt lat="46.26477" lon="6.45838">
        <ele>1115.27</ele>
        <time>2019-02-03T15:06:09Z</time>
      </trkpt>
      <trkpt lat="46.26485" lon="6.45849">
        <ele>1115.27</ele>
        <time>2019-02-03T15:06:20Z</time>
      </trkpt>
      <trkpt lat="46.26489" lon="6.45856">
        <ele>1113.82</ele>
        <time>2019-02-03T15:06:26Z</time>
      </trkpt>
      <trkpt lat="46.26498" lon="6.45867">
        <ele>1115.27</ele>
        <time>2019-02-03T15:06:35Z</time>
      </trkpt>
      <trkpt lat="46.26502" lon="6.45869">
        <ele>1115.27</ele>
        <time>2019-02-03T15:06:38Z</time>
      </trkpt>
      <trkpt lat="46.26508" lon="6.45875">
        <ele>1114.31</ele>
        <time>2019-02-03T15:06:44Z</time>
      </trkpt>
      <trkpt lat="46.26512" lon="6.45878">
        <ele>1114.79</ele>
        <time>2019-02-03T15:06:48Z</time>
      </trkpt>
      <trkpt lat="46.26519" lon="6.45882">
        <ele>1114.31</ele>
        <time>2019-02-03T15:06:54Z</time>
      </trkpt>
      <trkpt lat="46.26527" lon="6.45889">
        <ele>1113.82</ele>
        <time>2019-02-03T15:07:04Z</time>
      </trkpt>
      <trkpt lat="46.26531" lon="6.45896">
        <ele>1113.34</ele>
        <time>2019-02-03T15:07:10Z</time>
      </trkpt>
      <trkpt lat="46.26535" lon="6.45901">
        <ele>1112.86</ele>
        <time>2019-02-03T15:07:16Z</time>
      </trkpt>
      <trkpt lat="46.26544" lon="6.45913">
        <ele>1112.86</ele>
        <time>2019-02-03T15:07:28Z</time>
      </trkpt>
      <trkpt lat="46.26547" lon="6.45916">
        <ele>1112.38</ele>
        <time>2019-02-03T15:07:44Z</time>
      </trkpt>
      <trkpt lat="46.26548" lon="6.45917">
        <ele>1112.38</ele>
        <time>2019-02-03T15:08:04Z</time>
      </trkpt>
      <trkpt lat="46.2655" lon="6.45918">
        <ele>1111.42</ele>
        <time>2019-02-03T15:08:06Z</time>
      </trkpt>
      <trkpt lat="46.26553" lon="6.45921">
        <ele>1111.42</ele>
        <time>2019-02-03T15:08:10Z</time>
      </trkpt>
      <trkpt lat="46.26557" lon="6.45922">
        <ele>1111.42</ele>
        <time>2019-02-03T15:08:13Z</time>
      </trkpt>
      <trkpt lat="46.26564" lon="6.45926">
        <ele>1110.94</ele>
        <time>2019-02-03T15:08:19Z</time>
      </trkpt>
      <trkpt lat="46.26569" lon="6.45928">
        <ele>1111.42</ele>
        <time>2019-02-03T15:08:25Z</time>
      </trkpt>
      <trkpt lat="46.26575" lon="6.45928">
        <ele>1111.9</ele>
        <time>2019-02-03T15:08:31Z</time>
      </trkpt>
      <trkpt lat="46.26584" lon="6.45933">
        <ele>1110.94</ele>
        <time>2019-02-03T15:08:42Z</time>
      </trkpt>
      <trkpt lat="46.26586" lon="6.45934">
        <ele>1110.94</ele>
        <time>2019-02-03T15:08:44Z</time>
      </trkpt>
      <trkpt lat="46.26593" lon="6.45935">
        <ele>1111.42</ele>
        <time>2019-02-03T15:08:52Z</time>
      </trkpt>
      <trkpt lat="46.26595" lon="6.4594">
        <ele>1110.46</ele>
        <time>2019-02-03T15:08:56Z</time>
      </trkpt>
      <trkpt lat="46.26598" lon="6.45942">
        <ele>1109.98</ele>
        <time>2019-02-03T15:09:00Z</time>
      </trkpt>
      <trkpt lat="46.26605" lon="6.45949">
        <ele>1107.58</ele>
        <time>2019-02-03T15:09:10Z</time>
      </trkpt>
      <trkpt lat="46.26608" lon="6.45955">
        <ele>1105.65</ele>
        <time>2019-02-03T15:09:15Z</time>
      </trkpt>
      <trkpt lat="46.26612" lon="6.45964">
        <ele>1106.61</ele>
        <time>2019-02-03T15:09:28Z</time>
      </trkpt>
      <trkpt lat="46.26612" lon="6.45965">
        <ele>1104.69</ele>
        <time>2019-02-03T15:09:31Z</time>
      </trkpt>
      <trkpt lat="46.26614" lon="6.45972">
        <ele>1103.73</ele>
        <time>2019-02-03T15:09:38Z</time>
      </trkpt>
      <trkpt lat="46.26616" lon="6.45977">
        <ele>1102.29</ele>
        <time>2019-02-03T15:09:44Z</time>
      </trkpt>
      <trkpt lat="46.26619" lon="6.45987">
        <ele>1098.92</ele>
        <time>2019-02-03T15:09:55Z</time>
      </trkpt>
      <trkpt lat="46.26621" lon="6.45995">
        <ele>1099.4</ele>
        <time>2019-02-03T15:10:03Z</time>
      </trkpt>
      <trkpt lat="46.26624" lon="6.46004">
        <ele>1097.48</ele>
        <time>2019-02-03T15:10:15Z</time>
      </trkpt>
      <trkpt lat="46.26625" lon="6.46011">
        <ele>1095.08</ele>
        <time>2019-02-03T15:10:26Z</time>
      </trkpt>
      <trkpt lat="46.26623" lon="6.46016">
        <ele>1095.56</ele>
        <time>2019-02-03T15:10:38Z</time>
      </trkpt>
      <trkpt lat="46.26623" lon="6.4603">
        <ele>1094.12</ele>
        <time>2019-02-03T15:10:50Z</time>
      </trkpt>
      <trkpt lat="46.26623" lon="6.46035">
        <ele>1093.64</ele>
        <time>2019-02-03T15:10:56Z</time>
      </trkpt>
      <trkpt lat="46.26624" lon="6.46043">
        <ele>1093.16</ele>
        <time>2019-02-03T15:11:04Z</time>
      </trkpt>
      <trkpt lat="46.26622" lon="6.46055">
        <ele>1091.23</ele>
        <time>2019-02-03T15:11:15Z</time>
      </trkpt>
      <trkpt lat="46.26621" lon="6.46062">
        <ele>1089.79</ele>
        <time>2019-02-03T15:11:24Z</time>
      </trkpt>
      <trkpt lat="46.2662" lon="6.46064">
        <ele>1089.31</ele>
        <time>2019-02-03T15:11:28Z</time>
      </trkpt>
      <trkpt lat="46.26616" lon="6.46071">
        <ele>1087.87</ele>
        <time>2019-02-03T15:11:37Z</time>
      </trkpt>
      <trkpt lat="46.26616" lon="6.46078">
        <ele>1086.43</ele>
        <time>2019-02-03T15:11:47Z</time>
      </trkpt>
      <trkpt lat="46.26616" lon="6.46078">
        <ele>1085.47</ele>
        <time>2019-02-03T15:12:12Z</time>
      </trkpt>
      <trkpt lat="46.26618" lon="6.46087">
        <ele>1085.47</ele>
        <time>2019-02-03T15:12:38Z</time>
      </trkpt>
      <trkpt lat="46.2662" lon="6.46099">
        <ele>1085.47</ele>
        <time>2019-02-03T15:12:47Z</time>
      </trkpt>
      <trkpt lat="46.26621" lon="6.46101">
        <ele>1084.02</ele>
        <time>2019-02-03T15:12:50Z</time>
      </trkpt>
      <trkpt lat="46.26624" lon="6.46109">
        <ele>1084.5</ele>
        <time>2019-02-03T15:12:56Z</time>
      </trkpt>
      <trkpt lat="46.2662" lon="6.46122">
        <ele>1084.99</ele>
        <time>2019-02-03T15:13:07Z</time>
      </trkpt>
      <trkpt lat="46.2662" lon="6.46137">
        <ele>1085.95</ele>
        <time>2019-02-03T15:13:19Z</time>
      </trkpt>
      <trkpt lat="46.26623" lon="6.46146">
        <ele>1086.43</ele>
        <time>2019-02-03T15:13:33Z</time>
      </trkpt>
      <trkpt lat="46.26623" lon="6.46146">
        <ele>1084.5</ele>
        <time>2019-02-03T15:13:54Z</time>
      </trkpt>
      <trkpt lat="46.26628" lon="6.46151">
        <ele>1084.5</ele>
        <time>2019-02-03T15:14:19Z</time>
      </trkpt>
      <trkpt lat="46.26634" lon="6.4616">
        <ele>1084.5</ele>
        <time>2019-02-03T15:14:31Z</time>
      </trkpt>
      <trkpt lat="46.26637" lon="6.46164">
        <ele>1084.02</ele>
        <time>2019-02-03T15:14:36Z</time>
      </trkpt>
      <trkpt lat="46.26638" lon="6.46164">
        <ele>1083.54</ele>
        <time>2019-02-03T15:14:38Z</time>
      </trkpt>
      <trkpt lat="46.26639" lon="6.46172">
        <ele>1084.5</ele>
        <time>2019-02-03T15:14:50Z</time>
      </trkpt>
      <trkpt lat="46.26639" lon="6.46171">
        <ele>1084.02</ele>
        <time>2019-02-03T15:15:25Z</time>
      </trkpt>
      <trkpt lat="46.26648" lon="6.4618">
        <ele>1083.06</ele>
        <time>2019-02-03T15:15:38Z</time>
      </trkpt>
      <trkpt lat="46.26656" lon="6.46189">
        <ele>1081.14</ele>
        <time>2019-02-03T15:15:50Z</time>
      </trkpt>
      <trkpt lat="46.26658" lon="6.46192">
        <ele>1081.14</ele>
        <time>2019-02-03T15:15:52Z</time>
      </trkpt>
      <trkpt lat="46.26659" lon="6.46194">
        <ele>1081.14</ele>
        <time>2019-02-03T15:15:54Z</time>
      </trkpt>
      <trkpt lat="46.26663" lon="6.462">
        <ele>1080.66</ele>
        <time>2019-02-03T15:16:00Z</time>
      </trkpt>
      <trkpt lat="46.26673" lon="6.4621">
        <ele>1078.74</ele>
        <time>2019-02-03T15:16:16Z</time>
      </trkpt>
      <trkpt lat="46.26681" lon="6.46218">
        <ele>1078.74</ele>
        <time>2019-02-03T15:16:28Z</time>
      </trkpt>
      <trkpt lat="46.26682" lon="6.4622">
        <ele>1078.74</ele>
        <time>2019-02-03T15:16:30Z</time>
      </trkpt>
      <trkpt lat="46.26684" lon="6.46223">
        <ele>1078.26</ele>
        <time>2019-02-03T15:16:33Z</time>
      </trkpt>
      <trkpt lat="46.26693" lon="6.46234">
        <ele>1077.29</ele>
        <time>2019-02-03T15:16:46Z</time>
      </trkpt>
      <trkpt lat="46.26697" lon="6.46239">
        <ele>1076.81</ele>
        <time>2019-02-03T15:16:52Z</time>
      </trkpt>
      <trkpt lat="46.26701" lon="6.46243">
        <ele>1077.78</ele>
        <time>2019-02-03T15:16:57Z</time>
      </trkpt>
      <trkpt lat="46.26711" lon="6.46255">
        <ele>1078.26</ele>
        <time>2019-02-03T15:17:11Z</time>
      </trkpt>
      <trkpt lat="46.26719" lon="6.46265">
        <ele>1077.78</ele>
        <time>2019-02-03T15:17:23Z</time>
      </trkpt>
      <trkpt lat="46.26723" lon="6.46269">
        <ele>1077.78</ele>
        <time>2019-02-03T15:17:29Z</time>
      </trkpt>
      <trkpt lat="46.26728" lon="6.46275">
        <ele>1078.26</ele>
        <time>2019-02-03T15:17:36Z</time>
      </trkpt>
      <trkpt lat="46.26731" lon="6.46278">
        <ele>1079.22</ele>
        <time>2019-02-03T15:17:40Z</time>
      </trkpt>
      <trkpt lat="46.26731" lon="6.46279">
        <ele>1080.18</ele>
        <time>2019-02-03T15:17:41Z</time>
      </trkpt>
      <trkpt lat="46.26735" lon="6.46282">
        <ele>1078.26</ele>
        <time>2019-02-03T15:17:46Z</time>
      </trkpt>
      <trkpt lat="46.26741" lon="6.46289">
        <ele>1077.78</ele>
        <time>2019-02-03T15:17:54Z</time>
      </trkpt>
      <trkpt lat="46.26743" lon="6.46291">
        <ele>1077.78</ele>
        <time>2019-02-03T15:17:56Z</time>
      </trkpt>
      <trkpt lat="46.26753" lon="6.46299">
        <ele>1076.33</ele>
        <time>2019-02-03T15:18:09Z</time>
      </trkpt>
      <trkpt lat="46.26755" lon="6.46301">
        <ele>1075.85</ele>
        <time>2019-02-03T15:18:12Z</time>
      </trkpt>
      <trkpt lat="46.26767" lon="6.46314">
        <ele>1074.41</ele>
        <time>2019-02-03T15:18:26Z</time>
      </trkpt>
      <trkpt lat="46.26768" lon="6.46314">
        <ele>1075.37</ele>
        <time>2019-02-03T15:18:27Z</time>
      </trkpt>
      <trkpt lat="46.26776" lon="6.46323">
        <ele>1076.33</ele>
        <time>2019-02-03T15:18:38Z</time>
      </trkpt>
      <trkpt lat="46.26786" lon="6.46333">
        <ele>1075.37</ele>
        <time>2019-02-03T15:18:52Z</time>
      </trkpt>
      <trkpt lat="46.26787" lon="6.46335">
        <ele>1075.37</ele>
        <time>2019-02-03T15:18:54Z</time>
      </trkpt>
      <trkpt lat="46.26788" lon="6.46336">
        <ele>1075.85</ele>
        <time>2019-02-03T15:18:56Z</time>
      </trkpt>
      <trkpt lat="46.26795" lon="6.46344">
        <ele>1075.37</ele>
        <time>2019-02-03T15:19:04Z</time>
      </trkpt>
      <trkpt lat="46.26799" lon="6.46347">
        <ele>1075.85</ele>
        <time>2019-02-03T15:19:08Z</time>
      </trkpt>
      <trkpt lat="46.26808" lon="6.46357">
        <ele>1075.85</ele>
        <time>2019-02-03T15:19:20Z</time>
      </trkpt>
      <trkpt lat="46.26815" lon="6.46366">
        <ele>1073.93</ele>
        <time>2019-02-03T15:19:30Z</time>
      </trkpt>
      <trkpt lat="46.26822" lon="6.46381">
        <ele>1072.49</ele>
        <time>2019-02-03T15:19:45Z</time>
      </trkpt>
      <trkpt lat="46.26821" lon="6.46392">
        <ele>1072.01</ele>
        <time>2019-02-03T15:19:57Z</time>
      </trkpt>
      <trkpt lat="46.26818" lon="6.46398">
        <ele>1071.05</ele>
        <time>2019-02-03T15:20:04Z</time>
      </trkpt>
      <trkpt lat="46.26815" lon="6.46407">
        <ele>1069.6</ele>
        <time>2019-02-03T15:20:11Z</time>
      </trkpt>
      <trkpt lat="46.26811" lon="6.46423">
        <ele>1069.6</ele>
        <time>2019-02-03T15:20:24Z</time>
      </trkpt>
      <trkpt lat="46.26817" lon="6.46432">
        <ele>1070.57</ele>
        <time>2019-02-03T15:20:34Z</time>
      </trkpt>
      <trkpt lat="46.26818" lon="6.46433">
        <ele>1069.12</ele>
        <time>2019-02-03T15:20:37Z</time>
      </trkpt>
      <trkpt lat="46.26818" lon="6.46432">
        <ele>1070.08</ele>
        <time>2019-02-03T15:20:47Z</time>
      </trkpt>
      <trkpt lat="46.26818" lon="6.46432">
        <ele>1069.6</ele>
        <time>2019-02-03T15:21:22Z</time>
      </trkpt>
      <trkpt lat="46.26817" lon="6.46433">
        <ele>1070.08</ele>
        <time>2019-02-03T15:21:43Z</time>
      </trkpt>
      <trkpt lat="46.26817" lon="6.46433">
        <ele>1069.6</ele>
        <time>2019-02-03T15:22:28Z</time>
      </trkpt>
      <trkpt lat="46.26816" lon="6.46432">
        <ele>1069.6</ele>
        <time>2019-02-03T15:23:17Z</time>
      </trkpt>
      <trkpt lat="46.26817" lon="6.46433">
        <ele>1070.08</ele>
        <time>2019-02-03T15:23:50Z</time>
      </trkpt>
      <trkpt lat="46.26817" lon="6.46433">
        <ele>1070.08</ele>
        <time>2019-02-03T15:24:01Z</time>
      </trkpt>
      <trkpt lat="46.26817" lon="6.46433">
        <ele>1070.57</ele>
        <time>2019-02-03T15:24:44Z</time>
      </trkpt>
      <trkpt lat="46.26819" lon="6.46436">
        <ele>1070.08</ele>
        <time>2019-02-03T15:25:01Z</time>
      </trkpt>
      <trkpt lat="46.2682" lon="6.46438">
        <ele>1070.57</ele>
        <time>2019-02-03T15:25:18Z</time>
      </trkpt>
      <trkpt lat="46.26818" lon="6.46441">
        <ele>1070.57</ele>
        <time>2019-02-03T15:26:04Z</time>
      </trkpt>
      <trkpt lat="46.26814" lon="6.46444">
        <ele>1070.08</ele>
        <time>2019-02-03T15:26:27Z</time>
      </trkpt>
      <trkpt lat="46.26807" lon="6.46444">
        <ele>1070.08</ele>
        <time>2019-02-03T15:26:36Z</time>
      </trkpt>
      <trkpt lat="46.26802" lon="6.4644">
        <ele>1070.08</ele>
        <time>2019-02-03T15:26:41Z</time>
      </trkpt>
      <trkpt lat="46.26792" lon="6.46436">
        <ele>1069.12</ele>
        <time>2019-02-03T15:26:55Z</time>
      </trkpt>
      <trkpt lat="46.26779" lon="6.46433">
        <ele>1068.16</ele>
        <time>2019-02-03T15:27:10Z</time>
      </trkpt>
      <trkpt lat="46.26769" lon="6.46429">
        <ele>1067.68</ele>
        <time>2019-02-03T15:27:24Z</time>
      </trkpt>
      <trkpt lat="46.26766" lon="6.46428">
        <ele>1067.2</ele>
        <time>2019-02-03T15:27:37Z</time>
      </trkpt>
      <trkpt lat="46.26757" lon="6.46426">
        <ele>1065.76</ele>
        <time>2019-02-03T15:27:51Z</time>
      </trkpt>
      <trkpt lat="46.26748" lon="6.46429">
        <ele>1064.32</ele>
        <time>2019-02-03T15:28:04Z</time>
      </trkpt>
      <trkpt lat="46.26747" lon="6.4643">
        <ele>1064.8</ele>
        <time>2019-02-03T15:28:07Z</time>
      </trkpt>
      <trkpt lat="46.26745" lon="6.46438">
        <ele>1062.87</ele>
        <time>2019-02-03T15:28:15Z</time>
      </trkpt>
      <trkpt lat="46.26748" lon="6.46445">
        <ele>1062.39</ele>
        <time>2019-02-03T15:28:22Z</time>
      </trkpt>
      <trkpt lat="46.2675" lon="6.46449">
        <ele>1062.87</ele>
        <time>2019-02-03T15:28:25Z</time>
      </trkpt>
      <trkpt lat="46.26753" lon="6.46452">
        <ele>1061.43</ele>
        <time>2019-02-03T15:28:28Z</time>
      </trkpt>
      <trkpt lat="46.26759" lon="6.46467">
        <ele>1061.91</ele>
        <time>2019-02-03T15:28:41Z</time>
      </trkpt>
      <trkpt lat="46.26756" lon="6.46469">
        <ele>1061.43</ele>
        <time>2019-02-03T15:28:43Z</time>
      </trkpt>
      <trkpt lat="46.26748" lon="6.46472">
        <ele>1061.43</ele>
        <time>2019-02-03T15:28:52Z</time>
      </trkpt>
      <trkpt lat="46.26735" lon="6.46476">
        <ele>1059.51</ele>
        <time>2019-02-03T15:29:06Z</time>
      </trkpt>
      <trkpt lat="46.26733" lon="6.46476">
        <ele>1059.51</ele>
        <time>2019-02-03T15:29:09Z</time>
      </trkpt>
      <trkpt lat="46.2673" lon="6.46477">
        <ele>1059.03</ele>
        <time>2019-02-03T15:29:12Z</time>
      </trkpt>
      <trkpt lat="46.26714" lon="6.46476">
        <ele>1057.59</ele>
        <time>2019-02-03T15:29:29Z</time>
      </trkpt>
      <trkpt lat="46.26711" lon="6.46477">
        <ele>1057.11</ele>
        <time>2019-02-03T15:29:32Z</time>
      </trkpt>
      <trkpt lat="46.26701" lon="6.46479">
        <ele>1055.67</ele>
        <time>2019-02-03T15:29:41Z</time>
      </trkpt>
      <trkpt lat="46.26698" lon="6.46481">
        <ele>1056.15</ele>
        <time>2019-02-03T15:29:45Z</time>
      </trkpt>
      <trkpt lat="46.26684" lon="6.46488">
        <ele>1053.74</ele>
        <time>2019-02-03T15:29:58Z</time>
      </trkpt>
      <trkpt lat="46.26676" lon="6.46496">
        <ele>1053.26</ele>
        <time>2019-02-03T15:30:07Z</time>
      </trkpt>
      <trkpt lat="46.26673" lon="6.46501">
        <ele>1052.3</ele>
        <time>2019-02-03T15:30:25Z</time>
      </trkpt>
      <trkpt lat="46.26671" lon="6.46504">
        <ele>1051.82</ele>
        <time>2019-02-03T15:30:42Z</time>
      </trkpt>
      <trkpt lat="46.26662" lon="6.46514">
        <ele>1050.86</ele>
        <time>2019-02-03T15:30:55Z</time>
      </trkpt>
      <trkpt lat="46.26656" lon="6.46524">
        <ele>1050.38</ele>
        <time>2019-02-03T15:31:08Z</time>
      </trkpt>
      <trkpt lat="46.26653" lon="6.46528">
        <ele>1048.94</ele>
        <time>2019-02-03T15:31:13Z</time>
      </trkpt>
      <trkpt lat="46.26648" lon="6.46535">
        <ele>1047.97</ele>
        <time>2019-02-03T15:31:21Z</time>
      </trkpt>
      <trkpt lat="46.26639" lon="6.46544">
        <ele>1047.01</ele>
        <time>2019-02-03T15:31:33Z</time>
      </trkpt>
      <trkpt lat="46.26626" lon="6.46551">
        <ele>1046.05</ele>
        <time>2019-02-03T15:31:49Z</time>
      </trkpt>
      <trkpt lat="46.26614" lon="6.46548">
        <ele>1045.09</ele>
        <time>2019-02-03T15:32:04Z</time>
      </trkpt>
      <trkpt lat="46.266" lon="6.46548">
        <ele>1043.65</ele>
        <time>2019-02-03T15:32:18Z</time>
      </trkpt>
      <trkpt lat="46.26591" lon="6.46542">
        <ele>1042.69</ele>
        <time>2019-02-03T15:32:32Z</time>
      </trkpt>
      <trkpt lat="46.26583" lon="6.46543">
        <ele>1042.21</ele>
        <time>2019-02-03T15:32:44Z</time>
      </trkpt>
      <trkpt lat="46.26569" lon="6.46544">
        <ele>1041.25</ele>
        <time>2019-02-03T15:32:58Z</time>
      </trkpt>
      <trkpt lat="46.26567" lon="6.46543">
        <ele>1040.76</ele>
        <time>2019-02-03T15:33:18Z</time>
      </trkpt>
      <trkpt lat="46.26567" lon="6.46543">
        <ele>1041.25</ele>
        <time>2019-02-03T15:33:42Z</time>
      </trkpt>
      <trkpt lat="46.26567" lon="6.46544">
        <ele>1040.76</ele>
        <time>2019-02-03T15:33:58Z</time>
      </trkpt>
      <trkpt lat="46.26566" lon="6.46545">
        <ele>1041.25</ele>
        <time>2019-02-03T15:34:09Z</time>
      </trkpt>
      <trkpt lat="46.26565" lon="6.46545">
        <ele>1041.25</ele>
        <time>2019-02-03T15:34:32Z</time>
      </trkpt>
      <trkpt lat="46.26565" lon="6.46545">
        <ele>1041.25</ele>
        <time>2019-02-03T15:34:58Z</time>
      </trkpt>
      <trkpt lat="46.26565" lon="6.46548">
        <ele>1041.25</ele>
        <time>2019-02-03T15:35:11Z</time>
      </trkpt>
      <trkpt lat="46.26565" lon="6.46549">
        <ele>1040.76</ele>
        <time>2019-02-03T15:35:32Z</time>
      </trkpt>
      <trkpt lat="46.26565" lon="6.46551">
        <ele>1041.25</ele>
        <time>2019-02-03T15:35:56Z</time>
      </trkpt>
      <trkpt lat="46.26564" lon="6.46551">
        <ele>1040.76</ele>
        <time>2019-02-03T15:36:09Z</time>
      </trkpt>
      <trkpt lat="46.26564" lon="6.4655">
        <ele>1041.25</ele>
        <time>2019-02-03T15:36:20Z</time>
      </trkpt>
      <trkpt lat="46.26563" lon="6.46552">
        <ele>1040.28</ele>
        <time>2019-02-03T15:36:31Z</time>
      </trkpt>
      <trkpt lat="46.26562" lon="6.46552">
        <ele>1041.73</ele>
        <time>2019-02-03T15:36:52Z</time>
      </trkpt>
      <trkpt lat="46.26562" lon="6.46552">
        <ele>1040.76</ele>
        <time>2019-02-03T15:37:13Z</time>
      </trkpt>
      <trkpt lat="46.26562" lon="6.46551">
        <ele>1041.25</ele>
        <time>2019-02-03T15:37:42Z</time>
      </trkpt>
      <trkpt lat="46.26561" lon="6.4655">
        <ele>1041.25</ele>
        <time>2019-02-03T15:38:03Z</time>
      </trkpt>
      <trkpt lat="46.26561" lon="6.46554">
        <ele>1041.25</ele>
        <time>2019-02-03T15:38:19Z</time>
      </trkpt>
      <trkpt lat="46.26561" lon="6.46551">
        <ele>1041.25</ele>
        <time>2019-02-03T15:38:38Z</time>
      </trkpt>
      <trkpt lat="46.26561" lon="6.4655">
        <ele>1041.25</ele>
        <time>2019-02-03T15:38:54Z</time>
      </trkpt>
      <trkpt lat="46.26565" lon="6.46546">
        <ele>1040.76</ele>
        <time>2019-02-03T15:39:19Z</time>
      </trkpt>
      <trkpt lat="46.26568" lon="6.4654">
        <ele>1040.76</ele>
        <time>2019-02-03T15:39:33Z</time>
      </trkpt>
      <trkpt lat="46.26567" lon="6.46535">
        <ele>1041.25</ele>
        <time>2019-02-03T15:39:51Z</time>
      </trkpt>
      <trkpt lat="46.26567" lon="6.46533">
        <ele>1040.76</ele>
        <time>2019-02-03T15:40:15Z</time>
      </trkpt>
      <trkpt lat="46.26567" lon="6.46533">
        <ele>1041.73</ele>
        <time>2019-02-03T15:40:19Z</time>
      </trkpt>
      <trkpt lat="46.26569" lon="6.46538">
        <ele>1040.76</ele>
        <time>2019-02-03T15:40:25Z</time>
      </trkpt>
      <trkpt lat="46.26566" lon="6.46546">
        <ele>1041.25</ele>
        <time>2019-02-03T15:40:39Z</time>
      </trkpt>
      <trkpt lat="46.26565" lon="6.46551">
        <ele>1041.25</ele>
        <time>2019-02-03T15:40:51Z</time>
      </trkpt>
      <trkpt lat="46.26565" lon="6.46551">
        <ele>1040.76</ele>
        <time>2019-02-03T15:41:08Z</time>
      </trkpt>
      <trkpt lat="46.26564" lon="6.46551">
        <ele>1041.25</ele>
        <time>2019-02-03T15:41:46Z</time>
      </trkpt>
      <trkpt lat="46.26564" lon="6.46548">
        <ele>1041.25</ele>
        <time>2019-02-03T15:42:08Z</time>
      </trkpt>
      <trkpt lat="46.26565" lon="6.46546">
        <ele>1041.73</ele>
        <time>2019-02-03T15:42:30Z</time>
      </trkpt>
      <trkpt lat="46.26565" lon="6.46546">
        <ele>1042.21</ele>
        <time>2019-02-03T15:42:53Z</time>
      </trkpt>
      <trkpt lat="46.26566" lon="6.46546">
        <ele>1041.73</ele>
        <time>2019-02-03T15:43:10Z</time>
      </trkpt>
      <trkpt lat="46.26566" lon="6.46546">
        <ele>1041.73</ele>
        <time>2019-02-03T15:43:26Z</time>
      </trkpt>
      <trkpt lat="46.26566" lon="6.46546">
        <ele>1041.73</ele>
        <time>2019-02-03T15:43:41Z</time>
      </trkpt>
      <trkpt lat="46.26566" lon="6.4655">
        <ele>1042.21</ele>
        <time>2019-02-03T15:43:57Z</time>
      </trkpt>
      <trkpt lat="46.26566" lon="6.4655">
        <ele>1041.73</ele>
        <time>2019-02-03T15:44:15Z</time>
      </trkpt>
      <trkpt lat="46.26566" lon="6.46549">
        <ele>1041.73</ele>
        <time>2019-02-03T15:44:28Z</time>
      </trkpt>
      <trkpt lat="46.26566" lon="6.46548">
        <ele>1041.73</ele>
        <time>2019-02-03T15:44:40Z</time>
      </trkpt>
      <trkpt lat="46.26565" lon="6.46549">
        <ele>1041.73</ele>
        <time>2019-02-03T15:44:53Z</time>
      </trkpt>
      <trkpt lat="46.26565" lon="6.46549">
        <ele>1041.73</ele>
        <time>2019-02-03T15:45:04Z</time>
      </trkpt>
      <trkpt lat="46.26566" lon="6.46549">
        <ele>1041.73</ele>
        <time>2019-02-03T15:45:14Z</time>
      </trkpt>
      <trkpt lat="46.26567" lon="6.46547">
        <ele>1042.69</ele>
        <time>2019-02-03T15:45:24Z</time>
      </trkpt>
      <trkpt lat="46.26566" lon="6.46547">
        <ele>1041.73</ele>
        <time>2019-02-03T15:45:36Z</time>
      </trkpt>
      <trkpt lat="46.26565" lon="6.46548">
        <ele>1042.69</ele>
        <time>2019-02-03T15:45:46Z</time>
      </trkpt>
      <trkpt lat="46.26565" lon="6.46547">
        <ele>1042.21</ele>
        <time>2019-02-03T15:45:59Z</time>
      </trkpt>
      <trkpt lat="46.26565" lon="6.46548">
        <ele>1042.21</ele>
        <time>2019-02-03T15:46:19Z</time>
      </trkpt>
      <trkpt lat="46.26564" lon="6.46549">
        <ele>1042.21</ele>
        <time>2019-02-03T15:46:29Z</time>
      </trkpt>
      <trkpt lat="46.26566" lon="6.46547">
        <ele>1042.21</ele>
        <time>2019-02-03T15:46:37Z</time>
      </trkpt>
      <trkpt lat="46.26567" lon="6.46547">
        <ele>1042.21</ele>
        <time>2019-02-03T15:46:39Z</time>
      </trkpt>
      <trkpt lat="46.26568" lon="6.46549">
        <ele>1041.73</ele>
        <time>2019-02-03T15:46:48Z</time>
      </trkpt>
      <trkpt lat="46.26565" lon="6.46551">
        <ele>1042.69</ele>
        <time>2019-02-03T15:47:01Z</time>
      </trkpt>
      <trkpt lat="46.26565" lon="6.4655">
        <ele>1042.21</ele>
        <time>2019-02-03T15:47:13Z</time>
      </trkpt>
      <trkpt lat="46.26564" lon="6.46552">
        <ele>1042.69</ele>
        <time>2019-02-03T15:47:28Z</time>
      </trkpt>
      <trkpt lat="46.26565" lon="6.46551">
        <ele>1043.65</ele>
        <time>2019-02-03T15:47:43Z</time>
      </trkpt>
      <trkpt lat="46.26564" lon="6.46551">
        <ele>1042.69</ele>
        <time>2019-02-03T15:47:54Z</time>
      </trkpt>
      <trkpt lat="46.26564" lon="6.46552">
        <ele>1042.69</ele>
        <time>2019-02-03T15:48:10Z</time>
      </trkpt>
      <trkpt lat="46.26564" lon="6.46554">
        <ele>1043.17</ele>
        <time>2019-02-03T15:48:40Z</time>
      </trkpt>
      <trkpt lat="46.26565" lon="6.46551">
        <ele>1042.69</ele>
        <time>2019-02-03T15:48:59Z</time>
      </trkpt>
      <trkpt lat="46.26565" lon="6.46551">
        <ele>1043.17</ele>
        <time>2019-02-03T15:49:07Z</time>
      </trkpt>
      <trkpt lat="46.26564" lon="6.46549">
        <ele>1042.69</ele>
        <time>2019-02-03T15:49:20Z</time>
      </trkpt>
      <trkpt lat="46.26564" lon="6.46549">
        <ele>1043.17</ele>
        <time>2019-02-03T15:49:21Z</time>
      </trkpt>
      <trkpt lat="46.26561" lon="6.46549">
        <ele>1043.17</ele>
        <time>2019-02-03T15:49:31Z</time>
      </trkpt>
      <trkpt lat="46.26564" lon="6.46547">
        <ele>1043.65</ele>
        <time>2019-02-03T15:49:41Z</time>
      </trkpt>
      <trkpt lat="46.26561" lon="6.46548">
        <ele>1043.17</ele>
        <time>2019-02-03T15:49:55Z</time>
      </trkpt>
      <trkpt lat="46.26562" lon="6.46548">
        <ele>1042.69</ele>
        <time>2019-02-03T15:50:07Z</time>
      </trkpt>
      <trkpt lat="46.26561" lon="6.46545">
        <ele>1043.17</ele>
        <time>2019-02-03T15:50:31Z</time>
      </trkpt>
      <trkpt lat="46.26562" lon="6.46546">
        <ele>1043.65</ele>
        <time>2019-02-03T15:50:47Z</time>
      </trkpt>
      <trkpt lat="46.26565" lon="6.46548">
        <ele>1043.17</ele>
        <time>2019-02-03T15:50:58Z</time>
      </trkpt>
      <trkpt lat="46.26563" lon="6.46548">
        <ele>1042.69</ele>
        <time>2019-02-03T15:51:23Z</time>
      </trkpt>
      <trkpt lat="46.26563" lon="6.46548">
        <ele>1043.65</ele>
        <time>2019-02-03T15:51:28Z</time>
      </trkpt>
      <trkpt lat="46.26562" lon="6.46551">
        <ele>1043.65</ele>
        <time>2019-02-03T15:51:41Z</time>
      </trkpt>
      <trkpt lat="46.26563" lon="6.46549">
        <ele>1043.17</ele>
        <time>2019-02-03T15:52:00Z</time>
      </trkpt>
      <trkpt lat="46.26565" lon="6.4655">
        <ele>1043.65</ele>
        <time>2019-02-03T15:52:13Z</time>
      </trkpt>
      <trkpt lat="46.26566" lon="6.4655">
        <ele>1044.61</ele>
        <time>2019-02-03T15:52:24Z</time>
      </trkpt>
      <trkpt lat="46.26567" lon="6.46549">
        <ele>1044.13</ele>
        <time>2019-02-03T15:52:42Z</time>
      </trkpt>
      <trkpt lat="46.26566" lon="6.46547">
        <ele>1043.65</ele>
        <time>2019-02-03T15:52:49Z</time>
      </trkpt>
      <trkpt lat="46.26564" lon="6.46546">
        <ele>1044.13</ele>
        <time>2019-02-03T15:53:02Z</time>
      </trkpt>
      <trkpt lat="46.26564" lon="6.46545">
        <ele>1044.61</ele>
        <time>2019-02-03T15:53:17Z</time>
      </trkpt>
      <trkpt lat="46.26566" lon="6.46547">
        <ele>1044.13</ele>
        <time>2019-02-03T15:53:38Z</time>
      </trkpt>
      <trkpt lat="46.26562" lon="6.46547">
        <ele>1044.61</ele>
        <time>2019-02-03T15:53:49Z</time>
      </trkpt>
      <trkpt lat="46.26561" lon="6.4655">
        <ele>1044.13</ele>
        <time>2019-02-03T15:54:02Z</time>
      </trkpt>
      <trkpt lat="46.26561" lon="6.4655">
        <ele>1044.61</ele>
        <time>2019-02-03T15:54:33Z</time>
      </trkpt>
      <trkpt lat="46.26562" lon="6.4655">
        <ele>1044.13</ele>
        <time>2019-02-03T15:54:56Z</time>
      </trkpt>
      <trkpt lat="46.26565" lon="6.46549">
        <ele>1043.65</ele>
        <time>2019-02-03T15:58:50Z</time>
      </trkpt>
      <trkpt lat="46.26565" lon="6.46549">
        <ele>1045.09</ele>
        <time>2019-02-03T15:59:45Z</time>
      </trkpt>
      <trkpt lat="46.26565" lon="6.46548">
        <ele>1043.65</ele>
        <time>2019-02-03T16:09:51Z</time>
      </trkpt>
      <trkpt lat="46.26565" lon="6.46546">
        <ele>1044.13</ele>
        <time>2019-02-03T16:13:18Z</time>
      </trkpt>
      <trkpt lat="46.26566" lon="6.46548">
        <ele>1044.61</ele>
        <time>2019-02-03T16:18:01Z</time>
      </trkpt>
      <trkpt lat="46.26566" lon="6.46543">
        <ele>1044.13</ele>
        <time>2019-02-03T16:18:09Z</time>
      </trkpt>
      <trkpt lat="46.26564" lon="6.4654">
        <ele>1044.61</ele>
        <time>2019-02-03T16:18:19Z</time>
      </trkpt>
      <trkpt lat="46.26565" lon="6.4654">
        <ele>1045.09</ele>
        <time>2019-02-03T16:22:39Z</time>
      </trkpt>
      <trkpt lat="46.26566" lon="6.4654">
        <ele>1047.49</ele>
        <time>2019-02-03T16:22:49Z</time>
      </trkpt>
      <trkpt lat="46.26566" lon="6.46541">
        <ele>1044.13</ele>
        <time>2019-02-03T16:23:00Z</time>
      </trkpt>
      <trkpt lat="46.26566" lon="6.46542">
        <ele>1046.05</ele>
        <time>2019-02-03T16:23:23Z</time>
      </trkpt>
      <trkpt lat="46.26566" lon="6.46543">
        <ele>1045.57</ele>
        <time>2019-02-03T16:23:37Z</time>
      </trkpt>
      <trkpt lat="46.26565" lon="6.46541">
        <ele>1045.09</ele>
        <time>2019-02-03T16:23:46Z</time>
      </trkpt>
      <trkpt lat="46.26568" lon="6.46535">
        <ele>1046.05</ele>
        <time>2019-02-03T16:23:59Z</time>
      </trkpt>
      <trkpt lat="46.26568" lon="6.46537">
        <ele>1046.05</ele>
        <time>2019-02-03T16:24:12Z</time>
      </trkpt>
      <trkpt lat="46.26567" lon="6.46536">
        <ele>1046.05</ele>
        <time>2019-02-03T16:24:37Z</time>
      </trkpt>
      <trkpt lat="46.26567" lon="6.46532">
        <ele>1046.05</ele>
        <time>2019-02-03T16:25:03Z</time>
      </trkpt>
      <trkpt lat="46.26566" lon="6.46527">
        <ele>1045.57</ele>
        <time>2019-02-03T16:25:15Z</time>
      </trkpt>
      <trkpt lat="46.26566" lon="6.46524">
        <ele>1045.57</ele>
        <time>2019-02-03T16:25:17Z</time>
      </trkpt>
      <trkpt lat="46.26566" lon="6.46519">
        <ele>1045.57</ele>
        <time>2019-02-03T16:25:20Z</time>
      </trkpt>
      <trkpt lat="46.26568" lon="6.46514">
        <ele>1045.09</ele>
        <time>2019-02-03T16:25:23Z</time>
      </trkpt>
      <trkpt lat="46.26571" lon="6.46499">
        <ele>1046.05</ele>
        <time>2019-02-03T16:25:32Z</time>
      </trkpt>
      <trkpt lat="46.26571" lon="6.46496">
        <ele>1045.57</ele>
        <time>2019-02-03T16:25:34Z</time>
      </trkpt>
      <trkpt lat="46.26564" lon="6.46485">
        <ele>1045.57</ele>
        <time>2019-02-03T16:25:47Z</time>
      </trkpt>
      <trkpt lat="46.26566" lon="6.46484">
        <ele>1045.09</ele>
        <time>2019-02-03T16:26:05Z</time>
      </trkpt>
      <trkpt lat="46.26567" lon="6.4648">
        <ele>1045.57</ele>
        <time>2019-02-03T16:26:27Z</time>
      </trkpt>
      <trkpt lat="46.26567" lon="6.46478">
        <ele>1045.57</ele>
        <time>2019-02-03T16:26:44Z</time>
      </trkpt>
      <trkpt lat="46.26565" lon="6.46471">
        <ele>1045.57</ele>
        <time>2019-02-03T16:27:06Z</time>
      </trkpt>
    </trkseg>
  </trk>
</gpx>